<?xml version="1.0" encoding="UTF-8" standalone="no" ?>
<gpx xmlns="http://www.topografix.com/GPX/1/1" xmlns:xsi="http://www.w3.org/2001/XMLSchema-instance" xsi:schemaLocation="http://www.topografix.com/GPX/1/1 http://www.topografix.com/GPX/1/1/gpx.xsd" version="1.1" creator="VisuGPX - https://www.visugpx.com">
  <metadata>
    <name>col de l\'Oeillon depuis Echalas</name>
    <desc><![CDATA[Le col est difficile, mais la descente ensuite sur la Terrasse sur Dorlay est très agréable.]]></desc>
  </metadata>
  <trk>
    <name><![CDATA[Sequence 1]]></name>
    <trkseg>
      <trkpt lat="45.55371" lon="4.71887">
        <ele>358</ele>
        <time>2015-07-27T11:17:06Z</time>
      </trkpt>
      <trkpt lat="45.55364" lon="4.71894">
        <ele>359</ele>
        <time>2015-07-27T11:17:10Z</time>
      </trkpt>
      <trkpt lat="45.55354" lon="4.71901">
        <ele>359</ele>
        <time>2015-07-27T11:17:16Z</time>
      </trkpt>
      <trkpt lat="45.55343" lon="4.71905">
        <ele>360</ele>
        <time>2015-07-27T11:17:21Z</time>
      </trkpt>
      <trkpt lat="45.55339" lon="4.71906">
        <ele>361</ele>
        <time>2015-07-27T11:17:23Z</time>
      </trkpt>
      <trkpt lat="45.55324" lon="4.71911">
        <ele>363</ele>
        <time>2015-07-27T11:17:29Z</time>
      </trkpt>
      <trkpt lat="45.55319" lon="4.71913">
        <ele>363</ele>
        <time>2015-07-27T11:17:32Z</time>
      </trkpt>
      <trkpt lat="45.55298" lon="4.71915">
        <ele>365</ele>
        <time>2015-07-27T11:17:40Z</time>
      </trkpt>
      <trkpt lat="45.55295" lon="4.71916">
        <ele>365</ele>
        <time>2015-07-27T11:17:42Z</time>
      </trkpt>
      <trkpt lat="45.55281" lon="4.71916">
        <ele>365</ele>
        <time>2015-07-27T11:17:47Z</time>
      </trkpt>
      <trkpt lat="45.55268" lon="4.71918">
        <ele>365</ele>
        <time>2015-07-27T11:17:52Z</time>
      </trkpt>
      <trkpt lat="45.55251" lon="4.71919">
        <ele>367</ele>
        <time>2015-07-27T11:17:57Z</time>
      </trkpt>
      <trkpt lat="45.55229" lon="4.7192">
        <ele>368</ele>
        <time>2015-07-27T11:18:04Z</time>
      </trkpt>
      <trkpt lat="45.55209" lon="4.7192">
        <ele>368</ele>
        <time>2015-07-27T11:18:10Z</time>
      </trkpt>
      <trkpt lat="45.55203" lon="4.71917">
        <ele>368</ele>
        <time>2015-07-27T11:18:12Z</time>
      </trkpt>
      <trkpt lat="45.55189" lon="4.71914">
        <ele>369</ele>
        <time>2015-07-27T11:18:17Z</time>
      </trkpt>
      <trkpt lat="45.55175" lon="4.71914">
        <ele>370</ele>
        <time>2015-07-27T11:18:22Z</time>
      </trkpt>
      <trkpt lat="45.5516" lon="4.71914">
        <ele>370</ele>
        <time>2015-07-27T11:18:27Z</time>
      </trkpt>
      <trkpt lat="45.55144" lon="4.71911">
        <ele>370</ele>
        <time>2015-07-27T11:18:32Z</time>
      </trkpt>
      <trkpt lat="45.55128" lon="4.71912">
        <ele>370</ele>
        <time>2015-07-27T11:18:37Z</time>
      </trkpt>
      <trkpt lat="45.55111" lon="4.71913">
        <ele>371</ele>
        <time>2015-07-27T11:18:42Z</time>
      </trkpt>
      <trkpt lat="45.55095" lon="4.71914">
        <ele>371</ele>
        <time>2015-07-27T11:18:47Z</time>
      </trkpt>
      <trkpt lat="45.55079" lon="4.71917">
        <ele>372</ele>
        <time>2015-07-27T11:18:52Z</time>
      </trkpt>
      <trkpt lat="45.55061" lon="4.71917">
        <ele>373</ele>
        <time>2015-07-27T11:18:57Z</time>
      </trkpt>
      <trkpt lat="45.55041" lon="4.71921">
        <ele>374</ele>
        <time>2015-07-27T11:19:02Z</time>
      </trkpt>
      <trkpt lat="45.55027" lon="4.71939">
        <ele>374</ele>
        <time>2015-07-27T11:19:07Z</time>
      </trkpt>
      <trkpt lat="45.55014" lon="4.71957">
        <ele>374</ele>
        <time>2015-07-27T11:19:12Z</time>
      </trkpt>
      <trkpt lat="45.55001" lon="4.71975">
        <ele>375</ele>
        <time>2015-07-27T11:19:17Z</time>
      </trkpt>
      <trkpt lat="45.54988" lon="4.71993">
        <ele>376</ele>
        <time>2015-07-27T11:19:22Z</time>
      </trkpt>
      <trkpt lat="45.54976" lon="4.72012">
        <ele>377</ele>
        <time>2015-07-27T11:19:27Z</time>
      </trkpt>
      <trkpt lat="45.54961" lon="4.72029">
        <ele>378</ele>
        <time>2015-07-27T11:19:32Z</time>
      </trkpt>
      <trkpt lat="45.54947" lon="4.72045">
        <ele>378</ele>
        <time>2015-07-27T11:19:37Z</time>
      </trkpt>
      <trkpt lat="45.54932" lon="4.72058">
        <ele>379</ele>
        <time>2015-07-27T11:19:42Z</time>
      </trkpt>
      <trkpt lat="45.54918" lon="4.72072">
        <ele>380</ele>
        <time>2015-07-27T11:19:47Z</time>
      </trkpt>
      <trkpt lat="45.54903" lon="4.72086">
        <ele>383</ele>
        <time>2015-07-27T11:19:52Z</time>
      </trkpt>
      <trkpt lat="45.54889" lon="4.72099">
        <ele>384</ele>
        <time>2015-07-27T11:19:57Z</time>
      </trkpt>
      <trkpt lat="45.54876" lon="4.7211">
        <ele>384</ele>
        <time>2015-07-27T11:20:02Z</time>
      </trkpt>
      <trkpt lat="45.54862" lon="4.72121">
        <ele>385</ele>
        <time>2015-07-27T11:20:07Z</time>
      </trkpt>
      <trkpt lat="45.54849" lon="4.72131">
        <ele>386</ele>
        <time>2015-07-27T11:20:12Z</time>
      </trkpt>
      <trkpt lat="45.54836" lon="4.72142">
        <ele>386</ele>
        <time>2015-07-27T11:20:17Z</time>
      </trkpt>
      <trkpt lat="45.54823" lon="4.72153">
        <ele>390</ele>
        <time>2015-07-27T11:20:22Z</time>
      </trkpt>
      <trkpt lat="45.54811" lon="4.72164">
        <ele>390</ele>
        <time>2015-07-27T11:20:27Z</time>
      </trkpt>
      <trkpt lat="45.548" lon="4.72176">
        <ele>393</ele>
        <time>2015-07-27T11:20:32Z</time>
      </trkpt>
      <trkpt lat="45.54788" lon="4.72187">
        <ele>394</ele>
        <time>2015-07-27T11:20:37Z</time>
      </trkpt>
      <trkpt lat="45.54776" lon="4.72196">
        <ele>395</ele>
        <time>2015-07-27T11:20:42Z</time>
      </trkpt>
      <trkpt lat="45.54763" lon="4.72208">
        <ele>396</ele>
        <time>2015-07-27T11:20:47Z</time>
      </trkpt>
      <trkpt lat="45.54752" lon="4.72219">
        <ele>397</ele>
        <time>2015-07-27T11:20:52Z</time>
      </trkpt>
      <trkpt lat="45.54739" lon="4.72229">
        <ele>401</ele>
        <time>2015-07-27T11:20:57Z</time>
      </trkpt>
      <trkpt lat="45.54728" lon="4.72241">
        <ele>402</ele>
        <time>2015-07-27T11:21:02Z</time>
      </trkpt>
      <trkpt lat="45.54716" lon="4.72253">
        <ele>403</ele>
        <time>2015-07-27T11:21:07Z</time>
      </trkpt>
      <trkpt lat="45.54705" lon="4.72264">
        <ele>404</ele>
        <time>2015-07-27T11:21:12Z</time>
      </trkpt>
      <trkpt lat="45.54694" lon="4.72274">
        <ele>404</ele>
        <time>2015-07-27T11:21:17Z</time>
      </trkpt>
      <trkpt lat="45.54683" lon="4.72283">
        <ele>404</ele>
        <time>2015-07-27T11:21:22Z</time>
      </trkpt>
      <trkpt lat="45.54671" lon="4.72292">
        <ele>405</ele>
        <time>2015-07-27T11:21:27Z</time>
      </trkpt>
      <trkpt lat="45.54659" lon="4.72302">
        <ele>409</ele>
        <time>2015-07-27T11:21:32Z</time>
      </trkpt>
      <trkpt lat="45.54647" lon="4.72312">
        <ele>410</ele>
        <time>2015-07-27T11:21:37Z</time>
      </trkpt>
      <trkpt lat="45.54635" lon="4.72323">
        <ele>410</ele>
        <time>2015-07-27T11:21:42Z</time>
      </trkpt>
      <trkpt lat="45.54623" lon="4.72335">
        <ele>409</ele>
        <time>2015-07-27T11:21:47Z</time>
      </trkpt>
      <trkpt lat="45.54609" lon="4.72345">
        <ele>410</ele>
        <time>2015-07-27T11:21:52Z</time>
      </trkpt>
      <trkpt lat="45.54596" lon="4.72354">
        <ele>410</ele>
        <time>2015-07-27T11:21:57Z</time>
      </trkpt>
      <trkpt lat="45.54583" lon="4.72364">
        <ele>413</ele>
        <time>2015-07-27T11:22:02Z</time>
      </trkpt>
      <trkpt lat="45.54572" lon="4.72374">
        <ele>413</ele>
        <time>2015-07-27T11:22:07Z</time>
      </trkpt>
      <trkpt lat="45.5456" lon="4.72386">
        <ele>413</ele>
        <time>2015-07-27T11:22:12Z</time>
      </trkpt>
      <trkpt lat="45.54548" lon="4.72398">
        <ele>413</ele>
        <time>2015-07-27T11:22:17Z</time>
      </trkpt>
      <trkpt lat="45.54535" lon="4.72412">
        <ele>414</ele>
        <time>2015-07-27T11:22:22Z</time>
      </trkpt>
      <trkpt lat="45.54521" lon="4.72426">
        <ele>413</ele>
        <time>2015-07-27T11:22:27Z</time>
      </trkpt>
      <trkpt lat="45.54507" lon="4.72441">
        <ele>413</ele>
        <time>2015-07-27T11:22:32Z</time>
      </trkpt>
      <trkpt lat="45.54493" lon="4.72459">
        <ele>415</ele>
        <time>2015-07-27T11:22:37Z</time>
      </trkpt>
      <trkpt lat="45.5448" lon="4.72478">
        <ele>415</ele>
        <time>2015-07-27T11:22:42Z</time>
      </trkpt>
      <trkpt lat="45.54467" lon="4.72499">
        <ele>415</ele>
        <time>2015-07-27T11:22:47Z</time>
      </trkpt>
      <trkpt lat="45.54455" lon="4.72521">
        <ele>416</ele>
        <time>2015-07-27T11:22:52Z</time>
      </trkpt>
      <trkpt lat="45.54442" lon="4.72541">
        <ele>416</ele>
        <time>2015-07-27T11:22:57Z</time>
      </trkpt>
      <trkpt lat="45.54428" lon="4.72562">
        <ele>417</ele>
        <time>2015-07-27T11:23:02Z</time>
      </trkpt>
      <trkpt lat="45.54416" lon="4.72585">
        <ele>418</ele>
        <time>2015-07-27T11:23:07Z</time>
      </trkpt>
      <trkpt lat="45.54404" lon="4.72609">
        <ele>419</ele>
        <time>2015-07-27T11:23:12Z</time>
      </trkpt>
      <trkpt lat="45.54392" lon="4.72632">
        <ele>420</ele>
        <time>2015-07-27T11:23:17Z</time>
      </trkpt>
      <trkpt lat="45.5438" lon="4.72656">
        <ele>420</ele>
        <time>2015-07-27T11:23:22Z</time>
      </trkpt>
      <trkpt lat="45.54368" lon="4.72681">
        <ele>421</ele>
        <time>2015-07-27T11:23:27Z</time>
      </trkpt>
      <trkpt lat="45.54357" lon="4.72707">
        <ele>422</ele>
        <time>2015-07-27T11:23:32Z</time>
      </trkpt>
      <trkpt lat="45.54348" lon="4.72732">
        <ele>423</ele>
        <time>2015-07-27T11:23:37Z</time>
      </trkpt>
      <trkpt lat="45.54339" lon="4.72756">
        <ele>424</ele>
        <time>2015-07-27T11:23:42Z</time>
      </trkpt>
      <trkpt lat="45.54329" lon="4.72781">
        <ele>427</ele>
        <time>2015-07-27T11:23:47Z</time>
      </trkpt>
      <trkpt lat="45.54319" lon="4.72804">
        <ele>427</ele>
        <time>2015-07-27T11:23:52Z</time>
      </trkpt>
      <trkpt lat="45.54307" lon="4.72826">
        <ele>427</ele>
        <time>2015-07-27T11:23:57Z</time>
      </trkpt>
      <trkpt lat="45.54293" lon="4.72846">
        <ele>426</ele>
        <time>2015-07-27T11:24:02Z</time>
      </trkpt>
      <trkpt lat="45.54277" lon="4.7287">
        <ele>426</ele>
        <time>2015-07-27T11:24:07Z</time>
      </trkpt>
      <trkpt lat="45.54259" lon="4.72895">
        <ele>427</ele>
        <time>2015-07-27T11:24:12Z</time>
      </trkpt>
      <trkpt lat="45.54241" lon="4.72925">
        <ele>428</ele>
        <time>2015-07-27T11:24:17Z</time>
      </trkpt>
      <trkpt lat="45.5422" lon="4.72958">
        <ele>427</ele>
        <time>2015-07-27T11:24:22Z</time>
      </trkpt>
      <trkpt lat="45.54199" lon="4.7299">
        <ele>427</ele>
        <time>2015-07-27T11:24:27Z</time>
      </trkpt>
      <trkpt lat="45.54181" lon="4.73024">
        <ele>428</ele>
        <time>2015-07-27T11:24:32Z</time>
      </trkpt>
      <trkpt lat="45.54163" lon="4.73055">
        <ele>428</ele>
        <time>2015-07-27T11:24:37Z</time>
      </trkpt>
      <trkpt lat="45.54147" lon="4.73083">
        <ele>431</ele>
        <time>2015-07-27T11:24:42Z</time>
      </trkpt>
      <trkpt lat="45.54132" lon="4.7311">
        <ele>432</ele>
        <time>2015-07-27T11:24:47Z</time>
      </trkpt>
      <trkpt lat="45.54118" lon="4.73136">
        <ele>433</ele>
        <time>2015-07-27T11:24:52Z</time>
      </trkpt>
      <trkpt lat="45.54105" lon="4.73157">
        <ele>435</ele>
        <time>2015-07-27T11:24:57Z</time>
      </trkpt>
      <trkpt lat="45.54094" lon="4.73178">
        <ele>439</ele>
        <time>2015-07-27T11:25:02Z</time>
      </trkpt>
      <trkpt lat="45.54081" lon="4.732">
        <ele>436</ele>
        <time>2015-07-27T11:25:07Z</time>
      </trkpt>
      <trkpt lat="45.54072" lon="4.73225">
        <ele>437</ele>
        <time>2015-07-27T11:25:12Z</time>
      </trkpt>
      <trkpt lat="45.54064" lon="4.73253">
        <ele>439</ele>
        <time>2015-07-27T11:25:17Z</time>
      </trkpt>
      <trkpt lat="45.54056" lon="4.73282">
        <ele>438</ele>
        <time>2015-07-27T11:25:22Z</time>
      </trkpt>
      <trkpt lat="45.54048" lon="4.73313">
        <ele>437</ele>
        <time>2015-07-27T11:25:27Z</time>
      </trkpt>
      <trkpt lat="45.54047" lon="4.73346">
        <ele>436</ele>
        <time>2015-07-27T11:25:32Z</time>
      </trkpt>
      <trkpt lat="45.54069" lon="4.73374">
        <ele>436</ele>
        <time>2015-07-27T11:25:37Z</time>
      </trkpt>
      <trkpt lat="45.54101" lon="4.73396">
        <ele>439</ele>
        <time>2015-07-27T11:25:42Z</time>
      </trkpt>
      <trkpt lat="45.54112" lon="4.73443">
        <ele>440</ele>
        <time>2015-07-27T11:25:47Z</time>
      </trkpt>
      <trkpt lat="45.54102" lon="4.73491">
        <ele>439</ele>
        <time>2015-07-27T11:25:52Z</time>
      </trkpt>
      <trkpt lat="45.54085" lon="4.73535">
        <ele>442</ele>
        <time>2015-07-27T11:25:57Z</time>
      </trkpt>
      <trkpt lat="45.54063" lon="4.73571">
        <ele>436</ele>
        <time>2015-07-27T11:26:02Z</time>
      </trkpt>
      <trkpt lat="45.54045" lon="4.73606">
        <ele>436</ele>
        <time>2015-07-27T11:26:07Z</time>
      </trkpt>
      <trkpt lat="45.5403" lon="4.73644">
        <ele>436</ele>
        <time>2015-07-27T11:26:12Z</time>
      </trkpt>
      <trkpt lat="45.54026" lon="4.73688">
        <ele>436</ele>
        <time>2015-07-27T11:26:17Z</time>
      </trkpt>
      <trkpt lat="45.54042" lon="4.73731">
        <ele>436</ele>
        <time>2015-07-27T11:26:22Z</time>
      </trkpt>
      <trkpt lat="45.5407" lon="4.73762">
        <ele>436</ele>
        <time>2015-07-27T11:26:27Z</time>
      </trkpt>
      <trkpt lat="45.54084" lon="4.73805">
        <ele>439</ele>
        <time>2015-07-27T11:26:32Z</time>
      </trkpt>
      <trkpt lat="45.54092" lon="4.73853">
        <ele>436</ele>
        <time>2015-07-27T11:26:37Z</time>
      </trkpt>
      <trkpt lat="45.54119" lon="4.73904">
        <ele>434</ele>
        <time>2015-07-27T11:26:42Z</time>
      </trkpt>
      <trkpt lat="45.54165" lon="4.7394">
        <ele>430</ele>
        <time>2015-07-27T11:26:47Z</time>
      </trkpt>
      <trkpt lat="45.54198" lon="4.73978">
        <ele>431</ele>
        <time>2015-07-27T11:26:52Z</time>
      </trkpt>
      <trkpt lat="45.54165" lon="4.74029">
        <ele>425</ele>
        <time>2015-07-27T11:26:57Z</time>
      </trkpt>
      <trkpt lat="45.5413" lon="4.7408">
        <ele>425</ele>
        <time>2015-07-27T11:27:02Z</time>
      </trkpt>
      <trkpt lat="45.54107" lon="4.74138">
        <ele>425</ele>
        <time>2015-07-27T11:27:07Z</time>
      </trkpt>
      <trkpt lat="45.54109" lon="4.74192">
        <ele>426</ele>
        <time>2015-07-27T11:27:12Z</time>
      </trkpt>
      <trkpt lat="45.54128" lon="4.74243">
        <ele>427</ele>
        <time>2015-07-27T11:27:17Z</time>
      </trkpt>
      <trkpt lat="45.54125" lon="4.74297">
        <ele>427</ele>
        <time>2015-07-27T11:27:22Z</time>
      </trkpt>
      <trkpt lat="45.54115" lon="4.74339">
        <ele>428</ele>
        <time>2015-07-27T11:27:27Z</time>
      </trkpt>
      <trkpt lat="45.54099" lon="4.74366">
        <ele>428</ele>
        <time>2015-07-27T11:27:32Z</time>
      </trkpt>
      <trkpt lat="45.54071" lon="4.74366">
        <ele>425</ele>
        <time>2015-07-27T11:27:37Z</time>
      </trkpt>
      <trkpt lat="45.5404" lon="4.74358">
        <ele>425</ele>
        <time>2015-07-27T11:27:42Z</time>
      </trkpt>
      <trkpt lat="45.54005" lon="4.74349">
        <ele>425</ele>
        <time>2015-07-27T11:27:47Z</time>
      </trkpt>
      <trkpt lat="45.53969" lon="4.74342">
        <ele>423</ele>
        <time>2015-07-27T11:27:52Z</time>
      </trkpt>
      <trkpt lat="45.53932" lon="4.74334">
        <ele>423</ele>
        <time>2015-07-27T11:27:57Z</time>
      </trkpt>
      <trkpt lat="45.53895" lon="4.74329">
        <ele>422</ele>
        <time>2015-07-27T11:28:02Z</time>
      </trkpt>
      <trkpt lat="45.53851" lon="4.74332">
        <ele>422</ele>
        <time>2015-07-27T11:28:08Z</time>
      </trkpt>
      <trkpt lat="45.53816" lon="4.74337">
        <ele>422</ele>
        <time>2015-07-27T11:28:13Z</time>
      </trkpt>
      <trkpt lat="45.53783" lon="4.74346">
        <ele>423</ele>
        <time>2015-07-27T11:28:18Z</time>
      </trkpt>
      <trkpt lat="45.53752" lon="4.74359">
        <ele>423</ele>
        <time>2015-07-27T11:28:23Z</time>
      </trkpt>
      <trkpt lat="45.53724" lon="4.74371">
        <ele>426</ele>
        <time>2015-07-27T11:28:28Z</time>
      </trkpt>
      <trkpt lat="45.537" lon="4.74383">
        <ele>426</ele>
        <time>2015-07-27T11:28:33Z</time>
      </trkpt>
      <trkpt lat="45.53677" lon="4.74395">
        <ele>428</ele>
        <time>2015-07-27T11:28:38Z</time>
      </trkpt>
      <trkpt lat="45.53655" lon="4.74407">
        <ele>430</ele>
        <time>2015-07-27T11:28:43Z</time>
      </trkpt>
      <trkpt lat="45.53633" lon="4.74419">
        <ele>433</ele>
        <time>2015-07-27T11:28:48Z</time>
      </trkpt>
      <trkpt lat="45.53612" lon="4.74432">
        <ele>433</ele>
        <time>2015-07-27T11:28:53Z</time>
      </trkpt>
      <trkpt lat="45.53591" lon="4.74446">
        <ele>433</ele>
        <time>2015-07-27T11:28:58Z</time>
      </trkpt>
      <trkpt lat="45.5357" lon="4.74459">
        <ele>436</ele>
        <time>2015-07-27T11:29:03Z</time>
      </trkpt>
      <trkpt lat="45.53549" lon="4.74471">
        <ele>437</ele>
        <time>2015-07-27T11:29:08Z</time>
      </trkpt>
      <trkpt lat="45.53531" lon="4.74481">
        <ele>438</ele>
        <time>2015-07-27T11:29:13Z</time>
      </trkpt>
      <trkpt lat="45.53512" lon="4.74488">
        <ele>439</ele>
        <time>2015-07-27T11:29:18Z</time>
      </trkpt>
      <trkpt lat="45.53493" lon="4.74481">
        <ele>445</ele>
        <time>2015-07-27T11:29:23Z</time>
      </trkpt>
      <trkpt lat="45.53482" lon="4.74458">
        <ele>448</ele>
        <time>2015-07-27T11:29:28Z</time>
      </trkpt>
      <trkpt lat="45.53482" lon="4.74432">
        <ele>447</ele>
        <time>2015-07-27T11:29:33Z</time>
      </trkpt>
      <trkpt lat="45.5349" lon="4.74407">
        <ele>446</ele>
        <time>2015-07-27T11:29:38Z</time>
      </trkpt>
      <trkpt lat="45.53501" lon="4.74384">
        <ele>438</ele>
        <time>2015-07-27T11:29:43Z</time>
      </trkpt>
      <trkpt lat="45.53507" lon="4.74359">
        <ele>439</ele>
        <time>2015-07-27T11:29:48Z</time>
      </trkpt>
      <trkpt lat="45.53503" lon="4.74337">
        <ele>443</ele>
        <time>2015-07-27T11:29:53Z</time>
      </trkpt>
      <trkpt lat="45.53487" lon="4.74299">
        <ele>445</ele>
        <time>2015-07-27T11:30:01Z</time>
      </trkpt>
      <trkpt lat="45.53482" lon="4.7429">
        <ele>445</ele>
        <time>2015-07-27T11:30:03Z</time>
      </trkpt>
      <trkpt lat="45.53469" lon="4.7427">
        <ele>445</ele>
        <time>2015-07-27T11:30:08Z</time>
      </trkpt>
      <trkpt lat="45.53453" lon="4.74254">
        <ele>445</ele>
        <time>2015-07-27T11:30:13Z</time>
      </trkpt>
      <trkpt lat="45.53436" lon="4.74241">
        <ele>442</ele>
        <time>2015-07-27T11:30:18Z</time>
      </trkpt>
      <trkpt lat="45.53418" lon="4.74231">
        <ele>443</ele>
        <time>2015-07-27T11:30:23Z</time>
      </trkpt>
      <trkpt lat="45.53401" lon="4.74223">
        <ele>446</ele>
        <time>2015-07-27T11:30:28Z</time>
      </trkpt>
      <trkpt lat="45.53383" lon="4.74217">
        <ele>446</ele>
        <time>2015-07-27T11:30:33Z</time>
      </trkpt>
      <trkpt lat="45.53365" lon="4.74214">
        <ele>446</ele>
        <time>2015-07-27T11:30:38Z</time>
      </trkpt>
      <trkpt lat="45.53347" lon="4.74218">
        <ele>447</ele>
        <time>2015-07-27T11:30:43Z</time>
      </trkpt>
      <trkpt lat="45.5333" lon="4.74228">
        <ele>448</ele>
        <time>2015-07-27T11:30:48Z</time>
      </trkpt>
      <trkpt lat="45.53315" lon="4.74242">
        <ele>448</ele>
        <time>2015-07-27T11:30:53Z</time>
      </trkpt>
      <trkpt lat="45.53299" lon="4.74259">
        <ele>455</ele>
        <time>2015-07-27T11:30:58Z</time>
      </trkpt>
      <trkpt lat="45.5327" lon="4.74288">
        <ele>456</ele>
        <time>2015-07-27T11:31:07Z</time>
      </trkpt>
      <trkpt lat="45.53257" lon="4.74301">
        <ele>457</ele>
        <time>2015-07-27T11:31:11Z</time>
      </trkpt>
      <trkpt lat="45.53238" lon="4.74322">
        <ele>458</ele>
        <time>2015-07-27T11:31:17Z</time>
      </trkpt>
      <trkpt lat="45.53235" lon="4.74326">
        <ele>458</ele>
        <time>2015-07-27T11:31:18Z</time>
      </trkpt>
      <trkpt lat="45.53216" lon="4.7434">
        <ele>464</ele>
        <time>2015-07-27T11:31:23Z</time>
      </trkpt>
      <trkpt lat="45.53197" lon="4.74348">
        <ele>463</ele>
        <time>2015-07-27T11:31:28Z</time>
      </trkpt>
      <trkpt lat="45.53177" lon="4.7435">
        <ele>461</ele>
        <time>2015-07-27T11:31:33Z</time>
      </trkpt>
      <trkpt lat="45.53156" lon="4.74345">
        <ele>462</ele>
        <time>2015-07-27T11:31:38Z</time>
      </trkpt>
      <trkpt lat="45.53136" lon="4.74333">
        <ele>457</ele>
        <time>2015-07-27T11:31:43Z</time>
      </trkpt>
      <trkpt lat="45.53119" lon="4.74318">
        <ele>458</ele>
        <time>2015-07-27T11:31:48Z</time>
      </trkpt>
      <trkpt lat="45.53098" lon="4.74302">
        <ele>458</ele>
        <time>2015-07-27T11:31:53Z</time>
      </trkpt>
      <trkpt lat="45.53075" lon="4.74282">
        <ele>465</ele>
        <time>2015-07-27T11:31:58Z</time>
      </trkpt>
      <trkpt lat="45.53057" lon="4.74255">
        <ele>464</ele>
        <time>2015-07-27T11:32:03Z</time>
      </trkpt>
      <trkpt lat="45.53043" lon="4.74231">
        <ele>459</ele>
        <time>2015-07-27T11:32:08Z</time>
      </trkpt>
      <trkpt lat="45.53027" lon="4.74213">
        <ele>459</ele>
        <time>2015-07-27T11:32:13Z</time>
      </trkpt>
      <trkpt lat="45.53009" lon="4.74203">
        <ele>459</ele>
        <time>2015-07-27T11:32:18Z</time>
      </trkpt>
      <trkpt lat="45.5299" lon="4.74196">
        <ele>467</ele>
        <time>2015-07-27T11:32:23Z</time>
      </trkpt>
      <trkpt lat="45.52971" lon="4.7419">
        <ele>469</ele>
        <time>2015-07-27T11:32:28Z</time>
      </trkpt>
      <trkpt lat="45.52952" lon="4.7418">
        <ele>470</ele>
        <time>2015-07-27T11:32:33Z</time>
      </trkpt>
      <trkpt lat="45.52936" lon="4.74166">
        <ele>467</ele>
        <time>2015-07-27T11:32:38Z</time>
      </trkpt>
      <trkpt lat="45.52923" lon="4.74147">
        <ele>467</ele>
        <time>2015-07-27T11:32:43Z</time>
      </trkpt>
      <trkpt lat="45.52911" lon="4.74126">
        <ele>472</ele>
        <time>2015-07-27T11:32:48Z</time>
      </trkpt>
      <trkpt lat="45.52891" lon="4.74097">
        <ele>470</ele>
        <time>2015-07-27T11:32:56Z</time>
      </trkpt>
      <trkpt lat="45.52883" lon="4.74088">
        <ele>471</ele>
        <time>2015-07-27T11:32:59Z</time>
      </trkpt>
      <trkpt lat="45.52869" lon="4.74079">
        <ele>466</ele>
        <time>2015-07-27T11:33:03Z</time>
      </trkpt>
      <trkpt lat="45.5285" lon="4.74076">
        <ele>468</ele>
        <time>2015-07-27T11:33:08Z</time>
      </trkpt>
      <trkpt lat="45.52833" lon="4.7408">
        <ele>471</ele>
        <time>2015-07-27T11:33:13Z</time>
      </trkpt>
      <trkpt lat="45.52817" lon="4.74089">
        <ele>475</ele>
        <time>2015-07-27T11:33:18Z</time>
      </trkpt>
      <trkpt lat="45.52798" lon="4.74101">
        <ele>476</ele>
        <time>2015-07-27T11:33:23Z</time>
      </trkpt>
      <trkpt lat="45.52783" lon="4.74116">
        <ele>477</ele>
        <time>2015-07-27T11:33:28Z</time>
      </trkpt>
      <trkpt lat="45.52767" lon="4.74131">
        <ele>478</ele>
        <time>2015-07-27T11:33:33Z</time>
      </trkpt>
      <trkpt lat="45.52755" lon="4.74145">
        <ele>481</ele>
        <time>2015-07-27T11:33:38Z</time>
      </trkpt>
      <trkpt lat="45.52742" lon="4.74159">
        <ele>482</ele>
        <time>2015-07-27T11:33:43Z</time>
      </trkpt>
      <trkpt lat="45.52727" lon="4.74172">
        <ele>488</ele>
        <time>2015-07-27T11:33:48Z</time>
      </trkpt>
      <trkpt lat="45.52704" lon="4.7419">
        <ele>489</ele>
        <time>2015-07-27T11:33:57Z</time>
      </trkpt>
      <trkpt lat="45.527" lon="4.74192">
        <ele>489</ele>
        <time>2015-07-27T11:33:58Z</time>
      </trkpt>
      <trkpt lat="45.52683" lon="4.742">
        <ele>489</ele>
        <time>2015-07-27T11:34:03Z</time>
      </trkpt>
      <trkpt lat="45.52667" lon="4.74207">
        <ele>489</ele>
        <time>2015-07-27T11:34:08Z</time>
      </trkpt>
      <trkpt lat="45.52649" lon="4.74212">
        <ele>489</ele>
        <time>2015-07-27T11:34:13Z</time>
      </trkpt>
      <trkpt lat="45.52631" lon="4.74215">
        <ele>490</ele>
        <time>2015-07-27T11:34:18Z</time>
      </trkpt>
      <trkpt lat="45.52614" lon="4.74214">
        <ele>490</ele>
        <time>2015-07-27T11:34:23Z</time>
      </trkpt>
      <trkpt lat="45.52578" lon="4.7421">
        <ele>489</ele>
        <time>2015-07-27T11:34:32Z</time>
      </trkpt>
      <trkpt lat="45.52574" lon="4.7421">
        <ele>489</ele>
        <time>2015-07-27T11:34:33Z</time>
      </trkpt>
      <trkpt lat="45.52551" lon="4.74208">
        <ele>489</ele>
        <time>2015-07-27T11:34:39Z</time>
      </trkpt>
      <trkpt lat="45.52536" lon="4.74208">
        <ele>489</ele>
        <time>2015-07-27T11:34:43Z</time>
      </trkpt>
      <trkpt lat="45.52516" lon="4.74207">
        <ele>489</ele>
        <time>2015-07-27T11:34:48Z</time>
      </trkpt>
      <trkpt lat="45.52498" lon="4.74205">
        <ele>487</ele>
        <time>2015-07-27T11:34:53Z</time>
      </trkpt>
      <trkpt lat="45.5248" lon="4.74205">
        <ele>487</ele>
        <time>2015-07-27T11:34:58Z</time>
      </trkpt>
      <trkpt lat="45.52456" lon="4.74207">
        <ele>487</ele>
        <time>2015-07-27T11:35:04Z</time>
      </trkpt>
      <trkpt lat="45.52438" lon="4.74215">
        <ele>488</ele>
        <time>2015-07-27T11:35:09Z</time>
      </trkpt>
      <trkpt lat="45.5242" lon="4.74226">
        <ele>489</ele>
        <time>2015-07-27T11:35:14Z</time>
      </trkpt>
      <trkpt lat="45.52403" lon="4.74238">
        <ele>487</ele>
        <time>2015-07-27T11:35:19Z</time>
      </trkpt>
      <trkpt lat="45.52386" lon="4.7425">
        <ele>496</ele>
        <time>2015-07-27T11:35:24Z</time>
      </trkpt>
      <trkpt lat="45.5237" lon="4.74264">
        <ele>496</ele>
        <time>2015-07-27T11:35:29Z</time>
      </trkpt>
      <trkpt lat="45.52354" lon="4.7428">
        <ele>496</ele>
        <time>2015-07-27T11:35:34Z</time>
      </trkpt>
      <trkpt lat="45.5234" lon="4.74296">
        <ele>498</ele>
        <time>2015-07-27T11:35:39Z</time>
      </trkpt>
      <trkpt lat="45.52326" lon="4.74313">
        <ele>497</ele>
        <time>2015-07-27T11:35:44Z</time>
      </trkpt>
      <trkpt lat="45.5231" lon="4.74328">
        <ele>498</ele>
        <time>2015-07-27T11:35:49Z</time>
      </trkpt>
      <trkpt lat="45.52293" lon="4.74341">
        <ele>503</ele>
        <time>2015-07-27T11:35:54Z</time>
      </trkpt>
      <trkpt lat="45.52276" lon="4.74348">
        <ele>503</ele>
        <time>2015-07-27T11:35:59Z</time>
      </trkpt>
      <trkpt lat="45.52257" lon="4.74348">
        <ele>502</ele>
        <time>2015-07-27T11:36:04Z</time>
      </trkpt>
      <trkpt lat="45.52241" lon="4.74345">
        <ele>499</ele>
        <time>2015-07-27T11:36:09Z</time>
      </trkpt>
      <trkpt lat="45.52232" lon="4.74331">
        <ele>499</ele>
        <time>2015-07-27T11:36:14Z</time>
      </trkpt>
      <trkpt lat="45.52226" lon="4.74302">
        <ele>499</ele>
        <time>2015-07-27T11:36:19Z</time>
      </trkpt>
      <trkpt lat="45.52221" lon="4.74265">
        <ele>498</ele>
        <time>2015-07-27T11:36:24Z</time>
      </trkpt>
      <trkpt lat="45.52214" lon="4.74221">
        <ele>495</ele>
        <time>2015-07-27T11:36:29Z</time>
      </trkpt>
      <trkpt lat="45.52207" lon="4.74173">
        <ele>495</ele>
        <time>2015-07-27T11:36:34Z</time>
      </trkpt>
      <trkpt lat="45.52198" lon="4.74119">
        <ele>492</ele>
        <time>2015-07-27T11:36:39Z</time>
      </trkpt>
      <trkpt lat="45.52188" lon="4.74063">
        <ele>490</ele>
        <time>2015-07-27T11:36:44Z</time>
      </trkpt>
      <trkpt lat="45.52174" lon="4.7401">
        <ele>490</ele>
        <time>2015-07-27T11:36:49Z</time>
      </trkpt>
      <trkpt lat="45.5215" lon="4.73957">
        <ele>490</ele>
        <time>2015-07-27T11:36:54Z</time>
      </trkpt>
      <trkpt lat="45.52103" lon="4.73907">
        <ele>484</ele>
        <time>2015-07-27T11:37:00Z</time>
      </trkpt>
      <trkpt lat="45.52055" lon="4.73892">
        <ele>484</ele>
        <time>2015-07-27T11:37:05Z</time>
      </trkpt>
      <trkpt lat="45.52007" lon="4.73877">
        <ele>483</ele>
        <time>2015-07-27T11:37:10Z</time>
      </trkpt>
      <trkpt lat="45.51958" lon="4.73868">
        <ele>485</ele>
        <time>2015-07-27T11:37:15Z</time>
      </trkpt>
      <trkpt lat="45.51917" lon="4.73835">
        <ele>482</ele>
        <time>2015-07-27T11:37:20Z</time>
      </trkpt>
      <trkpt lat="45.51922" lon="4.73759">
        <ele>476</ele>
        <time>2015-07-27T11:37:26Z</time>
      </trkpt>
      <trkpt lat="45.5192" lon="4.73673">
        <ele>471</ele>
        <time>2015-07-27T11:37:32Z</time>
      </trkpt>
      <trkpt lat="45.51919" lon="4.73628">
        <ele>465</ele>
        <time>2015-07-27T11:37:35Z</time>
      </trkpt>
      <trkpt lat="45.51926" lon="4.73562">
        <ele>462</ele>
        <time>2015-07-27T11:37:40Z</time>
      </trkpt>
      <trkpt lat="45.51909" lon="4.73503">
        <ele>462</ele>
        <time>2015-07-27T11:37:45Z</time>
      </trkpt>
      <trkpt lat="45.51873" lon="4.7346">
        <ele>458</ele>
        <time>2015-07-27T11:37:50Z</time>
      </trkpt>
      <trkpt lat="45.51831" lon="4.73422">
        <ele>457</ele>
        <time>2015-07-27T11:37:55Z</time>
      </trkpt>
      <trkpt lat="45.51787" lon="4.73383">
        <ele>454</ele>
        <time>2015-07-27T11:38:00Z</time>
      </trkpt>
      <trkpt lat="45.51745" lon="4.73343">
        <ele>453</ele>
        <time>2015-07-27T11:38:05Z</time>
      </trkpt>
      <trkpt lat="45.51702" lon="4.73303">
        <ele>450</ele>
        <time>2015-07-27T11:38:10Z</time>
      </trkpt>
      <trkpt lat="45.51659" lon="4.73265">
        <ele>449</ele>
        <time>2015-07-27T11:38:15Z</time>
      </trkpt>
      <trkpt lat="45.51624" lon="4.73212">
        <ele>445</ele>
        <time>2015-07-27T11:38:20Z</time>
      </trkpt>
      <trkpt lat="45.51622" lon="4.73138">
        <ele>441</ele>
        <time>2015-07-27T11:38:25Z</time>
      </trkpt>
      <trkpt lat="45.51625" lon="4.73067">
        <ele>438</ele>
        <time>2015-07-27T11:38:30Z</time>
      </trkpt>
      <trkpt lat="45.51627" lon="4.73002">
        <ele>437</ele>
        <time>2015-07-27T11:38:35Z</time>
      </trkpt>
      <trkpt lat="45.51629" lon="4.72939">
        <ele>434</ele>
        <time>2015-07-27T11:38:40Z</time>
      </trkpt>
      <trkpt lat="45.51631" lon="4.72877">
        <ele>432</ele>
        <time>2015-07-27T11:38:45Z</time>
      </trkpt>
      <trkpt lat="45.51632" lon="4.72817">
        <ele>430</ele>
        <time>2015-07-27T11:38:50Z</time>
      </trkpt>
      <trkpt lat="45.51635" lon="4.72761">
        <ele>430</ele>
        <time>2015-07-27T11:38:55Z</time>
      </trkpt>
      <trkpt lat="45.51636" lon="4.72705">
        <ele>428</ele>
        <time>2015-07-27T11:39:00Z</time>
      </trkpt>
      <trkpt lat="45.51636" lon="4.72654">
        <ele>428</ele>
        <time>2015-07-27T11:39:05Z</time>
      </trkpt>
      <trkpt lat="45.51624" lon="4.72592">
        <ele>427</ele>
        <time>2015-07-27T11:39:12Z</time>
      </trkpt>
      <trkpt lat="45.51609" lon="4.72573">
        <ele>426</ele>
        <time>2015-07-27T11:39:15Z</time>
      </trkpt>
      <trkpt lat="45.51574" lon="4.72554">
        <ele>424</ele>
        <time>2015-07-27T11:39:20Z</time>
      </trkpt>
      <trkpt lat="45.51536" lon="4.72531">
        <ele>423</ele>
        <time>2015-07-27T11:39:25Z</time>
      </trkpt>
      <trkpt lat="45.5152" lon="4.72491">
        <ele>420</ele>
        <time>2015-07-27T11:39:29Z</time>
      </trkpt>
      <trkpt lat="45.51533" lon="4.72428">
        <ele>419</ele>
        <time>2015-07-27T11:39:34Z</time>
      </trkpt>
      <trkpt lat="45.51558" lon="4.7237">
        <ele>415</ele>
        <time>2015-07-27T11:39:39Z</time>
      </trkpt>
      <trkpt lat="45.51588" lon="4.72314">
        <ele>415</ele>
        <time>2015-07-27T11:39:44Z</time>
      </trkpt>
      <trkpt lat="45.51598" lon="4.72251">
        <ele>412</ele>
        <time>2015-07-27T11:39:49Z</time>
      </trkpt>
      <trkpt lat="45.51568" lon="4.72201">
        <ele>409</ele>
        <time>2015-07-27T11:39:54Z</time>
      </trkpt>
      <trkpt lat="45.51549" lon="4.72166">
        <ele>411</ele>
        <time>2015-07-27T11:39:59Z</time>
      </trkpt>
      <trkpt lat="45.51535" lon="4.72156">
        <ele>411</ele>
        <time>2015-07-27T11:40:04Z</time>
      </trkpt>
      <trkpt lat="45.51517" lon="4.72146">
        <ele>411</ele>
        <time>2015-07-27T11:40:09Z</time>
      </trkpt>
      <trkpt lat="45.51499" lon="4.72137">
        <ele>413</ele>
        <time>2015-07-27T11:40:14Z</time>
      </trkpt>
      <trkpt lat="45.5148" lon="4.7213">
        <ele>413</ele>
        <time>2015-07-27T11:40:19Z</time>
      </trkpt>
      <trkpt lat="45.51456" lon="4.72123">
        <ele>414</ele>
        <time>2015-07-27T11:40:25Z</time>
      </trkpt>
      <trkpt lat="45.51435" lon="4.72118">
        <ele>414</ele>
        <time>2015-07-27T11:40:30Z</time>
      </trkpt>
      <trkpt lat="45.51415" lon="4.72115">
        <ele>416</ele>
        <time>2015-07-27T11:40:35Z</time>
      </trkpt>
      <trkpt lat="45.51394" lon="4.72115">
        <ele>416</ele>
        <time>2015-07-27T11:40:40Z</time>
      </trkpt>
      <trkpt lat="45.51374" lon="4.72119">
        <ele>417</ele>
        <time>2015-07-27T11:40:45Z</time>
      </trkpt>
      <trkpt lat="45.51355" lon="4.72125">
        <ele>417</ele>
        <time>2015-07-27T11:40:50Z</time>
      </trkpt>
      <trkpt lat="45.51334" lon="4.72131">
        <ele>417</ele>
        <time>2015-07-27T11:40:55Z</time>
      </trkpt>
      <trkpt lat="45.51315" lon="4.72135">
        <ele>420</ele>
        <time>2015-07-27T11:41:00Z</time>
      </trkpt>
      <trkpt lat="45.51295" lon="4.72136">
        <ele>421</ele>
        <time>2015-07-27T11:41:05Z</time>
      </trkpt>
      <trkpt lat="45.51275" lon="4.72138">
        <ele>421</ele>
        <time>2015-07-27T11:41:10Z</time>
      </trkpt>
      <trkpt lat="45.51256" lon="4.72141">
        <ele>421</ele>
        <time>2015-07-27T11:41:15Z</time>
      </trkpt>
      <trkpt lat="45.51233" lon="4.72149">
        <ele>425</ele>
        <time>2015-07-27T11:41:21Z</time>
      </trkpt>
      <trkpt lat="45.51219" lon="4.72155">
        <ele>426</ele>
        <time>2015-07-27T11:41:25Z</time>
      </trkpt>
      <trkpt lat="45.512" lon="4.72165">
        <ele>427</ele>
        <time>2015-07-27T11:41:30Z</time>
      </trkpt>
      <trkpt lat="45.51181" lon="4.72176">
        <ele>423</ele>
        <time>2015-07-27T11:41:35Z</time>
      </trkpt>
      <trkpt lat="45.51164" lon="4.72188">
        <ele>426</ele>
        <time>2015-07-27T11:41:40Z</time>
      </trkpt>
      <trkpt lat="45.51145" lon="4.72199">
        <ele>426</ele>
        <time>2015-07-27T11:41:45Z</time>
      </trkpt>
      <trkpt lat="45.51126" lon="4.7221">
        <ele>426</ele>
        <time>2015-07-27T11:41:50Z</time>
      </trkpt>
      <trkpt lat="45.51107" lon="4.7222">
        <ele>426</ele>
        <time>2015-07-27T11:41:55Z</time>
      </trkpt>
      <trkpt lat="45.51088" lon="4.72227">
        <ele>426</ele>
        <time>2015-07-27T11:42:00Z</time>
      </trkpt>
      <trkpt lat="45.51069" lon="4.72231">
        <ele>427</ele>
        <time>2015-07-27T11:42:05Z</time>
      </trkpt>
      <trkpt lat="45.51051" lon="4.7223">
        <ele>428</ele>
        <time>2015-07-27T11:42:10Z</time>
      </trkpt>
      <trkpt lat="45.51035" lon="4.7222">
        <ele>428</ele>
        <time>2015-07-27T11:42:15Z</time>
      </trkpt>
      <trkpt lat="45.51025" lon="4.72201">
        <ele>429</ele>
        <time>2015-07-27T11:42:20Z</time>
      </trkpt>
      <trkpt lat="45.51022" lon="4.72179">
        <ele>430</ele>
        <time>2015-07-27T11:42:25Z</time>
      </trkpt>
      <trkpt lat="45.51019" lon="4.72155">
        <ele>434</ele>
        <time>2015-07-27T11:42:30Z</time>
      </trkpt>
      <trkpt lat="45.51012" lon="4.72131">
        <ele>435</ele>
        <time>2015-07-27T11:42:35Z</time>
      </trkpt>
      <trkpt lat="45.50998" lon="4.72114">
        <ele>438</ele>
        <time>2015-07-27T11:42:40Z</time>
      </trkpt>
      <trkpt lat="45.50982" lon="4.72108">
        <ele>438</ele>
        <time>2015-07-27T11:42:45Z</time>
      </trkpt>
      <trkpt lat="45.50969" lon="4.72108">
        <ele>439</ele>
        <time>2015-07-27T11:42:49Z</time>
      </trkpt>
      <trkpt lat="45.50952" lon="4.72115">
        <ele>439</ele>
        <time>2015-07-27T11:42:54Z</time>
      </trkpt>
      <trkpt lat="45.50935" lon="4.72127">
        <ele>439</ele>
        <time>2015-07-27T11:42:59Z</time>
      </trkpt>
      <trkpt lat="45.5092" lon="4.72139">
        <ele>439</ele>
        <time>2015-07-27T11:43:04Z</time>
      </trkpt>
      <trkpt lat="45.50895" lon="4.72168">
        <ele>440</ele>
        <time>2015-07-27T11:43:13Z</time>
      </trkpt>
      <trkpt lat="45.50883" lon="4.72184">
        <ele>440</ele>
        <time>2015-07-27T11:43:17Z</time>
      </trkpt>
      <trkpt lat="45.50873" lon="4.72194">
        <ele>440</ele>
        <time>2015-07-27T11:43:20Z</time>
      </trkpt>
      <trkpt lat="45.5086" lon="4.72206">
        <ele>440</ele>
        <time>2015-07-27T11:43:24Z</time>
      </trkpt>
      <trkpt lat="45.5083" lon="4.72227">
        <ele>442</ele>
        <time>2015-07-27T11:43:32Z</time>
      </trkpt>
      <trkpt lat="45.50823" lon="4.72231">
        <ele>442</ele>
        <time>2015-07-27T11:43:34Z</time>
      </trkpt>
      <trkpt lat="45.50803" lon="4.72237">
        <ele>442</ele>
        <time>2015-07-27T11:43:39Z</time>
      </trkpt>
      <trkpt lat="45.50782" lon="4.72242">
        <ele>442</ele>
        <time>2015-07-27T11:43:44Z</time>
      </trkpt>
      <trkpt lat="45.50758" lon="4.72241">
        <ele>442</ele>
        <time>2015-07-27T11:43:49Z</time>
      </trkpt>
      <trkpt lat="45.50737" lon="4.72226">
        <ele>439</ele>
        <time>2015-07-27T11:43:54Z</time>
      </trkpt>
      <trkpt lat="45.50718" lon="4.72204">
        <ele>439</ele>
        <time>2015-07-27T11:43:59Z</time>
      </trkpt>
      <trkpt lat="45.50698" lon="4.72126">
        <ele>441</ele>
        <time>2015-07-27T11:44:08Z</time>
      </trkpt>
      <trkpt lat="45.50698" lon="4.72117">
        <ele>441</ele>
        <time>2015-07-27T11:44:09Z</time>
      </trkpt>
      <trkpt lat="45.50697" lon="4.72066">
        <ele>443</ele>
        <time>2015-07-27T11:44:14Z</time>
      </trkpt>
      <trkpt lat="45.50695" lon="4.72013">
        <ele>445</ele>
        <time>2015-07-27T11:44:19Z</time>
      </trkpt>
      <trkpt lat="45.50673" lon="4.71986">
        <ele>447</ele>
        <time>2015-07-27T11:44:24Z</time>
      </trkpt>
      <trkpt lat="45.50649" lon="4.71997">
        <ele>448</ele>
        <time>2015-07-27T11:44:29Z</time>
      </trkpt>
      <trkpt lat="45.5063" lon="4.72012">
        <ele>442</ele>
        <time>2015-07-27T11:44:34Z</time>
      </trkpt>
      <trkpt lat="45.50589" lon="4.72027">
        <ele>443</ele>
        <time>2015-07-27T11:44:43Z</time>
      </trkpt>
      <trkpt lat="45.50578" lon="4.72029">
        <ele>442</ele>
        <time>2015-07-27T11:44:45Z</time>
      </trkpt>
      <trkpt lat="45.5056" lon="4.72025">
        <ele>442</ele>
        <time>2015-07-27T11:44:49Z</time>
      </trkpt>
      <trkpt lat="45.50535" lon="4.72009">
        <ele>442</ele>
        <time>2015-07-27T11:44:55Z</time>
      </trkpt>
      <trkpt lat="45.50524" lon="4.7199">
        <ele>448</ele>
        <time>2015-07-27T11:44:59Z</time>
      </trkpt>
      <trkpt lat="45.50512" lon="4.71965">
        <ele>450</ele>
        <time>2015-07-27T11:45:04Z</time>
      </trkpt>
      <trkpt lat="45.50499" lon="4.71943">
        <ele>452</ele>
        <time>2015-07-27T11:45:09Z</time>
      </trkpt>
      <trkpt lat="45.50478" lon="4.71933">
        <ele>453</ele>
        <time>2015-07-27T11:45:14Z</time>
      </trkpt>
      <trkpt lat="45.50458" lon="4.71942">
        <ele>452</ele>
        <time>2015-07-27T11:45:19Z</time>
      </trkpt>
      <trkpt lat="45.50441" lon="4.71957">
        <ele>451</ele>
        <time>2015-07-27T11:45:24Z</time>
      </trkpt>
      <trkpt lat="45.50422" lon="4.71972">
        <ele>449</ele>
        <time>2015-07-27T11:45:29Z</time>
      </trkpt>
      <trkpt lat="45.50392" lon="4.71985">
        <ele>448</ele>
        <time>2015-07-27T11:45:36Z</time>
      </trkpt>
      <trkpt lat="45.50378" lon="4.71984">
        <ele>448</ele>
        <time>2015-07-27T11:45:39Z</time>
      </trkpt>
      <trkpt lat="45.50357" lon="4.71973">
        <ele>447</ele>
        <time>2015-07-27T11:45:44Z</time>
      </trkpt>
      <trkpt lat="45.50347" lon="4.71949">
        <ele>448</ele>
        <time>2015-07-27T11:45:49Z</time>
      </trkpt>
      <trkpt lat="45.5034" lon="4.71916">
        <ele>450</ele>
        <time>2015-07-27T11:45:54Z</time>
      </trkpt>
      <trkpt lat="45.50335" lon="4.71855">
        <ele>454</ele>
        <time>2015-07-27T11:46:01Z</time>
      </trkpt>
      <trkpt lat="45.50335" lon="4.71825">
        <ele>456</ele>
        <time>2015-07-27T11:46:04Z</time>
      </trkpt>
      <trkpt lat="45.50306" lon="4.71815">
        <ele>459</ele>
        <time>2015-07-27T11:46:09Z</time>
      </trkpt>
      <trkpt lat="45.50278" lon="4.7184">
        <ele>450</ele>
        <time>2015-07-27T11:46:14Z</time>
      </trkpt>
      <trkpt lat="45.50253" lon="4.71863">
        <ele>448</ele>
        <time>2015-07-27T11:46:19Z</time>
      </trkpt>
      <trkpt lat="45.50215" lon="4.71863">
        <ele>447</ele>
        <time>2015-07-27T11:46:25Z</time>
      </trkpt>
      <trkpt lat="45.50192" lon="4.71845">
        <ele>448</ele>
        <time>2015-07-27T11:46:30Z</time>
      </trkpt>
      <trkpt lat="45.50158" lon="4.71801">
        <ele>460</ele>
        <time>2015-07-27T11:46:38Z</time>
      </trkpt>
      <trkpt lat="45.50154" lon="4.71797">
        <ele>460</ele>
        <time>2015-07-27T11:46:39Z</time>
      </trkpt>
      <trkpt lat="45.50132" lon="4.71809">
        <ele>461</ele>
        <time>2015-07-27T11:46:44Z</time>
      </trkpt>
      <trkpt lat="45.5013" lon="4.71836">
        <ele>455</ele>
        <time>2015-07-27T11:46:48Z</time>
      </trkpt>
      <trkpt lat="45.50129" lon="4.71868">
        <ele>454</ele>
        <time>2015-07-27T11:46:53Z</time>
      </trkpt>
      <trkpt lat="45.50124" lon="4.71893">
        <ele>453</ele>
        <time>2015-07-27T11:46:58Z</time>
      </trkpt>
      <trkpt lat="45.50098" lon="4.71915">
        <ele>455</ele>
        <time>2015-07-27T11:47:06Z</time>
      </trkpt>
      <trkpt lat="45.50086" lon="4.71916">
        <ele>456</ele>
        <time>2015-07-27T11:47:09Z</time>
      </trkpt>
      <trkpt lat="45.50058" lon="4.71924">
        <ele>460</ele>
        <time>2015-07-27T11:47:16Z</time>
      </trkpt>
      <trkpt lat="45.50049" lon="4.71935">
        <ele>460</ele>
        <time>2015-07-27T11:47:19Z</time>
      </trkpt>
      <trkpt lat="45.50042" lon="4.71949">
        <ele>461</ele>
        <time>2015-07-27T11:47:22Z</time>
      </trkpt>
      <trkpt lat="45.5004" lon="4.71977">
        <ele>460</ele>
        <time>2015-07-27T11:47:27Z</time>
      </trkpt>
      <trkpt lat="45.50045" lon="4.72004">
        <ele>456</ele>
        <time>2015-07-27T11:47:32Z</time>
      </trkpt>
      <trkpt lat="45.50049" lon="4.72034">
        <ele>455</ele>
        <time>2015-07-27T11:47:37Z</time>
      </trkpt>
      <trkpt lat="45.50043" lon="4.72062">
        <ele>456</ele>
        <time>2015-07-27T11:47:42Z</time>
      </trkpt>
      <trkpt lat="45.50031" lon="4.72084">
        <ele>456</ele>
        <time>2015-07-27T11:47:47Z</time>
      </trkpt>
      <trkpt lat="45.50013" lon="4.72112">
        <ele>456</ele>
        <time>2015-07-27T11:47:54Z</time>
      </trkpt>
      <trkpt lat="45.50005" lon="4.72123">
        <ele>456</ele>
        <time>2015-07-27T11:47:57Z</time>
      </trkpt>
      <trkpt lat="45.49976" lon="4.72153">
        <ele>461</ele>
        <time>2015-07-27T11:48:05Z</time>
      </trkpt>
      <trkpt lat="45.49969" lon="4.7216">
        <ele>462</ele>
        <time>2015-07-27T11:48:07Z</time>
      </trkpt>
      <trkpt lat="45.4995" lon="4.72178">
        <ele>459</ele>
        <time>2015-07-27T11:48:12Z</time>
      </trkpt>
      <trkpt lat="45.49931" lon="4.72193">
        <ele>459</ele>
        <time>2015-07-27T11:48:17Z</time>
      </trkpt>
      <trkpt lat="45.49907" lon="4.72205">
        <ele>463</ele>
        <time>2015-07-27T11:48:23Z</time>
      </trkpt>
      <trkpt lat="45.4989" lon="4.72207">
        <ele>463</ele>
        <time>2015-07-27T11:48:27Z</time>
      </trkpt>
      <trkpt lat="45.49869" lon="4.72204">
        <ele>464</ele>
        <time>2015-07-27T11:48:32Z</time>
      </trkpt>
      <trkpt lat="45.49849" lon="4.72203">
        <ele>465</ele>
        <time>2015-07-27T11:48:37Z</time>
      </trkpt>
      <trkpt lat="45.49829" lon="4.722">
        <ele>467</ele>
        <time>2015-07-27T11:48:42Z</time>
      </trkpt>
      <trkpt lat="45.49806" lon="4.72199">
        <ele>467</ele>
        <time>2015-07-27T11:48:47Z</time>
      </trkpt>
      <trkpt lat="45.49786" lon="4.72198">
        <ele>467</ele>
        <time>2015-07-27T11:48:52Z</time>
      </trkpt>
      <trkpt lat="45.49766" lon="4.72196">
        <ele>467</ele>
        <time>2015-07-27T11:48:57Z</time>
      </trkpt>
      <trkpt lat="45.49747" lon="4.72194">
        <ele>468</ele>
        <time>2015-07-27T11:49:02Z</time>
      </trkpt>
      <trkpt lat="45.49727" lon="4.7219">
        <ele>468</ele>
        <time>2015-07-27T11:49:07Z</time>
      </trkpt>
      <trkpt lat="45.49707" lon="4.72186">
        <ele>469</ele>
        <time>2015-07-27T11:49:12Z</time>
      </trkpt>
      <trkpt lat="45.49688" lon="4.72183">
        <ele>469</ele>
        <time>2015-07-27T11:49:17Z</time>
      </trkpt>
      <trkpt lat="45.49669" lon="4.72176">
        <ele>471</ele>
        <time>2015-07-27T11:49:22Z</time>
      </trkpt>
      <trkpt lat="45.49652" lon="4.72162">
        <ele>471</ele>
        <time>2015-07-27T11:49:27Z</time>
      </trkpt>
      <trkpt lat="45.4964" lon="4.72139">
        <ele>471</ele>
        <time>2015-07-27T11:49:32Z</time>
      </trkpt>
      <trkpt lat="45.49632" lon="4.72113">
        <ele>471</ele>
        <time>2015-07-27T11:49:37Z</time>
      </trkpt>
      <trkpt lat="45.49626" lon="4.72087">
        <ele>471</ele>
        <time>2015-07-27T11:49:42Z</time>
      </trkpt>
      <trkpt lat="45.49622" lon="4.72057">
        <ele>473</ele>
        <time>2015-07-27T11:49:47Z</time>
      </trkpt>
      <trkpt lat="45.49618" lon="4.72028">
        <ele>473</ele>
        <time>2015-07-27T11:49:52Z</time>
      </trkpt>
      <trkpt lat="45.49613" lon="4.71996">
        <ele>474</ele>
        <time>2015-07-27T11:49:57Z</time>
      </trkpt>
      <trkpt lat="45.49604" lon="4.71964">
        <ele>474</ele>
        <time>2015-07-27T11:50:02Z</time>
      </trkpt>
      <trkpt lat="45.4959" lon="4.71935">
        <ele>474</ele>
        <time>2015-07-27T11:50:07Z</time>
      </trkpt>
      <trkpt lat="45.49579" lon="4.71904">
        <ele>472</ele>
        <time>2015-07-27T11:50:12Z</time>
      </trkpt>
      <trkpt lat="45.49571" lon="4.7187">
        <ele>472</ele>
        <time>2015-07-27T11:50:17Z</time>
      </trkpt>
      <trkpt lat="45.49555" lon="4.71839">
        <ele>473</ele>
        <time>2015-07-27T11:50:22Z</time>
      </trkpt>
      <trkpt lat="45.49521" lon="4.71795">
        <ele>474</ele>
        <time>2015-07-27T11:50:30Z</time>
      </trkpt>
      <trkpt lat="45.49513" lon="4.71783">
        <ele>474</ele>
        <time>2015-07-27T11:50:32Z</time>
      </trkpt>
      <trkpt lat="45.49493" lon="4.71748">
        <ele>473</ele>
        <time>2015-07-27T11:50:37Z</time>
      </trkpt>
      <trkpt lat="45.49475" lon="4.71713">
        <ele>475</ele>
        <time>2015-07-27T11:50:42Z</time>
      </trkpt>
      <trkpt lat="45.49455" lon="4.71681">
        <ele>475</ele>
        <time>2015-07-27T11:50:47Z</time>
      </trkpt>
      <trkpt lat="45.49427" lon="4.71674">
        <ele>477</ele>
        <time>2015-07-27T11:50:52Z</time>
      </trkpt>
      <trkpt lat="45.49405" lon="4.71692">
        <ele>478</ele>
        <time>2015-07-27T11:50:57Z</time>
      </trkpt>
      <trkpt lat="45.4939" lon="4.71715">
        <ele>478</ele>
        <time>2015-07-27T11:51:02Z</time>
      </trkpt>
      <trkpt lat="45.4937" lon="4.7173">
        <ele>478</ele>
        <time>2015-07-27T11:51:07Z</time>
      </trkpt>
      <trkpt lat="45.49348" lon="4.71736">
        <ele>479</ele>
        <time>2015-07-27T11:51:12Z</time>
      </trkpt>
      <trkpt lat="45.49315" lon="4.71752">
        <ele>479</ele>
        <time>2015-07-27T11:51:20Z</time>
      </trkpt>
      <trkpt lat="45.49304" lon="4.71765">
        <ele>479</ele>
        <time>2015-07-27T11:51:23Z</time>
      </trkpt>
      <trkpt lat="45.49291" lon="4.71787">
        <ele>479</ele>
        <time>2015-07-27T11:51:27Z</time>
      </trkpt>
      <trkpt lat="45.49281" lon="4.71813">
        <ele>478</ele>
        <time>2015-07-27T11:51:31Z</time>
      </trkpt>
      <trkpt lat="45.49269" lon="4.71843">
        <ele>474</ele>
        <time>2015-07-27T11:51:35Z</time>
      </trkpt>
      <trkpt lat="45.49231" lon="4.71911">
        <ele>474</ele>
        <time>2015-07-27T11:51:43Z</time>
      </trkpt>
      <trkpt lat="45.49195" lon="4.71951">
        <ele>469</ele>
        <time>2015-07-27T11:51:48Z</time>
      </trkpt>
      <trkpt lat="45.49176" lon="4.7196">
        <ele>468</ele>
        <time>2015-07-27T11:51:50Z</time>
      </trkpt>
      <trkpt lat="45.49128" lon="4.71971">
        <ele>468</ele>
        <time>2015-07-27T11:51:55Z</time>
      </trkpt>
      <trkpt lat="45.49082" lon="4.71981">
        <ele>468</ele>
        <time>2015-07-27T11:52:00Z</time>
      </trkpt>
      <trkpt lat="45.49039" lon="4.71994">
        <ele>469</ele>
        <time>2015-07-27T11:52:05Z</time>
      </trkpt>
      <trkpt lat="45.48994" lon="4.72004">
        <ele>465</ele>
        <time>2015-07-27T11:52:10Z</time>
      </trkpt>
      <trkpt lat="45.48947" lon="4.72018">
        <ele>466</ele>
        <time>2015-07-27T11:52:15Z</time>
      </trkpt>
      <trkpt lat="45.48905" lon="4.72043">
        <ele>469</ele>
        <time>2015-07-27T11:52:20Z</time>
      </trkpt>
      <trkpt lat="45.48875" lon="4.72111">
        <ele>459</ele>
        <time>2015-07-27T11:52:26Z</time>
      </trkpt>
      <trkpt lat="45.48835" lon="4.72168">
        <ele>456</ele>
        <time>2015-07-27T11:52:31Z</time>
      </trkpt>
      <trkpt lat="45.48797" lon="4.72209">
        <ele>454</ele>
        <time>2015-07-27T11:52:35Z</time>
      </trkpt>
      <trkpt lat="45.48703" lon="4.72266">
        <ele>449</ele>
        <time>2015-07-27T11:52:43Z</time>
      </trkpt>
      <trkpt lat="45.48679" lon="4.72277">
        <ele>449</ele>
        <time>2015-07-27T11:52:45Z</time>
      </trkpt>
      <trkpt lat="45.48615" lon="4.72311">
        <ele>446</ele>
        <time>2015-07-27T11:52:50Z</time>
      </trkpt>
      <trkpt lat="45.48518" lon="4.72401">
        <ele>436</ele>
        <time>2015-07-27T11:52:58Z</time>
      </trkpt>
      <trkpt lat="45.48493" lon="4.72425">
        <ele>432</ele>
        <time>2015-07-27T11:53:00Z</time>
      </trkpt>
      <trkpt lat="45.48427" lon="4.7248">
        <ele>429</ele>
        <time>2015-07-27T11:53:05Z</time>
      </trkpt>
      <trkpt lat="45.48353" lon="4.7248">
        <ele>426</ele>
        <time>2015-07-27T11:53:10Z</time>
      </trkpt>
      <trkpt lat="45.48286" lon="4.72448">
        <ele>423</ele>
        <time>2015-07-27T11:53:15Z</time>
      </trkpt>
      <trkpt lat="45.48222" lon="4.72448">
        <ele>423</ele>
        <time>2015-07-27T11:53:20Z</time>
      </trkpt>
      <trkpt lat="45.48167" lon="4.72459">
        <ele>424</ele>
        <time>2015-07-27T11:53:25Z</time>
      </trkpt>
      <trkpt lat="45.48128" lon="4.72491">
        <ele>427</ele>
        <time>2015-07-27T11:53:30Z</time>
      </trkpt>
      <trkpt lat="45.48098" lon="4.72524">
        <ele>424</ele>
        <time>2015-07-27T11:53:35Z</time>
      </trkpt>
      <trkpt lat="45.48062" lon="4.72552">
        <ele>427</ele>
        <time>2015-07-27T11:53:41Z</time>
      </trkpt>
      <trkpt lat="45.48039" lon="4.72558">
        <ele>428</ele>
        <time>2015-07-27T11:53:45Z</time>
      </trkpt>
      <trkpt lat="45.48012" lon="4.72564">
        <ele>428</ele>
        <time>2015-07-27T11:53:50Z</time>
      </trkpt>
      <trkpt lat="45.47987" lon="4.72567">
        <ele>430</ele>
        <time>2015-07-27T11:53:55Z</time>
      </trkpt>
      <trkpt lat="45.47962" lon="4.72571">
        <ele>432</ele>
        <time>2015-07-27T11:54:00Z</time>
      </trkpt>
      <trkpt lat="45.47935" lon="4.72575">
        <ele>432</ele>
        <time>2015-07-27T11:54:05Z</time>
      </trkpt>
      <trkpt lat="45.47907" lon="4.72576">
        <ele>431</ele>
        <time>2015-07-27T11:54:10Z</time>
      </trkpt>
      <trkpt lat="45.4788" lon="4.72577">
        <ele>432</ele>
        <time>2015-07-27T11:54:15Z</time>
      </trkpt>
      <trkpt lat="45.47851" lon="4.72577">
        <ele>431</ele>
        <time>2015-07-27T11:54:20Z</time>
      </trkpt>
      <trkpt lat="45.47821" lon="4.72577">
        <ele>429</ele>
        <time>2015-07-27T11:54:25Z</time>
      </trkpt>
      <trkpt lat="45.47789" lon="4.72578">
        <ele>429</ele>
        <time>2015-07-27T11:54:30Z</time>
      </trkpt>
      <trkpt lat="45.47754" lon="4.72575">
        <ele>426</ele>
        <time>2015-07-27T11:54:35Z</time>
      </trkpt>
      <trkpt lat="45.47715" lon="4.72567">
        <ele>425</ele>
        <time>2015-07-27T11:54:40Z</time>
      </trkpt>
      <trkpt lat="45.47674" lon="4.72556">
        <ele>425</ele>
        <time>2015-07-27T11:54:45Z</time>
      </trkpt>
      <trkpt lat="45.47642" lon="4.72542">
        <ele>422</ele>
        <time>2015-07-27T11:54:49Z</time>
      </trkpt>
      <trkpt lat="45.47605" lon="4.72524">
        <ele>422</ele>
        <time>2015-07-27T11:54:54Z</time>
      </trkpt>
      <trkpt lat="45.47574" lon="4.72504">
        <ele>422</ele>
        <time>2015-07-27T11:54:59Z</time>
      </trkpt>
      <trkpt lat="45.47548" lon="4.72489">
        <ele>423</ele>
        <time>2015-07-27T11:55:04Z</time>
      </trkpt>
      <trkpt lat="45.47521" lon="4.72473">
        <ele>423</ele>
        <time>2015-07-27T11:55:09Z</time>
      </trkpt>
      <trkpt lat="45.47491" lon="4.72454">
        <ele>422</ele>
        <time>2015-07-27T11:55:14Z</time>
      </trkpt>
      <trkpt lat="45.47464" lon="4.72431">
        <ele>422</ele>
        <time>2015-07-27T11:55:19Z</time>
      </trkpt>
      <trkpt lat="45.47436" lon="4.72402">
        <ele>421</ele>
        <time>2015-07-27T11:55:24Z</time>
      </trkpt>
      <trkpt lat="45.47404" lon="4.72368">
        <ele>417</ele>
        <time>2015-07-27T11:55:29Z</time>
      </trkpt>
      <trkpt lat="45.47378" lon="4.72325">
        <ele>417</ele>
        <time>2015-07-27T11:55:34Z</time>
      </trkpt>
      <trkpt lat="45.47351" lon="4.72283">
        <ele>416</ele>
        <time>2015-07-27T11:55:39Z</time>
      </trkpt>
      <trkpt lat="45.4732" lon="4.72249">
        <ele>415</ele>
        <time>2015-07-27T11:55:44Z</time>
      </trkpt>
      <trkpt lat="45.47283" lon="4.72221">
        <ele>413</ele>
        <time>2015-07-27T11:55:49Z</time>
      </trkpt>
      <trkpt lat="45.47245" lon="4.7219">
        <ele>410</ele>
        <time>2015-07-27T11:55:54Z</time>
      </trkpt>
      <trkpt lat="45.47208" lon="4.72151">
        <ele>409</ele>
        <time>2015-07-27T11:55:59Z</time>
      </trkpt>
      <trkpt lat="45.47177" lon="4.721">
        <ele>408</ele>
        <time>2015-07-27T11:56:04Z</time>
      </trkpt>
      <trkpt lat="45.47155" lon="4.72044">
        <ele>403</ele>
        <time>2015-07-27T11:56:09Z</time>
      </trkpt>
      <trkpt lat="45.47132" lon="4.71987">
        <ele>403</ele>
        <time>2015-07-27T11:56:14Z</time>
      </trkpt>
      <trkpt lat="45.47111" lon="4.71936">
        <ele>403</ele>
        <time>2015-07-27T11:56:19Z</time>
      </trkpt>
      <trkpt lat="45.47092" lon="4.71887">
        <ele>404</ele>
        <time>2015-07-27T11:56:24Z</time>
      </trkpt>
      <trkpt lat="45.47073" lon="4.71841">
        <ele>400</ele>
        <time>2015-07-27T11:56:29Z</time>
      </trkpt>
      <trkpt lat="45.47052" lon="4.71799">
        <ele>401</ele>
        <time>2015-07-27T11:56:34Z</time>
      </trkpt>
      <trkpt lat="45.47015" lon="4.71775">
        <ele>400</ele>
        <time>2015-07-27T11:56:39Z</time>
      </trkpt>
      <trkpt lat="45.46975" lon="4.71791">
        <ele>404</ele>
        <time>2015-07-27T11:56:44Z</time>
      </trkpt>
      <trkpt lat="45.46952" lon="4.7189">
        <ele>402</ele>
        <time>2015-07-27T11:56:53Z</time>
      </trkpt>
      <trkpt lat="45.46952" lon="4.71902">
        <ele>402</ele>
        <time>2015-07-27T11:56:54Z</time>
      </trkpt>
      <trkpt lat="45.46945" lon="4.71955">
        <ele>400</ele>
        <time>2015-07-27T11:56:59Z</time>
      </trkpt>
      <trkpt lat="45.46938" lon="4.72002">
        <ele>399</ele>
        <time>2015-07-27T11:57:04Z</time>
      </trkpt>
      <trkpt lat="45.46921" lon="4.72047">
        <ele>396</ele>
        <time>2015-07-27T11:57:09Z</time>
      </trkpt>
      <trkpt lat="45.46892" lon="4.72076">
        <ele>402</ele>
        <time>2015-07-27T11:57:14Z</time>
      </trkpt>
      <trkpt lat="45.46845" lon="4.72107">
        <ele>397</ele>
        <time>2015-07-27T11:57:22Z</time>
      </trkpt>
      <trkpt lat="45.46831" lon="4.72107">
        <ele>399</ele>
        <time>2015-07-27T11:57:24Z</time>
      </trkpt>
      <trkpt lat="45.468" lon="4.72109">
        <ele>398</ele>
        <time>2015-07-27T11:57:29Z</time>
      </trkpt>
      <trkpt lat="45.46773" lon="4.7211">
        <ele>398</ele>
        <time>2015-07-27T11:57:33Z</time>
      </trkpt>
      <trkpt lat="45.46741" lon="4.72107">
        <ele>398</ele>
        <time>2015-07-27T11:57:38Z</time>
      </trkpt>
      <trkpt lat="45.4671" lon="4.72101">
        <ele>397</ele>
        <time>2015-07-27T11:57:43Z</time>
      </trkpt>
      <trkpt lat="45.46682" lon="4.72085">
        <ele>398</ele>
        <time>2015-07-27T11:57:48Z</time>
      </trkpt>
      <trkpt lat="45.46655" lon="4.72063">
        <ele>401</ele>
        <time>2015-07-27T11:57:53Z</time>
      </trkpt>
      <trkpt lat="45.46635" lon="4.72042">
        <ele>402</ele>
        <time>2015-07-27T11:57:57Z</time>
      </trkpt>
      <trkpt lat="45.46611" lon="4.72019">
        <ele>402</ele>
        <time>2015-07-27T11:58:02Z</time>
      </trkpt>
      <trkpt lat="45.46585" lon="4.71995">
        <ele>404</ele>
        <time>2015-07-27T11:58:07Z</time>
      </trkpt>
      <trkpt lat="45.46561" lon="4.71973">
        <ele>404</ele>
        <time>2015-07-27T11:58:12Z</time>
      </trkpt>
      <trkpt lat="45.46535" lon="4.71954">
        <ele>405</ele>
        <time>2015-07-27T11:58:17Z</time>
      </trkpt>
      <trkpt lat="45.4651" lon="4.71938">
        <ele>405</ele>
        <time>2015-07-27T11:58:22Z</time>
      </trkpt>
      <trkpt lat="45.46485" lon="4.71917">
        <ele>403</ele>
        <time>2015-07-27T11:58:27Z</time>
      </trkpt>
      <trkpt lat="45.46458" lon="4.719">
        <ele>405</ele>
        <time>2015-07-27T11:58:32Z</time>
      </trkpt>
      <trkpt lat="45.46432" lon="4.71888">
        <ele>404</ele>
        <time>2015-07-27T11:58:37Z</time>
      </trkpt>
      <trkpt lat="45.46404" lon="4.71881">
        <ele>402</ele>
        <time>2015-07-27T11:58:42Z</time>
      </trkpt>
      <trkpt lat="45.46377" lon="4.7188">
        <ele>402</ele>
        <time>2015-07-27T11:58:47Z</time>
      </trkpt>
      <trkpt lat="45.46349" lon="4.7188">
        <ele>402</ele>
        <time>2015-07-27T11:58:52Z</time>
      </trkpt>
      <trkpt lat="45.4633" lon="4.71874">
        <ele>404</ele>
        <time>2015-07-27T11:58:56Z</time>
      </trkpt>
      <trkpt lat="45.46308" lon="4.71856">
        <ele>405</ele>
        <time>2015-07-27T11:59:01Z</time>
      </trkpt>
      <trkpt lat="45.46289" lon="4.7183">
        <ele>404</ele>
        <time>2015-07-27T11:59:06Z</time>
      </trkpt>
      <trkpt lat="45.46272" lon="4.71802">
        <ele>404</ele>
        <time>2015-07-27T11:59:11Z</time>
      </trkpt>
      <trkpt lat="45.46254" lon="4.7177">
        <ele>403</ele>
        <time>2015-07-27T11:59:16Z</time>
      </trkpt>
      <trkpt lat="45.46239" lon="4.71732">
        <ele>402</ele>
        <time>2015-07-27T11:59:21Z</time>
      </trkpt>
      <trkpt lat="45.46225" lon="4.71691">
        <ele>401</ele>
        <time>2015-07-27T11:59:26Z</time>
      </trkpt>
      <trkpt lat="45.46215" lon="4.71645">
        <ele>400</ele>
        <time>2015-07-27T11:59:31Z</time>
      </trkpt>
      <trkpt lat="45.46208" lon="4.71611">
        <ele>400</ele>
        <time>2015-07-27T11:59:35Z</time>
      </trkpt>
      <trkpt lat="45.46199" lon="4.71567">
        <ele>400</ele>
        <time>2015-07-27T11:59:40Z</time>
      </trkpt>
      <trkpt lat="45.46186" lon="4.71525">
        <ele>400</ele>
        <time>2015-07-27T11:59:45Z</time>
      </trkpt>
      <trkpt lat="45.46168" lon="4.71487">
        <ele>400</ele>
        <time>2015-07-27T11:59:50Z</time>
      </trkpt>
      <trkpt lat="45.46145" lon="4.71452">
        <ele>397</ele>
        <time>2015-07-27T11:59:55Z</time>
      </trkpt>
      <trkpt lat="45.4612" lon="4.71416">
        <ele>398</ele>
        <time>2015-07-27T12:00:00Z</time>
      </trkpt>
      <trkpt lat="45.46098" lon="4.71378">
        <ele>397</ele>
        <time>2015-07-27T12:00:05Z</time>
      </trkpt>
      <trkpt lat="45.46077" lon="4.71339">
        <ele>395</ele>
        <time>2015-07-27T12:00:10Z</time>
      </trkpt>
      <trkpt lat="45.46055" lon="4.71299">
        <ele>394</ele>
        <time>2015-07-27T12:00:15Z</time>
      </trkpt>
      <trkpt lat="45.46036" lon="4.7126">
        <ele>393</ele>
        <time>2015-07-27T12:00:20Z</time>
      </trkpt>
      <trkpt lat="45.46022" lon="4.71215">
        <ele>393</ele>
        <time>2015-07-27T12:00:25Z</time>
      </trkpt>
      <trkpt lat="45.46009" lon="4.7117">
        <ele>391</ele>
        <time>2015-07-27T12:00:30Z</time>
      </trkpt>
      <trkpt lat="45.45999" lon="4.71123">
        <ele>388</ele>
        <time>2015-07-27T12:00:35Z</time>
      </trkpt>
      <trkpt lat="45.4599" lon="4.71079">
        <ele>391</ele>
        <time>2015-07-27T12:00:40Z</time>
      </trkpt>
      <trkpt lat="45.45975" lon="4.7104">
        <ele>389</ele>
        <time>2015-07-27T12:00:45Z</time>
      </trkpt>
      <trkpt lat="45.45955" lon="4.70999">
        <ele>390</ele>
        <time>2015-07-27T12:00:50Z</time>
      </trkpt>
      <trkpt lat="45.4593" lon="4.70957">
        <ele>390</ele>
        <time>2015-07-27T12:00:55Z</time>
      </trkpt>
      <trkpt lat="45.45905" lon="4.70921">
        <ele>389</ele>
        <time>2015-07-27T12:01:00Z</time>
      </trkpt>
      <trkpt lat="45.45871" lon="4.70902">
        <ele>390</ele>
        <time>2015-07-27T12:01:05Z</time>
      </trkpt>
      <trkpt lat="45.45841" lon="4.70891">
        <ele>389</ele>
        <time>2015-07-27T12:01:10Z</time>
      </trkpt>
      <trkpt lat="45.45816" lon="4.70877">
        <ele>388</ele>
        <time>2015-07-27T12:01:15Z</time>
      </trkpt>
      <trkpt lat="45.45795" lon="4.70857">
        <ele>387</ele>
        <time>2015-07-27T12:01:20Z</time>
      </trkpt>
      <trkpt lat="45.4578" lon="4.70823">
        <ele>388</ele>
        <time>2015-07-27T12:01:25Z</time>
      </trkpt>
      <trkpt lat="45.4577" lon="4.70783">
        <ele>388</ele>
        <time>2015-07-27T12:01:30Z</time>
      </trkpt>
      <trkpt lat="45.45758" lon="4.70743">
        <ele>387</ele>
        <time>2015-07-27T12:01:35Z</time>
      </trkpt>
      <trkpt lat="45.4574" lon="4.70704">
        <ele>386</ele>
        <time>2015-07-27T12:01:40Z</time>
      </trkpt>
      <trkpt lat="45.45715" lon="4.70675">
        <ele>386</ele>
        <time>2015-07-27T12:01:45Z</time>
      </trkpt>
      <trkpt lat="45.4569" lon="4.7066">
        <ele>388</ele>
        <time>2015-07-27T12:01:49Z</time>
      </trkpt>
      <trkpt lat="45.4566" lon="4.70652">
        <ele>389</ele>
        <time>2015-07-27T12:01:54Z</time>
      </trkpt>
      <trkpt lat="45.45632" lon="4.70657">
        <ele>391</ele>
        <time>2015-07-27T12:01:59Z</time>
      </trkpt>
      <trkpt lat="45.45607" lon="4.70669">
        <ele>389</ele>
        <time>2015-07-27T12:02:04Z</time>
      </trkpt>
      <trkpt lat="45.45587" lon="4.70686">
        <ele>390</ele>
        <time>2015-07-27T12:02:09Z</time>
      </trkpt>
      <trkpt lat="45.45568" lon="4.70705">
        <ele>391</ele>
        <time>2015-07-27T12:02:14Z</time>
      </trkpt>
      <trkpt lat="45.45548" lon="4.70721">
        <ele>391</ele>
        <time>2015-07-27T12:02:19Z</time>
      </trkpt>
      <trkpt lat="45.45527" lon="4.70731">
        <ele>391</ele>
        <time>2015-07-27T12:02:24Z</time>
      </trkpt>
      <trkpt lat="45.45507" lon="4.7073">
        <ele>392</ele>
        <time>2015-07-27T12:02:29Z</time>
      </trkpt>
      <trkpt lat="45.4549" lon="4.70722">
        <ele>394</ele>
        <time>2015-07-27T12:02:34Z</time>
      </trkpt>
      <trkpt lat="45.45473" lon="4.70715">
        <ele>395</ele>
        <time>2015-07-27T12:02:39Z</time>
      </trkpt>
      <trkpt lat="45.45454" lon="4.70705">
        <ele>396</ele>
        <time>2015-07-27T12:02:44Z</time>
      </trkpt>
      <trkpt lat="45.4544" lon="4.70699">
        <ele>396</ele>
        <time>2015-07-27T12:02:48Z</time>
      </trkpt>
      <trkpt lat="45.45424" lon="4.70694">
        <ele>397</ele>
        <time>2015-07-27T12:02:53Z</time>
      </trkpt>
      <trkpt lat="45.45406" lon="4.70696">
        <ele>399</ele>
        <time>2015-07-27T12:02:58Z</time>
      </trkpt>
      <trkpt lat="45.45389" lon="4.70704">
        <ele>399</ele>
        <time>2015-07-27T12:03:03Z</time>
      </trkpt>
      <trkpt lat="45.45374" lon="4.7072">
        <ele>400</ele>
        <time>2015-07-27T12:03:08Z</time>
      </trkpt>
      <trkpt lat="45.4536" lon="4.70737">
        <ele>400</ele>
        <time>2015-07-27T12:03:13Z</time>
      </trkpt>
      <trkpt lat="45.45344" lon="4.70759">
        <ele>399</ele>
        <time>2015-07-27T12:03:18Z</time>
      </trkpt>
      <trkpt lat="45.45326" lon="4.70777">
        <ele>401</ele>
        <time>2015-07-27T12:03:23Z</time>
      </trkpt>
      <trkpt lat="45.45294" lon="4.70794">
        <ele>402</ele>
        <time>2015-07-27T12:03:30Z</time>
      </trkpt>
      <trkpt lat="45.45281" lon="4.70801">
        <ele>402</ele>
        <time>2015-07-27T12:03:33Z</time>
      </trkpt>
      <trkpt lat="45.45266" lon="4.70809">
        <ele>402</ele>
        <time>2015-07-27T12:03:37Z</time>
      </trkpt>
      <trkpt lat="45.45244" lon="4.70822">
        <ele>405</ele>
        <time>2015-07-27T12:03:43Z</time>
      </trkpt>
      <trkpt lat="45.4523" lon="4.70829">
        <ele>406</ele>
        <time>2015-07-27T12:03:47Z</time>
      </trkpt>
      <trkpt lat="45.45212" lon="4.70837">
        <ele>403</ele>
        <time>2015-07-27T12:03:52Z</time>
      </trkpt>
      <trkpt lat="45.45192" lon="4.70845">
        <ele>405</ele>
        <time>2015-07-27T12:03:57Z</time>
      </trkpt>
      <trkpt lat="45.45173" lon="4.70856">
        <ele>405</ele>
        <time>2015-07-27T12:04:02Z</time>
      </trkpt>
      <trkpt lat="45.45156" lon="4.70863">
        <ele>407</ele>
        <time>2015-07-27T12:04:07Z</time>
      </trkpt>
      <trkpt lat="45.45137" lon="4.70868">
        <ele>406</ele>
        <time>2015-07-27T12:04:12Z</time>
      </trkpt>
      <trkpt lat="45.45118" lon="4.70864">
        <ele>407</ele>
        <time>2015-07-27T12:04:17Z</time>
      </trkpt>
      <trkpt lat="45.45099" lon="4.70855">
        <ele>408</ele>
        <time>2015-07-27T12:04:22Z</time>
      </trkpt>
      <trkpt lat="45.4508" lon="4.70844">
        <ele>411</ele>
        <time>2015-07-27T12:04:27Z</time>
      </trkpt>
      <trkpt lat="45.45059" lon="4.70838">
        <ele>410</ele>
        <time>2015-07-27T12:04:32Z</time>
      </trkpt>
      <trkpt lat="45.45038" lon="4.70836">
        <ele>410</ele>
        <time>2015-07-27T12:04:37Z</time>
      </trkpt>
      <trkpt lat="45.45017" lon="4.70837">
        <ele>410</ele>
        <time>2015-07-27T12:04:42Z</time>
      </trkpt>
      <trkpt lat="45.44998" lon="4.70838">
        <ele>411</ele>
        <time>2015-07-27T12:04:47Z</time>
      </trkpt>
      <trkpt lat="45.4498" lon="4.70834">
        <ele>409</ele>
        <time>2015-07-27T12:04:52Z</time>
      </trkpt>
      <trkpt lat="45.44963" lon="4.70822">
        <ele>413</ele>
        <time>2015-07-27T12:04:57Z</time>
      </trkpt>
      <trkpt lat="45.44948" lon="4.70806">
        <ele>413</ele>
        <time>2015-07-27T12:05:02Z</time>
      </trkpt>
      <trkpt lat="45.44936" lon="4.70787">
        <ele>414</ele>
        <time>2015-07-27T12:05:07Z</time>
      </trkpt>
      <trkpt lat="45.44928" lon="4.70771">
        <ele>415</ele>
        <time>2015-07-27T12:05:11Z</time>
      </trkpt>
      <trkpt lat="45.44918" lon="4.70754">
        <ele>416</ele>
        <time>2015-07-27T12:05:15Z</time>
      </trkpt>
      <trkpt lat="45.44907" lon="4.70733">
        <ele>418</ele>
        <time>2015-07-27T12:05:20Z</time>
      </trkpt>
      <trkpt lat="45.44896" lon="4.70715">
        <ele>419</ele>
        <time>2015-07-27T12:05:25Z</time>
      </trkpt>
      <trkpt lat="45.44881" lon="4.70701">
        <ele>419</ele>
        <time>2015-07-27T12:05:30Z</time>
      </trkpt>
      <trkpt lat="45.44866" lon="4.70687">
        <ele>419</ele>
        <time>2015-07-27T12:05:35Z</time>
      </trkpt>
      <trkpt lat="45.44849" lon="4.70674">
        <ele>419</ele>
        <time>2015-07-27T12:05:40Z</time>
      </trkpt>
      <trkpt lat="45.44834" lon="4.70663">
        <ele>420</ele>
        <time>2015-07-27T12:05:45Z</time>
      </trkpt>
      <trkpt lat="45.44819" lon="4.7065">
        <ele>420</ele>
        <time>2015-07-27T12:05:50Z</time>
      </trkpt>
      <trkpt lat="45.44802" lon="4.70638">
        <ele>420</ele>
        <time>2015-07-27T12:05:55Z</time>
      </trkpt>
      <trkpt lat="45.44787" lon="4.70624">
        <ele>420</ele>
        <time>2015-07-27T12:06:00Z</time>
      </trkpt>
      <trkpt lat="45.44774" lon="4.70606">
        <ele>421</ele>
        <time>2015-07-27T12:06:05Z</time>
      </trkpt>
      <trkpt lat="45.44763" lon="4.70587">
        <ele>421</ele>
        <time>2015-07-27T12:06:10Z</time>
      </trkpt>
      <trkpt lat="45.44753" lon="4.70566">
        <ele>425</ele>
        <time>2015-07-27T12:06:15Z</time>
      </trkpt>
      <trkpt lat="45.4474" lon="4.70546">
        <ele>423</ele>
        <time>2015-07-27T12:06:20Z</time>
      </trkpt>
      <trkpt lat="45.44725" lon="4.70523">
        <ele>424</ele>
        <time>2015-07-27T12:06:26Z</time>
      </trkpt>
      <trkpt lat="45.44714" lon="4.70509">
        <ele>424</ele>
        <time>2015-07-27T12:06:30Z</time>
      </trkpt>
      <trkpt lat="45.44701" lon="4.70491">
        <ele>428</ele>
        <time>2015-07-27T12:06:35Z</time>
      </trkpt>
      <trkpt lat="45.44687" lon="4.70473">
        <ele>428</ele>
        <time>2015-07-27T12:06:40Z</time>
      </trkpt>
      <trkpt lat="45.44675" lon="4.70456">
        <ele>429</ele>
        <time>2015-07-27T12:06:45Z</time>
      </trkpt>
      <trkpt lat="45.4466" lon="4.70431">
        <ele>424</ele>
        <time>2015-07-27T12:06:51Z</time>
      </trkpt>
      <trkpt lat="45.44642" lon="4.70398">
        <ele>426</ele>
        <time>2015-07-27T12:06:59Z</time>
      </trkpt>
      <trkpt lat="45.4464" lon="4.70394">
        <ele>426</ele>
        <time>2015-07-27T12:07:00Z</time>
      </trkpt>
      <trkpt lat="45.44633" lon="4.70373">
        <ele>427</ele>
        <time>2015-07-27T12:07:05Z</time>
      </trkpt>
      <trkpt lat="45.44627" lon="4.70349">
        <ele>427</ele>
        <time>2015-07-27T12:07:10Z</time>
      </trkpt>
      <trkpt lat="45.44623" lon="4.70324">
        <ele>432</ele>
        <time>2015-07-27T12:07:15Z</time>
      </trkpt>
      <trkpt lat="45.44619" lon="4.703">
        <ele>432</ele>
        <time>2015-07-27T12:07:20Z</time>
      </trkpt>
      <trkpt lat="45.44612" lon="4.70277">
        <ele>432</ele>
        <time>2015-07-27T12:07:25Z</time>
      </trkpt>
      <trkpt lat="45.44605" lon="4.70253">
        <ele>432</ele>
        <time>2015-07-27T12:07:30Z</time>
      </trkpt>
      <trkpt lat="45.44597" lon="4.70231">
        <ele>435</ele>
        <time>2015-07-27T12:07:35Z</time>
      </trkpt>
      <trkpt lat="45.44591" lon="4.70208">
        <ele>437</ele>
        <time>2015-07-27T12:07:40Z</time>
      </trkpt>
      <trkpt lat="45.44583" lon="4.70185">
        <ele>429</ele>
        <time>2015-07-27T12:07:45Z</time>
      </trkpt>
      <trkpt lat="45.44575" lon="4.70159">
        <ele>432</ele>
        <time>2015-07-27T12:07:50Z</time>
      </trkpt>
      <trkpt lat="45.44571" lon="4.70134">
        <ele>432</ele>
        <time>2015-07-27T12:07:55Z</time>
      </trkpt>
      <trkpt lat="45.44569" lon="4.7011">
        <ele>433</ele>
        <time>2015-07-27T12:08:00Z</time>
      </trkpt>
      <trkpt lat="45.44566" lon="4.70086">
        <ele>434</ele>
        <time>2015-07-27T12:08:05Z</time>
      </trkpt>
      <trkpt lat="45.44559" lon="4.70064">
        <ele>437</ele>
        <time>2015-07-27T12:08:10Z</time>
      </trkpt>
      <trkpt lat="45.44551" lon="4.70042">
        <ele>438</ele>
        <time>2015-07-27T12:08:15Z</time>
      </trkpt>
      <trkpt lat="45.44541" lon="4.7002">
        <ele>438</ele>
        <time>2015-07-27T12:08:20Z</time>
      </trkpt>
      <trkpt lat="45.44532" lon="4.69998">
        <ele>442</ele>
        <time>2015-07-27T12:08:25Z</time>
      </trkpt>
      <trkpt lat="45.44524" lon="4.69975">
        <ele>442</ele>
        <time>2015-07-27T12:08:30Z</time>
      </trkpt>
      <trkpt lat="45.44516" lon="4.69953">
        <ele>443</ele>
        <time>2015-07-27T12:08:35Z</time>
      </trkpt>
      <trkpt lat="45.44506" lon="4.69933">
        <ele>443</ele>
        <time>2015-07-27T12:08:40Z</time>
      </trkpt>
      <trkpt lat="45.44498" lon="4.6991">
        <ele>442</ele>
        <time>2015-07-27T12:08:45Z</time>
      </trkpt>
      <trkpt lat="45.44489" lon="4.69889">
        <ele>442</ele>
        <time>2015-07-27T12:08:50Z</time>
      </trkpt>
      <trkpt lat="45.44478" lon="4.69867">
        <ele>443</ele>
        <time>2015-07-27T12:08:55Z</time>
      </trkpt>
      <trkpt lat="45.4447" lon="4.69845">
        <ele>444</ele>
        <time>2015-07-27T12:09:00Z</time>
      </trkpt>
      <trkpt lat="45.44461" lon="4.69818">
        <ele>449</ele>
        <time>2015-07-27T12:09:06Z</time>
      </trkpt>
      <trkpt lat="45.44457" lon="4.69804">
        <ele>449</ele>
        <time>2015-07-27T12:09:09Z</time>
      </trkpt>
      <trkpt lat="45.44448" lon="4.69782">
        <ele>450</ele>
        <time>2015-07-27T12:09:14Z</time>
      </trkpt>
      <trkpt lat="45.44433" lon="4.69753">
        <ele>450</ele>
        <time>2015-07-27T12:09:22Z</time>
      </trkpt>
      <trkpt lat="45.4443" lon="4.69745">
        <ele>454</ele>
        <time>2015-07-27T12:09:24Z</time>
      </trkpt>
      <trkpt lat="45.44421" lon="4.69724">
        <ele>456</ele>
        <time>2015-07-27T12:09:29Z</time>
      </trkpt>
      <trkpt lat="45.44406" lon="4.69711">
        <ele>453</ele>
        <time>2015-07-27T12:09:34Z</time>
      </trkpt>
      <trkpt lat="45.44389" lon="4.69704">
        <ele>454</ele>
        <time>2015-07-27T12:09:39Z</time>
      </trkpt>
      <trkpt lat="45.44372" lon="4.69696">
        <ele>454</ele>
        <time>2015-07-27T12:09:44Z</time>
      </trkpt>
      <trkpt lat="45.44355" lon="4.69689">
        <ele>454</ele>
        <time>2015-07-27T12:09:49Z</time>
      </trkpt>
      <trkpt lat="45.44338" lon="4.69683">
        <ele>455</ele>
        <time>2015-07-27T12:09:54Z</time>
      </trkpt>
      <trkpt lat="45.44322" lon="4.69677">
        <ele>454</ele>
        <time>2015-07-27T12:09:59Z</time>
      </trkpt>
      <trkpt lat="45.44304" lon="4.69669">
        <ele>453</ele>
        <time>2015-07-27T12:10:04Z</time>
      </trkpt>
      <trkpt lat="45.44287" lon="4.69663">
        <ele>461</ele>
        <time>2015-07-27T12:10:09Z</time>
      </trkpt>
      <trkpt lat="45.44273" lon="4.6966">
        <ele>460</ele>
        <time>2015-07-27T12:10:13Z</time>
      </trkpt>
      <trkpt lat="45.44256" lon="4.69656">
        <ele>459</ele>
        <time>2015-07-27T12:10:18Z</time>
      </trkpt>
      <trkpt lat="45.44238" lon="4.69652">
        <ele>460</ele>
        <time>2015-07-27T12:10:23Z</time>
      </trkpt>
      <trkpt lat="45.44221" lon="4.69646">
        <ele>461</ele>
        <time>2015-07-27T12:10:28Z</time>
      </trkpt>
      <trkpt lat="45.44203" lon="4.69639">
        <ele>461</ele>
        <time>2015-07-27T12:10:33Z</time>
      </trkpt>
      <trkpt lat="45.44186" lon="4.69628">
        <ele>462</ele>
        <time>2015-07-27T12:10:38Z</time>
      </trkpt>
      <trkpt lat="45.44168" lon="4.69616">
        <ele>463</ele>
        <time>2015-07-27T12:10:43Z</time>
      </trkpt>
      <trkpt lat="45.4415" lon="4.69604">
        <ele>462</ele>
        <time>2015-07-27T12:10:48Z</time>
      </trkpt>
      <trkpt lat="45.44133" lon="4.69595">
        <ele>461</ele>
        <time>2015-07-27T12:10:53Z</time>
      </trkpt>
      <trkpt lat="45.44116" lon="4.69585">
        <ele>461</ele>
        <time>2015-07-27T12:10:58Z</time>
      </trkpt>
      <trkpt lat="45.44098" lon="4.69578">
        <ele>467</ele>
        <time>2015-07-27T12:11:03Z</time>
      </trkpt>
      <trkpt lat="45.44081" lon="4.69573">
        <ele>464</ele>
        <time>2015-07-27T12:11:08Z</time>
      </trkpt>
      <trkpt lat="45.44064" lon="4.69568">
        <ele>466</ele>
        <time>2015-07-27T12:11:13Z</time>
      </trkpt>
      <trkpt lat="45.44046" lon="4.69565">
        <ele>466</ele>
        <time>2015-07-27T12:11:18Z</time>
      </trkpt>
      <trkpt lat="45.44028" lon="4.69564">
        <ele>466</ele>
        <time>2015-07-27T12:11:23Z</time>
      </trkpt>
      <trkpt lat="45.44011" lon="4.69561">
        <ele>466</ele>
        <time>2015-07-27T12:11:28Z</time>
      </trkpt>
      <trkpt lat="45.43993" lon="4.69556">
        <ele>466</ele>
        <time>2015-07-27T12:11:33Z</time>
      </trkpt>
      <trkpt lat="45.43975" lon="4.69551">
        <ele>467</ele>
        <time>2015-07-27T12:11:38Z</time>
      </trkpt>
      <trkpt lat="45.43958" lon="4.69546">
        <ele>467</ele>
        <time>2015-07-27T12:11:43Z</time>
      </trkpt>
      <trkpt lat="45.43941" lon="4.69542">
        <ele>467</ele>
        <time>2015-07-27T12:11:48Z</time>
      </trkpt>
      <trkpt lat="45.43925" lon="4.69533">
        <ele>468</ele>
        <time>2015-07-27T12:11:53Z</time>
      </trkpt>
      <trkpt lat="45.4391" lon="4.69519">
        <ele>470</ele>
        <time>2015-07-27T12:11:58Z</time>
      </trkpt>
      <trkpt lat="45.43897" lon="4.69504">
        <ele>470</ele>
        <time>2015-07-27T12:12:03Z</time>
      </trkpt>
      <trkpt lat="45.43885" lon="4.69493">
        <ele>472</ele>
        <time>2015-07-27T12:12:07Z</time>
      </trkpt>
      <trkpt lat="45.43869" lon="4.69482">
        <ele>472</ele>
        <time>2015-07-27T12:12:12Z</time>
      </trkpt>
      <trkpt lat="45.43854" lon="4.69471">
        <ele>472</ele>
        <time>2015-07-27T12:12:17Z</time>
      </trkpt>
      <trkpt lat="45.43837" lon="4.69466">
        <ele>472</ele>
        <time>2015-07-27T12:12:22Z</time>
      </trkpt>
      <trkpt lat="45.43819" lon="4.6946">
        <ele>472</ele>
        <time>2015-07-27T12:12:27Z</time>
      </trkpt>
      <trkpt lat="45.43801" lon="4.69455">
        <ele>472</ele>
        <time>2015-07-27T12:12:32Z</time>
      </trkpt>
      <trkpt lat="45.43782" lon="4.69448">
        <ele>472</ele>
        <time>2015-07-27T12:12:37Z</time>
      </trkpt>
      <trkpt lat="45.43765" lon="4.69434">
        <ele>473</ele>
        <time>2015-07-27T12:12:42Z</time>
      </trkpt>
      <trkpt lat="45.4375" lon="4.6941">
        <ele>473</ele>
        <time>2015-07-27T12:12:47Z</time>
      </trkpt>
      <trkpt lat="45.4374" lon="4.69381">
        <ele>473</ele>
        <time>2015-07-27T12:12:52Z</time>
      </trkpt>
      <trkpt lat="45.4373" lon="4.69345">
        <ele>473</ele>
        <time>2015-07-27T12:12:57Z</time>
      </trkpt>
      <trkpt lat="45.43718" lon="4.69303">
        <ele>472</ele>
        <time>2015-07-27T12:13:02Z</time>
      </trkpt>
      <trkpt lat="45.43709" lon="4.69264">
        <ele>472</ele>
        <time>2015-07-27T12:13:07Z</time>
      </trkpt>
      <trkpt lat="45.43696" lon="4.69226">
        <ele>472</ele>
        <time>2015-07-27T12:13:12Z</time>
      </trkpt>
      <trkpt lat="45.43684" lon="4.69187">
        <ele>472</ele>
        <time>2015-07-27T12:13:17Z</time>
      </trkpt>
      <trkpt lat="45.43673" lon="4.69151">
        <ele>472</ele>
        <time>2015-07-27T12:13:22Z</time>
      </trkpt>
      <trkpt lat="45.43666" lon="4.69122">
        <ele>466</ele>
        <time>2015-07-27T12:13:26Z</time>
      </trkpt>
      <trkpt lat="45.43663" lon="4.69086">
        <ele>470</ele>
        <time>2015-07-27T12:13:31Z</time>
      </trkpt>
      <trkpt lat="45.43661" lon="4.6905">
        <ele>467</ele>
        <time>2015-07-27T12:13:36Z</time>
      </trkpt>
      <trkpt lat="45.43659" lon="4.69018">
        <ele>468</ele>
        <time>2015-07-27T12:13:40Z</time>
      </trkpt>
      <trkpt lat="45.43658" lon="4.68981">
        <ele>468</ele>
        <time>2015-07-27T12:13:45Z</time>
      </trkpt>
      <trkpt lat="45.43656" lon="4.68943">
        <ele>469</ele>
        <time>2015-07-27T12:13:50Z</time>
      </trkpt>
      <trkpt lat="45.43655" lon="4.68907">
        <ele>471</ele>
        <time>2015-07-27T12:13:55Z</time>
      </trkpt>
      <trkpt lat="45.43652" lon="4.68873">
        <ele>470</ele>
        <time>2015-07-27T12:14:00Z</time>
      </trkpt>
      <trkpt lat="45.43648" lon="4.68839">
        <ele>471</ele>
        <time>2015-07-27T12:14:05Z</time>
      </trkpt>
      <trkpt lat="45.43643" lon="4.68805">
        <ele>471</ele>
        <time>2015-07-27T12:14:10Z</time>
      </trkpt>
      <trkpt lat="45.43615" lon="4.68751">
        <ele>469</ele>
        <time>2015-07-27T12:14:18Z</time>
      </trkpt>
      <trkpt lat="45.43605" lon="4.68742">
        <ele>471</ele>
        <time>2015-07-27T12:14:20Z</time>
      </trkpt>
      <trkpt lat="45.43579" lon="4.68723">
        <ele>466</ele>
        <time>2015-07-27T12:14:25Z</time>
      </trkpt>
      <trkpt lat="45.43558" lon="4.68695">
        <ele>466</ele>
        <time>2015-07-27T12:14:30Z</time>
      </trkpt>
      <trkpt lat="45.43527" lon="4.6862">
        <ele>466</ele>
        <time>2015-07-27T12:14:39Z</time>
      </trkpt>
      <trkpt lat="45.43514" lon="4.68583">
        <ele>466</ele>
        <time>2015-07-27T12:14:43Z</time>
      </trkpt>
      <trkpt lat="45.43501" lon="4.68547">
        <ele>468</ele>
        <time>2015-07-27T12:14:47Z</time>
      </trkpt>
      <trkpt lat="45.43491" lon="4.68518">
        <ele>462</ele>
        <time>2015-07-27T12:14:50Z</time>
      </trkpt>
      <trkpt lat="45.43462" lon="4.68457">
        <ele>463</ele>
        <time>2015-07-27T12:14:57Z</time>
      </trkpt>
      <trkpt lat="45.43447" lon="4.68432">
        <ele>462</ele>
        <time>2015-07-27T12:15:00Z</time>
      </trkpt>
      <trkpt lat="45.43423" lon="4.6839">
        <ele>463</ele>
        <time>2015-07-27T12:15:05Z</time>
      </trkpt>
      <trkpt lat="45.43397" lon="4.68354">
        <ele>458</ele>
        <time>2015-07-27T12:15:10Z</time>
      </trkpt>
      <trkpt lat="45.4335" lon="4.683">
        <ele>459</ele>
        <time>2015-07-27T12:15:18Z</time>
      </trkpt>
      <trkpt lat="45.43324" lon="4.68264">
        <ele>454</ele>
        <time>2015-07-27T12:15:23Z</time>
      </trkpt>
      <trkpt lat="45.43313" lon="4.6825">
        <ele>456</ele>
        <time>2015-07-27T12:15:25Z</time>
      </trkpt>
      <trkpt lat="45.4329" lon="4.6821">
        <ele>454</ele>
        <time>2015-07-27T12:15:30Z</time>
      </trkpt>
      <trkpt lat="45.43275" lon="4.68164">
        <ele>454</ele>
        <time>2015-07-27T12:15:35Z</time>
      </trkpt>
      <trkpt lat="45.4325" lon="4.68088">
        <ele>452</ele>
        <time>2015-07-27T12:15:43Z</time>
      </trkpt>
      <trkpt lat="45.43248" lon="4.68078">
        <ele>450</ele>
        <time>2015-07-27T12:15:44Z</time>
      </trkpt>
      <trkpt lat="45.43243" lon="4.68003">
        <ele>452</ele>
        <time>2015-07-27T12:15:51Z</time>
      </trkpt>
      <trkpt lat="45.43243" lon="4.67971">
        <ele>449</ele>
        <time>2015-07-27T12:15:54Z</time>
      </trkpt>
      <trkpt lat="45.43243" lon="4.67919">
        <ele>452</ele>
        <time>2015-07-27T12:15:59Z</time>
      </trkpt>
      <trkpt lat="45.43244" lon="4.67865">
        <ele>446</ele>
        <time>2015-07-27T12:16:04Z</time>
      </trkpt>
      <trkpt lat="45.43256" lon="4.67827">
        <ele>449</ele>
        <time>2015-07-27T12:16:08Z</time>
      </trkpt>
      <trkpt lat="45.43293" lon="4.67779">
        <ele>450</ele>
        <time>2015-07-27T12:16:15Z</time>
      </trkpt>
      <trkpt lat="45.43308" lon="4.67752">
        <ele>451</ele>
        <time>2015-07-27T12:16:18Z</time>
      </trkpt>
      <trkpt lat="45.43321" lon="4.677">
        <ele>448</ele>
        <time>2015-07-27T12:16:23Z</time>
      </trkpt>
      <trkpt lat="45.43321" lon="4.67647">
        <ele>447</ele>
        <time>2015-07-27T12:16:28Z</time>
      </trkpt>
      <trkpt lat="45.43306" lon="4.67548">
        <ele>443</ele>
        <time>2015-07-27T12:16:37Z</time>
      </trkpt>
      <trkpt lat="45.43304" lon="4.67538">
        <ele>443</ele>
        <time>2015-07-27T12:16:38Z</time>
      </trkpt>
      <trkpt lat="45.4329" lon="4.67488">
        <ele>441</ele>
        <time>2015-07-27T12:16:43Z</time>
      </trkpt>
      <trkpt lat="45.43272" lon="4.6744">
        <ele>441</ele>
        <time>2015-07-27T12:16:48Z</time>
      </trkpt>
      <trkpt lat="45.43264" lon="4.67388">
        <ele>440</ele>
        <time>2015-07-27T12:16:53Z</time>
      </trkpt>
      <trkpt lat="45.43275" lon="4.67336">
        <ele>439</ele>
        <time>2015-07-27T12:16:58Z</time>
      </trkpt>
      <trkpt lat="45.43272" lon="4.67286">
        <ele>439</ele>
        <time>2015-07-27T12:17:03Z</time>
      </trkpt>
      <trkpt lat="45.43255" lon="4.67236">
        <ele>438</ele>
        <time>2015-07-27T12:17:08Z</time>
      </trkpt>
      <trkpt lat="45.43231" lon="4.67194">
        <ele>434</ele>
        <time>2015-07-27T12:17:13Z</time>
      </trkpt>
      <trkpt lat="45.43205" lon="4.67145">
        <ele>434</ele>
        <time>2015-07-27T12:17:19Z</time>
      </trkpt>
      <trkpt lat="45.43192" lon="4.67111">
        <ele>434</ele>
        <time>2015-07-27T12:17:23Z</time>
      </trkpt>
      <trkpt lat="45.43158" lon="4.67084">
        <ele>432</ele>
        <time>2015-07-27T12:17:28Z</time>
      </trkpt>
      <trkpt lat="45.43122" lon="4.67106">
        <ele>433</ele>
        <time>2015-07-27T12:17:33Z</time>
      </trkpt>
      <trkpt lat="45.43115" lon="4.67149">
        <ele>432</ele>
        <time>2015-07-27T12:17:37Z</time>
      </trkpt>
      <trkpt lat="45.431" lon="4.67202">
        <ele>429</ele>
        <time>2015-07-27T12:17:42Z</time>
      </trkpt>
      <trkpt lat="45.43079" lon="4.67252">
        <ele>428</ele>
        <time>2015-07-27T12:17:47Z</time>
      </trkpt>
      <trkpt lat="45.43061" lon="4.67305">
        <ele>430</ele>
        <time>2015-07-27T12:17:52Z</time>
      </trkpt>
      <trkpt lat="45.43041" lon="4.67356">
        <ele>427</ele>
        <time>2015-07-27T12:17:57Z</time>
      </trkpt>
      <trkpt lat="45.43016" lon="4.67397">
        <ele>427</ele>
        <time>2015-07-27T12:18:02Z</time>
      </trkpt>
      <trkpt lat="45.42985" lon="4.67423">
        <ele>428</ele>
        <time>2015-07-27T12:18:07Z</time>
      </trkpt>
      <trkpt lat="45.42952" lon="4.67438">
        <ele>428</ele>
        <time>2015-07-27T12:18:12Z</time>
      </trkpt>
      <trkpt lat="45.42919" lon="4.67449">
        <ele>428</ele>
        <time>2015-07-27T12:18:17Z</time>
      </trkpt>
      <trkpt lat="45.42886" lon="4.67459">
        <ele>429</ele>
        <time>2015-07-27T12:18:22Z</time>
      </trkpt>
      <trkpt lat="45.42855" lon="4.67467">
        <ele>429</ele>
        <time>2015-07-27T12:18:26Z</time>
      </trkpt>
      <trkpt lat="45.42814" lon="4.67478">
        <ele>429</ele>
        <time>2015-07-27T12:18:31Z</time>
      </trkpt>
      <trkpt lat="45.42773" lon="4.67495">
        <ele>428</ele>
        <time>2015-07-27T12:18:36Z</time>
      </trkpt>
      <trkpt lat="45.42732" lon="4.67518">
        <ele>427</ele>
        <time>2015-07-27T12:18:41Z</time>
      </trkpt>
      <trkpt lat="45.42676" lon="4.67555">
        <ele>428</ele>
        <time>2015-07-27T12:18:49Z</time>
      </trkpt>
      <trkpt lat="45.42665" lon="4.67563">
        <ele>430</ele>
        <time>2015-07-27T12:18:51Z</time>
      </trkpt>
      <trkpt lat="45.42639" lon="4.67581">
        <ele>431</ele>
        <time>2015-07-27T12:18:56Z</time>
      </trkpt>
      <trkpt lat="45.42613" lon="4.67597">
        <ele>430</ele>
        <time>2015-07-27T12:19:01Z</time>
      </trkpt>
      <trkpt lat="45.42589" lon="4.6761">
        <ele>430</ele>
        <time>2015-07-27T12:19:06Z</time>
      </trkpt>
      <trkpt lat="45.42565" lon="4.67615">
        <ele>431</ele>
        <time>2015-07-27T12:19:11Z</time>
      </trkpt>
      <trkpt lat="45.42541" lon="4.67604">
        <ele>431</ele>
        <time>2015-07-27T12:19:16Z</time>
      </trkpt>
      <trkpt lat="45.42525" lon="4.67578">
        <ele>434</ele>
        <time>2015-07-27T12:19:21Z</time>
      </trkpt>
      <trkpt lat="45.42516" lon="4.67549">
        <ele>435</ele>
        <time>2015-07-27T12:19:26Z</time>
      </trkpt>
      <trkpt lat="45.42508" lon="4.6752">
        <ele>435</ele>
        <time>2015-07-27T12:19:31Z</time>
      </trkpt>
      <trkpt lat="45.42503" lon="4.6749">
        <ele>437</ele>
        <time>2015-07-27T12:19:36Z</time>
      </trkpt>
      <trkpt lat="45.42496" lon="4.67461">
        <ele>436</ele>
        <time>2015-07-27T12:19:41Z</time>
      </trkpt>
      <trkpt lat="45.42491" lon="4.67431">
        <ele>437</ele>
        <time>2015-07-27T12:19:46Z</time>
      </trkpt>
      <trkpt lat="45.42485" lon="4.67402">
        <ele>439</ele>
        <time>2015-07-27T12:19:51Z</time>
      </trkpt>
      <trkpt lat="45.42474" lon="4.67362">
        <ele>440</ele>
        <time>2015-07-27T12:19:58Z</time>
      </trkpt>
      <trkpt lat="45.42462" lon="4.67337">
        <ele>440</ele>
        <time>2015-07-27T12:20:03Z</time>
      </trkpt>
      <trkpt lat="45.42453" lon="4.67326">
        <ele>442</ele>
        <time>2015-07-27T12:20:06Z</time>
      </trkpt>
      <trkpt lat="45.42434" lon="4.67314">
        <ele>442</ele>
        <time>2015-07-27T12:20:11Z</time>
      </trkpt>
      <trkpt lat="45.42413" lon="4.67311">
        <ele>441</ele>
        <time>2015-07-27T12:20:16Z</time>
      </trkpt>
      <trkpt lat="45.4239" lon="4.67313">
        <ele>442</ele>
        <time>2015-07-27T12:20:21Z</time>
      </trkpt>
      <trkpt lat="45.42358" lon="4.67324">
        <ele>442</ele>
        <time>2015-07-27T12:20:28Z</time>
      </trkpt>
      <trkpt lat="45.42344" lon="4.67329">
        <ele>442</ele>
        <time>2015-07-27T12:20:31Z</time>
      </trkpt>
      <trkpt lat="45.42324" lon="4.67334">
        <ele>441</ele>
        <time>2015-07-27T12:20:35Z</time>
      </trkpt>
      <trkpt lat="45.42297" lon="4.67339">
        <ele>442</ele>
        <time>2015-07-27T12:20:40Z</time>
      </trkpt>
      <trkpt lat="45.42271" lon="4.67347">
        <ele>443</ele>
        <time>2015-07-27T12:20:45Z</time>
      </trkpt>
      <trkpt lat="45.42246" lon="4.67354">
        <ele>445</ele>
        <time>2015-07-27T12:20:50Z</time>
      </trkpt>
      <trkpt lat="45.42221" lon="4.67361">
        <ele>445</ele>
        <time>2015-07-27T12:20:55Z</time>
      </trkpt>
      <trkpt lat="45.42193" lon="4.67369">
        <ele>445</ele>
        <time>2015-07-27T12:21:00Z</time>
      </trkpt>
      <trkpt lat="45.4217" lon="4.67377">
        <ele>445</ele>
        <time>2015-07-27T12:21:05Z</time>
      </trkpt>
      <trkpt lat="45.42147" lon="4.67385">
        <ele>447</ele>
        <time>2015-07-27T12:21:10Z</time>
      </trkpt>
      <trkpt lat="45.42107" lon="4.67396">
        <ele>447</ele>
        <time>2015-07-27T12:21:18Z</time>
      </trkpt>
      <trkpt lat="45.42097" lon="4.67399">
        <ele>447</ele>
        <time>2015-07-27T12:21:20Z</time>
      </trkpt>
      <trkpt lat="45.42077" lon="4.67412">
        <ele>448</ele>
        <time>2015-07-27T12:21:25Z</time>
      </trkpt>
      <trkpt lat="45.42056" lon="4.67421">
        <ele>449</ele>
        <time>2015-07-27T12:21:30Z</time>
      </trkpt>
      <trkpt lat="45.42038" lon="4.6743">
        <ele>450</ele>
        <time>2015-07-27T12:21:35Z</time>
      </trkpt>
      <trkpt lat="45.42019" lon="4.67442">
        <ele>450</ele>
        <time>2015-07-27T12:21:40Z</time>
      </trkpt>
      <trkpt lat="45.41997" lon="4.67455">
        <ele>454</ele>
        <time>2015-07-27T12:21:46Z</time>
      </trkpt>
      <trkpt lat="45.41981" lon="4.67463">
        <ele>454</ele>
        <time>2015-07-27T12:21:50Z</time>
      </trkpt>
      <trkpt lat="45.41962" lon="4.67474">
        <ele>455</ele>
        <time>2015-07-27T12:21:55Z</time>
      </trkpt>
      <trkpt lat="45.41942" lon="4.67486">
        <ele>455</ele>
        <time>2015-07-27T12:22:00Z</time>
      </trkpt>
      <trkpt lat="45.41923" lon="4.67499">
        <ele>456</ele>
        <time>2015-07-27T12:22:05Z</time>
      </trkpt>
      <trkpt lat="45.41902" lon="4.67507">
        <ele>457</ele>
        <time>2015-07-27T12:22:10Z</time>
      </trkpt>
      <trkpt lat="45.41878" lon="4.67521">
        <ele>458</ele>
        <time>2015-07-27T12:22:16Z</time>
      </trkpt>
      <trkpt lat="45.41854" lon="4.67536">
        <ele>458</ele>
        <time>2015-07-27T12:22:22Z</time>
      </trkpt>
      <trkpt lat="45.41831" lon="4.67551">
        <ele>462</ele>
        <time>2015-07-27T12:22:28Z</time>
      </trkpt>
      <trkpt lat="45.41824" lon="4.67554">
        <ele>462</ele>
        <time>2015-07-27T12:22:30Z</time>
      </trkpt>
      <trkpt lat="45.41793" lon="4.67573">
        <ele>462</ele>
        <time>2015-07-27T12:22:38Z</time>
      </trkpt>
      <trkpt lat="45.41785" lon="4.67578">
        <ele>462</ele>
        <time>2015-07-27T12:22:40Z</time>
      </trkpt>
      <trkpt lat="45.41766" lon="4.67588">
        <ele>460</ele>
        <time>2015-07-27T12:22:45Z</time>
      </trkpt>
      <trkpt lat="45.41741" lon="4.67589">
        <ele>460</ele>
        <time>2015-07-27T12:22:50Z</time>
      </trkpt>
      <trkpt lat="45.41715" lon="4.67586">
        <ele>457</ele>
        <time>2015-07-27T12:22:55Z</time>
      </trkpt>
      <trkpt lat="45.41688" lon="4.67585">
        <ele>455</ele>
        <time>2015-07-27T12:23:00Z</time>
      </trkpt>
      <trkpt lat="45.41672" lon="4.67557">
        <ele>459</ele>
        <time>2015-07-27T12:23:05Z</time>
      </trkpt>
      <trkpt lat="45.41658" lon="4.67505">
        <ele>454</ele>
        <time>2015-07-27T12:23:14Z</time>
      </trkpt>
      <trkpt lat="45.41655" lon="4.67494">
        <ele>455</ele>
        <time>2015-07-27T12:23:16Z</time>
      </trkpt>
      <trkpt lat="45.41646" lon="4.6747">
        <ele>452</ele>
        <time>2015-07-27T12:23:21Z</time>
      </trkpt>
      <trkpt lat="45.4164" lon="4.67447">
        <ele>452</ele>
        <time>2015-07-27T12:23:26Z</time>
      </trkpt>
      <trkpt lat="45.41635" lon="4.67425">
        <ele>452</ele>
        <time>2015-07-27T12:23:31Z</time>
      </trkpt>
      <trkpt lat="45.41634" lon="4.674">
        <ele>455</ele>
        <time>2015-07-27T12:23:36Z</time>
      </trkpt>
      <trkpt lat="45.41633" lon="4.67377">
        <ele>456</ele>
        <time>2015-07-27T12:23:41Z</time>
      </trkpt>
      <trkpt lat="45.41631" lon="4.67356">
        <ele>457</ele>
        <time>2015-07-27T12:23:46Z</time>
      </trkpt>
      <trkpt lat="45.41631" lon="4.67335">
        <ele>458</ele>
        <time>2015-07-27T12:23:51Z</time>
      </trkpt>
      <trkpt lat="45.41631" lon="4.67315">
        <ele>461</ele>
        <time>2015-07-27T12:23:56Z</time>
      </trkpt>
      <trkpt lat="45.41629" lon="4.67293">
        <ele>462</ele>
        <time>2015-07-27T12:24:01Z</time>
      </trkpt>
      <trkpt lat="45.41629" lon="4.67272">
        <ele>462</ele>
        <time>2015-07-27T12:24:06Z</time>
      </trkpt>
      <trkpt lat="45.41626" lon="4.67239">
        <ele>466</ele>
        <time>2015-07-27T12:24:14Z</time>
      </trkpt>
      <trkpt lat="45.41627" lon="4.67231">
        <ele>466</ele>
        <time>2015-07-27T12:24:16Z</time>
      </trkpt>
      <trkpt lat="45.41625" lon="4.67212">
        <ele>466</ele>
        <time>2015-07-27T12:24:21Z</time>
      </trkpt>
      <trkpt lat="45.41622" lon="4.67175">
        <ele>466</ele>
        <time>2015-07-27T12:24:30Z</time>
      </trkpt>
      <trkpt lat="45.41623" lon="4.67161">
        <ele>468</ele>
        <time>2015-07-27T12:24:33Z</time>
      </trkpt>
      <trkpt lat="45.41623" lon="4.6713">
        <ele>469</ele>
        <time>2015-07-27T12:24:40Z</time>
      </trkpt>
      <trkpt lat="45.41623" lon="4.67126">
        <ele>469</ele>
        <time>2015-07-27T12:24:41Z</time>
      </trkpt>
      <trkpt lat="45.41621" lon="4.67104">
        <ele>469</ele>
        <time>2015-07-27T12:24:46Z</time>
      </trkpt>
      <trkpt lat="45.41621" lon="4.67074">
        <ele>469</ele>
        <time>2015-07-27T12:24:53Z</time>
      </trkpt>
      <trkpt lat="45.41623" lon="4.6706">
        <ele>470</ele>
        <time>2015-07-27T12:24:56Z</time>
      </trkpt>
      <trkpt lat="45.41625" lon="4.67041">
        <ele>470</ele>
        <time>2015-07-27T12:25:01Z</time>
      </trkpt>
      <trkpt lat="45.41627" lon="4.67021">
        <ele>470</ele>
        <time>2015-07-27T12:25:06Z</time>
      </trkpt>
      <trkpt lat="45.41628" lon="4.67002">
        <ele>470</ele>
        <time>2015-07-27T12:25:11Z</time>
      </trkpt>
      <trkpt lat="45.4163" lon="4.66984">
        <ele>471</ele>
        <time>2015-07-27T12:25:16Z</time>
      </trkpt>
      <trkpt lat="45.41631" lon="4.66965">
        <ele>471</ele>
        <time>2015-07-27T12:25:21Z</time>
      </trkpt>
      <trkpt lat="45.41633" lon="4.66946">
        <ele>472</ele>
        <time>2015-07-27T12:25:26Z</time>
      </trkpt>
      <trkpt lat="45.41636" lon="4.66927">
        <ele>473</ele>
        <time>2015-07-27T12:25:31Z</time>
      </trkpt>
      <trkpt lat="45.41639" lon="4.66907">
        <ele>476</ele>
        <time>2015-07-27T12:25:36Z</time>
      </trkpt>
      <trkpt lat="45.41642" lon="4.6688">
        <ele>476</ele>
        <time>2015-07-27T12:25:43Z</time>
      </trkpt>
      <trkpt lat="45.41646" lon="4.6687">
        <ele>477</ele>
        <time>2015-07-27T12:25:46Z</time>
      </trkpt>
      <trkpt lat="45.41661" lon="4.66862">
        <ele>479</ele>
        <time>2015-07-27T12:25:53Z</time>
      </trkpt>
      <trkpt lat="45.41667" lon="4.6687">
        <ele>490</ele>
        <time>2015-07-27T12:25:56Z</time>
      </trkpt>
      <trkpt lat="45.4167" lon="4.66884">
        <ele>490</ele>
        <time>2015-07-27T12:26:00Z</time>
      </trkpt>
      <trkpt lat="45.41669" lon="4.66905">
        <ele>487</ele>
        <time>2015-07-27T12:26:05Z</time>
      </trkpt>
      <trkpt lat="45.41667" lon="4.66927">
        <ele>486</ele>
        <time>2015-07-27T12:26:10Z</time>
      </trkpt>
      <trkpt lat="45.41666" lon="4.66949">
        <ele>476</ele>
        <time>2015-07-27T12:26:15Z</time>
      </trkpt>
      <trkpt lat="45.41667" lon="4.66973">
        <ele>488</ele>
        <time>2015-07-27T12:26:20Z</time>
      </trkpt>
      <trkpt lat="45.41669" lon="4.66995">
        <ele>485</ele>
        <time>2015-07-27T12:26:25Z</time>
      </trkpt>
      <trkpt lat="45.41671" lon="4.67019">
        <ele>488</ele>
        <time>2015-07-27T12:26:30Z</time>
      </trkpt>
      <trkpt lat="45.41675" lon="4.67042">
        <ele>490</ele>
        <time>2015-07-27T12:26:35Z</time>
      </trkpt>
      <trkpt lat="45.41681" lon="4.67063">
        <ele>490</ele>
        <time>2015-07-27T12:26:40Z</time>
      </trkpt>
      <trkpt lat="45.41687" lon="4.67084">
        <ele>490</ele>
        <time>2015-07-27T12:26:45Z</time>
      </trkpt>
      <trkpt lat="45.41698" lon="4.67102">
        <ele>491</ele>
        <time>2015-07-27T12:26:50Z</time>
      </trkpt>
      <trkpt lat="45.41711" lon="4.67115">
        <ele>492</ele>
        <time>2015-07-27T12:26:55Z</time>
      </trkpt>
      <trkpt lat="45.41723" lon="4.67131">
        <ele>492</ele>
        <time>2015-07-27T12:27:00Z</time>
      </trkpt>
      <trkpt lat="45.41738" lon="4.67144">
        <ele>493</ele>
        <time>2015-07-27T12:27:05Z</time>
      </trkpt>
      <trkpt lat="45.41755" lon="4.67146">
        <ele>497</ele>
        <time>2015-07-27T12:27:10Z</time>
      </trkpt>
      <trkpt lat="45.41779" lon="4.67132">
        <ele>498</ele>
        <time>2015-07-27T12:27:18Z</time>
      </trkpt>
      <trkpt lat="45.41785" lon="4.67127">
        <ele>498</ele>
        <time>2015-07-27T12:27:20Z</time>
      </trkpt>
      <trkpt lat="45.41792" lon="4.67104">
        <ele>499</ele>
        <time>2015-07-27T12:27:26Z</time>
      </trkpt>
      <trkpt lat="45.41793" lon="4.6709">
        <ele>499</ele>
        <time>2015-07-27T12:27:29Z</time>
      </trkpt>
      <trkpt lat="45.41792" lon="4.67067">
        <ele>503</ele>
        <time>2015-07-27T12:27:34Z</time>
      </trkpt>
      <trkpt lat="45.41795" lon="4.6703">
        <ele>503</ele>
        <time>2015-07-27T12:27:43Z</time>
      </trkpt>
      <trkpt lat="45.41795" lon="4.67026">
        <ele>504</ele>
        <time>2015-07-27T12:27:44Z</time>
      </trkpt>
      <trkpt lat="45.41797" lon="4.67009">
        <ele>504</ele>
        <time>2015-07-27T12:27:49Z</time>
      </trkpt>
      <trkpt lat="45.41798" lon="4.66993">
        <ele>505</ele>
        <time>2015-07-27T12:27:54Z</time>
      </trkpt>
      <trkpt lat="45.41801" lon="4.66977">
        <ele>505</ele>
        <time>2015-07-27T12:27:59Z</time>
      </trkpt>
      <trkpt lat="45.41803" lon="4.66959">
        <ele>506</ele>
        <time>2015-07-27T12:28:04Z</time>
      </trkpt>
      <trkpt lat="45.41804" lon="4.66931">
        <ele>506</ele>
        <time>2015-07-27T12:28:11Z</time>
      </trkpt>
      <trkpt lat="45.41808" lon="4.66898">
        <ele>507</ele>
        <time>2015-07-27T12:28:18Z</time>
      </trkpt>
      <trkpt lat="45.41808" lon="4.66893">
        <ele>507</ele>
        <time>2015-07-27T12:28:19Z</time>
      </trkpt>
      <trkpt lat="45.41808" lon="4.66863">
        <ele>507</ele>
        <time>2015-07-27T12:28:25Z</time>
      </trkpt>
      <trkpt lat="45.41808" lon="4.66844">
        <ele>507</ele>
        <time>2015-07-27T12:28:29Z</time>
      </trkpt>
      <trkpt lat="45.41809" lon="4.66811">
        <ele>508</ele>
        <time>2015-07-27T12:28:36Z</time>
      </trkpt>
      <trkpt lat="45.4181" lon="4.66796">
        <ele>508</ele>
        <time>2015-07-27T12:28:39Z</time>
      </trkpt>
      <trkpt lat="45.41811" lon="4.66773">
        <ele>509</ele>
        <time>2015-07-27T12:28:44Z</time>
      </trkpt>
      <trkpt lat="45.41813" lon="4.66748">
        <ele>510</ele>
        <time>2015-07-27T12:28:49Z</time>
      </trkpt>
      <trkpt lat="45.41817" lon="4.66702">
        <ele>509</ele>
        <time>2015-07-27T12:28:58Z</time>
      </trkpt>
      <trkpt lat="45.41817" lon="4.66698">
        <ele>509</ele>
        <time>2015-07-27T12:28:59Z</time>
      </trkpt>
      <trkpt lat="45.41822" lon="4.66675">
        <ele>510</ele>
        <time>2015-07-27T12:29:04Z</time>
      </trkpt>
      <trkpt lat="45.41829" lon="4.66653">
        <ele>510</ele>
        <time>2015-07-27T12:29:09Z</time>
      </trkpt>
      <trkpt lat="45.41836" lon="4.66633">
        <ele>514</ele>
        <time>2015-07-27T12:29:14Z</time>
      </trkpt>
      <trkpt lat="45.41853" lon="4.66605">
        <ele>514</ele>
        <time>2015-07-27T12:29:22Z</time>
      </trkpt>
      <trkpt lat="45.41858" lon="4.66599">
        <ele>514</ele>
        <time>2015-07-27T12:29:24Z</time>
      </trkpt>
      <trkpt lat="45.4188" lon="4.66576">
        <ele>514</ele>
        <time>2015-07-27T12:29:32Z</time>
      </trkpt>
      <trkpt lat="45.41888" lon="4.66568">
        <ele>514</ele>
        <time>2015-07-27T12:29:35Z</time>
      </trkpt>
      <trkpt lat="45.41899" lon="4.66559">
        <ele>514</ele>
        <time>2015-07-27T12:29:39Z</time>
      </trkpt>
      <trkpt lat="45.41912" lon="4.66544">
        <ele>514</ele>
        <time>2015-07-27T12:29:44Z</time>
      </trkpt>
      <trkpt lat="45.41926" lon="4.6653">
        <ele>516</ele>
        <time>2015-07-27T12:29:49Z</time>
      </trkpt>
      <trkpt lat="45.41936" lon="4.66514">
        <ele>516</ele>
        <time>2015-07-27T12:29:54Z</time>
      </trkpt>
      <trkpt lat="45.41946" lon="4.66498">
        <ele>516</ele>
        <time>2015-07-27T12:29:59Z</time>
      </trkpt>
      <trkpt lat="45.41956" lon="4.6648">
        <ele>516</ele>
        <time>2015-07-27T12:30:04Z</time>
      </trkpt>
      <trkpt lat="45.41965" lon="4.66463">
        <ele>516</ele>
        <time>2015-07-27T12:30:09Z</time>
      </trkpt>
      <trkpt lat="45.41971" lon="4.66448">
        <ele>517</ele>
        <time>2015-07-27T12:30:13Z</time>
      </trkpt>
      <trkpt lat="45.41981" lon="4.66431">
        <ele>517</ele>
        <time>2015-07-27T12:30:18Z</time>
      </trkpt>
      <trkpt lat="45.41988" lon="4.66414">
        <ele>519</ele>
        <time>2015-07-27T12:30:23Z</time>
      </trkpt>
      <trkpt lat="45.41997" lon="4.66396">
        <ele>519</ele>
        <time>2015-07-27T12:30:28Z</time>
      </trkpt>
      <trkpt lat="45.4201" lon="4.66372">
        <ele>521</ele>
        <time>2015-07-27T12:30:35Z</time>
      </trkpt>
      <trkpt lat="45.42015" lon="4.66361">
        <ele>521</ele>
        <time>2015-07-27T12:30:38Z</time>
      </trkpt>
      <trkpt lat="45.42025" lon="4.66345">
        <ele>522</ele>
        <time>2015-07-27T12:30:43Z</time>
      </trkpt>
      <trkpt lat="45.42035" lon="4.66329">
        <ele>527</ele>
        <time>2015-07-27T12:30:48Z</time>
      </trkpt>
      <trkpt lat="45.42046" lon="4.66318">
        <ele>527</ele>
        <time>2015-07-27T12:30:53Z</time>
      </trkpt>
      <trkpt lat="45.42061" lon="4.66312">
        <ele>527</ele>
        <time>2015-07-27T12:30:58Z</time>
      </trkpt>
      <trkpt lat="45.42077" lon="4.66308">
        <ele>528</ele>
        <time>2015-07-27T12:31:03Z</time>
      </trkpt>
      <trkpt lat="45.42093" lon="4.66309">
        <ele>529</ele>
        <time>2015-07-27T12:31:08Z</time>
      </trkpt>
      <trkpt lat="45.4211" lon="4.66309">
        <ele>530</ele>
        <time>2015-07-27T12:31:13Z</time>
      </trkpt>
      <trkpt lat="45.42122" lon="4.66307">
        <ele>530</ele>
        <time>2015-07-27T12:31:18Z</time>
      </trkpt>
      <trkpt lat="45.42138" lon="4.66304">
        <ele>530</ele>
        <time>2015-07-27T12:31:23Z</time>
      </trkpt>
      <trkpt lat="45.42152" lon="4.66298">
        <ele>531</ele>
        <time>2015-07-27T12:31:28Z</time>
      </trkpt>
      <trkpt lat="45.42168" lon="4.66289">
        <ele>530</ele>
        <time>2015-07-27T12:31:34Z</time>
      </trkpt>
      <trkpt lat="45.42178" lon="4.66281">
        <ele>531</ele>
        <time>2015-07-27T12:31:38Z</time>
      </trkpt>
      <trkpt lat="45.42197" lon="4.66267">
        <ele>532</ele>
        <time>2015-07-27T12:31:45Z</time>
      </trkpt>
      <trkpt lat="45.42206" lon="4.66262">
        <ele>531</ele>
        <time>2015-07-27T12:31:48Z</time>
      </trkpt>
      <trkpt lat="45.42219" lon="4.66252">
        <ele>532</ele>
        <time>2015-07-27T12:31:53Z</time>
      </trkpt>
      <trkpt lat="45.42233" lon="4.66242">
        <ele>539</ele>
        <time>2015-07-27T12:31:58Z</time>
      </trkpt>
      <trkpt lat="45.42247" lon="4.66233">
        <ele>539</ele>
        <time>2015-07-27T12:32:03Z</time>
      </trkpt>
      <trkpt lat="45.4226" lon="4.66224">
        <ele>539</ele>
        <time>2015-07-27T12:32:08Z</time>
      </trkpt>
      <trkpt lat="45.42274" lon="4.66219">
        <ele>540</ele>
        <time>2015-07-27T12:32:13Z</time>
      </trkpt>
      <trkpt lat="45.42293" lon="4.66213">
        <ele>540</ele>
        <time>2015-07-27T12:32:19Z</time>
      </trkpt>
      <trkpt lat="45.42306" lon="4.66211">
        <ele>540</ele>
        <time>2015-07-27T12:32:23Z</time>
      </trkpt>
      <trkpt lat="45.42322" lon="4.66211">
        <ele>540</ele>
        <time>2015-07-27T12:32:28Z</time>
      </trkpt>
      <trkpt lat="45.42341" lon="4.66211">
        <ele>539</ele>
        <time>2015-07-27T12:32:34Z</time>
      </trkpt>
      <trkpt lat="45.42352" lon="4.66211">
        <ele>539</ele>
        <time>2015-07-27T12:32:38Z</time>
      </trkpt>
      <trkpt lat="45.42381" lon="4.662">
        <ele>539</ele>
        <time>2015-07-27T12:32:47Z</time>
      </trkpt>
      <trkpt lat="45.42385" lon="4.66198">
        <ele>540</ele>
        <time>2015-07-27T12:32:48Z</time>
      </trkpt>
      <trkpt lat="45.42399" lon="4.66177">
        <ele>540</ele>
        <time>2015-07-27T12:32:53Z</time>
      </trkpt>
      <trkpt lat="45.42409" lon="4.66155">
        <ele>543</ele>
        <time>2015-07-27T12:32:58Z</time>
      </trkpt>
      <trkpt lat="45.42417" lon="4.66129">
        <ele>541</ele>
        <time>2015-07-27T12:33:03Z</time>
      </trkpt>
      <trkpt lat="45.42428" lon="4.66104">
        <ele>543</ele>
        <time>2015-07-27T12:33:08Z</time>
      </trkpt>
      <trkpt lat="45.42442" lon="4.66082">
        <ele>548</ele>
        <time>2015-07-27T12:33:13Z</time>
      </trkpt>
      <trkpt lat="45.42461" lon="4.66068">
        <ele>548</ele>
        <time>2015-07-27T12:33:18Z</time>
      </trkpt>
      <trkpt lat="45.42482" lon="4.66057">
        <ele>547</ele>
        <time>2015-07-27T12:33:23Z</time>
      </trkpt>
      <trkpt lat="45.42505" lon="4.6605">
        <ele>547</ele>
        <time>2015-07-27T12:33:28Z</time>
      </trkpt>
      <trkpt lat="45.42526" lon="4.66042">
        <ele>549</ele>
        <time>2015-07-27T12:33:33Z</time>
      </trkpt>
      <trkpt lat="45.42546" lon="4.66041">
        <ele>549</ele>
        <time>2015-07-27T12:33:38Z</time>
      </trkpt>
      <trkpt lat="45.42565" lon="4.66041">
        <ele>549</ele>
        <time>2015-07-27T12:33:43Z</time>
      </trkpt>
      <trkpt lat="45.42583" lon="4.66041">
        <ele>549</ele>
        <time>2015-07-27T12:33:48Z</time>
      </trkpt>
      <trkpt lat="45.426" lon="4.66042">
        <ele>552</ele>
        <time>2015-07-27T12:33:53Z</time>
      </trkpt>
      <trkpt lat="45.42617" lon="4.66043">
        <ele>553</ele>
        <time>2015-07-27T12:33:58Z</time>
      </trkpt>
      <trkpt lat="45.4263" lon="4.66045">
        <ele>553</ele>
        <time>2015-07-27T12:34:03Z</time>
      </trkpt>
      <trkpt lat="45.42646" lon="4.66052">
        <ele>553</ele>
        <time>2015-07-27T12:34:08Z</time>
      </trkpt>
      <trkpt lat="45.42671" lon="4.6606">
        <ele>556</ele>
        <time>2015-07-27T12:34:17Z</time>
      </trkpt>
      <trkpt lat="45.4268" lon="4.66064">
        <ele>555</ele>
        <time>2015-07-27T12:34:20Z</time>
      </trkpt>
      <trkpt lat="45.42685" lon="4.66067">
        <ele>556</ele>
        <time>2015-07-27T12:34:22Z</time>
      </trkpt>
      <trkpt lat="45.427" lon="4.66075">
        <ele>557</ele>
        <time>2015-07-27T12:34:27Z</time>
      </trkpt>
      <trkpt lat="45.42714" lon="4.66085">
        <ele>548</ele>
        <time>2015-07-27T12:34:32Z</time>
      </trkpt>
      <trkpt lat="45.42727" lon="4.66098">
        <ele>549</ele>
        <time>2015-07-27T12:34:37Z</time>
      </trkpt>
      <trkpt lat="45.4274" lon="4.66112">
        <ele>548</ele>
        <time>2015-07-27T12:34:42Z</time>
      </trkpt>
      <trkpt lat="45.42754" lon="4.66124">
        <ele>549</ele>
        <time>2015-07-27T12:34:47Z</time>
      </trkpt>
      <trkpt lat="45.4277" lon="4.66129">
        <ele>548</ele>
        <time>2015-07-27T12:34:52Z</time>
      </trkpt>
      <trkpt lat="45.42785" lon="4.66124">
        <ele>548</ele>
        <time>2015-07-27T12:34:57Z</time>
      </trkpt>
      <trkpt lat="45.42795" lon="4.66106">
        <ele>549</ele>
        <time>2015-07-27T12:35:02Z</time>
      </trkpt>
      <trkpt lat="45.42801" lon="4.66084">
        <ele>550</ele>
        <time>2015-07-27T12:35:07Z</time>
      </trkpt>
      <trkpt lat="45.42806" lon="4.6606">
        <ele>558</ele>
        <time>2015-07-27T12:35:12Z</time>
      </trkpt>
      <trkpt lat="45.42811" lon="4.66038">
        <ele>559</ele>
        <time>2015-07-27T12:35:17Z</time>
      </trkpt>
      <trkpt lat="45.42818" lon="4.66017">
        <ele>560</ele>
        <time>2015-07-27T12:35:22Z</time>
      </trkpt>
      <trkpt lat="45.42826" lon="4.65998">
        <ele>564</ele>
        <time>2015-07-27T12:35:27Z</time>
      </trkpt>
      <trkpt lat="45.42834" lon="4.65979">
        <ele>561</ele>
        <time>2015-07-27T12:35:32Z</time>
      </trkpt>
      <trkpt lat="45.42843" lon="4.6596">
        <ele>561</ele>
        <time>2015-07-27T12:35:37Z</time>
      </trkpt>
      <trkpt lat="45.42853" lon="4.65943">
        <ele>563</ele>
        <time>2015-07-27T12:35:42Z</time>
      </trkpt>
      <trkpt lat="45.42854" lon="4.65926">
        <ele>565</ele>
        <time>2015-07-27T12:35:47Z</time>
      </trkpt>
      <trkpt lat="45.42841" lon="4.65925">
        <ele>568</ele>
        <time>2015-07-27T12:35:52Z</time>
      </trkpt>
      <trkpt lat="45.42829" lon="4.65934">
        <ele>573</ele>
        <time>2015-07-27T12:35:57Z</time>
      </trkpt>
      <trkpt lat="45.42818" lon="4.65943">
        <ele>573</ele>
        <time>2015-07-27T12:36:02Z</time>
      </trkpt>
      <trkpt lat="45.42808" lon="4.65959">
        <ele>572</ele>
        <time>2015-07-27T12:36:07Z</time>
      </trkpt>
      <trkpt lat="45.42796" lon="4.65973">
        <ele>572</ele>
        <time>2015-07-27T12:36:12Z</time>
      </trkpt>
      <trkpt lat="45.42783" lon="4.65981">
        <ele>572</ele>
        <time>2015-07-27T12:36:17Z</time>
      </trkpt>
      <trkpt lat="45.4277" lon="4.65986">
        <ele>572</ele>
        <time>2015-07-27T12:36:22Z</time>
      </trkpt>
      <trkpt lat="45.42757" lon="4.6599">
        <ele>572</ele>
        <time>2015-07-27T12:36:27Z</time>
      </trkpt>
      <trkpt lat="45.42745" lon="4.65989">
        <ele>574</ele>
        <time>2015-07-27T12:36:32Z</time>
      </trkpt>
      <trkpt lat="45.42733" lon="4.65985">
        <ele>575</ele>
        <time>2015-07-27T12:36:37Z</time>
      </trkpt>
      <trkpt lat="45.42722" lon="4.65979">
        <ele>576</ele>
        <time>2015-07-27T12:36:42Z</time>
      </trkpt>
      <trkpt lat="45.42709" lon="4.65974">
        <ele>577</ele>
        <time>2015-07-27T12:36:47Z</time>
      </trkpt>
      <trkpt lat="45.42698" lon="4.65968">
        <ele>577</ele>
        <time>2015-07-27T12:36:52Z</time>
      </trkpt>
      <trkpt lat="45.42686" lon="4.65963">
        <ele>578</ele>
        <time>2015-07-27T12:36:57Z</time>
      </trkpt>
      <trkpt lat="45.42676" lon="4.65957">
        <ele>578</ele>
        <time>2015-07-27T12:37:02Z</time>
      </trkpt>
      <trkpt lat="45.42665" lon="4.65952">
        <ele>577</ele>
        <time>2015-07-27T12:37:07Z</time>
      </trkpt>
      <trkpt lat="45.42654" lon="4.65945">
        <ele>578</ele>
        <time>2015-07-27T12:37:12Z</time>
      </trkpt>
      <trkpt lat="45.42632" lon="4.65936">
        <ele>578</ele>
        <time>2015-07-27T12:37:21Z</time>
      </trkpt>
      <trkpt lat="45.42622" lon="4.65933">
        <ele>578</ele>
        <time>2015-07-27T12:37:25Z</time>
      </trkpt>
      <trkpt lat="45.42615" lon="4.6593">
        <ele>579</ele>
        <time>2015-07-27T12:37:28Z</time>
      </trkpt>
      <trkpt lat="45.42607" lon="4.65927">
        <ele>579</ele>
        <time>2015-07-27T12:37:32Z</time>
      </trkpt>
      <trkpt lat="45.42598" lon="4.65924">
        <ele>580</ele>
        <time>2015-07-27T12:37:36Z</time>
      </trkpt>
      <trkpt lat="45.42586" lon="4.65919">
        <ele>584</ele>
        <time>2015-07-27T12:37:41Z</time>
      </trkpt>
      <trkpt lat="45.42577" lon="4.65911">
        <ele>586</ele>
        <time>2015-07-27T12:37:46Z</time>
      </trkpt>
      <trkpt lat="45.42558" lon="4.65894">
        <ele>589</ele>
        <time>2015-07-27T12:37:55Z</time>
      </trkpt>
      <trkpt lat="45.42552" lon="4.65887">
        <ele>589</ele>
        <time>2015-07-27T12:37:58Z</time>
      </trkpt>
      <trkpt lat="45.42541" lon="4.65878">
        <ele>590</ele>
        <time>2015-07-27T12:38:03Z</time>
      </trkpt>
      <trkpt lat="45.42532" lon="4.65867">
        <ele>590</ele>
        <time>2015-07-27T12:38:08Z</time>
      </trkpt>
      <trkpt lat="45.42525" lon="4.65861">
        <ele>591</ele>
        <time>2015-07-27T12:38:11Z</time>
      </trkpt>
      <trkpt lat="45.42515" lon="4.65851">
        <ele>592</ele>
        <time>2015-07-27T12:38:16Z</time>
      </trkpt>
      <trkpt lat="45.42506" lon="4.65839">
        <ele>593</ele>
        <time>2015-07-27T12:38:21Z</time>
      </trkpt>
      <trkpt lat="45.42498" lon="4.65828">
        <ele>594</ele>
        <time>2015-07-27T12:38:26Z</time>
      </trkpt>
      <trkpt lat="45.42489" lon="4.65817">
        <ele>595</ele>
        <time>2015-07-27T12:38:31Z</time>
      </trkpt>
      <trkpt lat="45.42481" lon="4.65804">
        <ele>596</ele>
        <time>2015-07-27T12:38:36Z</time>
      </trkpt>
      <trkpt lat="45.42473" lon="4.65791">
        <ele>597</ele>
        <time>2015-07-27T12:38:41Z</time>
      </trkpt>
      <trkpt lat="45.42467" lon="4.65778">
        <ele>597</ele>
        <time>2015-07-27T12:38:46Z</time>
      </trkpt>
      <trkpt lat="45.42461" lon="4.65766">
        <ele>598</ele>
        <time>2015-07-27T12:38:51Z</time>
      </trkpt>
      <trkpt lat="45.42451" lon="4.65739">
        <ele>605</ele>
        <time>2015-07-27T12:39:00Z</time>
      </trkpt>
      <trkpt lat="45.42447" lon="4.65729">
        <ele>605</ele>
        <time>2015-07-27T12:39:03Z</time>
      </trkpt>
      <trkpt lat="45.42442" lon="4.65713">
        <ele>606</ele>
        <time>2015-07-27T12:39:08Z</time>
      </trkpt>
      <trkpt lat="45.42437" lon="4.65697">
        <ele>607</ele>
        <time>2015-07-27T12:39:13Z</time>
      </trkpt>
      <trkpt lat="45.42432" lon="4.65685">
        <ele>607</ele>
        <time>2015-07-27T12:39:17Z</time>
      </trkpt>
      <trkpt lat="45.42428" lon="4.65671">
        <ele>606</ele>
        <time>2015-07-27T12:39:22Z</time>
      </trkpt>
      <trkpt lat="45.42423" lon="4.65656">
        <ele>610</ele>
        <time>2015-07-27T12:39:27Z</time>
      </trkpt>
      <trkpt lat="45.42418" lon="4.65641">
        <ele>614</ele>
        <time>2015-07-27T12:39:32Z</time>
      </trkpt>
      <trkpt lat="45.42413" lon="4.65627">
        <ele>604</ele>
        <time>2015-07-27T12:39:37Z</time>
      </trkpt>
      <trkpt lat="45.42409" lon="4.65614">
        <ele>605</ele>
        <time>2015-07-27T12:39:42Z</time>
      </trkpt>
      <trkpt lat="45.42406" lon="4.65599">
        <ele>607</ele>
        <time>2015-07-27T12:39:47Z</time>
      </trkpt>
      <trkpt lat="45.42403" lon="4.65582">
        <ele>612</ele>
        <time>2015-07-27T12:39:52Z</time>
      </trkpt>
      <trkpt lat="45.42401" lon="4.65567">
        <ele>611</ele>
        <time>2015-07-27T12:39:57Z</time>
      </trkpt>
      <trkpt lat="45.42399" lon="4.65551">
        <ele>611</ele>
        <time>2015-07-27T12:40:02Z</time>
      </trkpt>
      <trkpt lat="45.42397" lon="4.65534">
        <ele>611</ele>
        <time>2015-07-27T12:40:07Z</time>
      </trkpt>
      <trkpt lat="45.42391" lon="4.65505">
        <ele>613</ele>
        <time>2015-07-27T12:40:16Z</time>
      </trkpt>
      <trkpt lat="45.42391" lon="4.65496">
        <ele>617</ele>
        <time>2015-07-27T12:40:19Z</time>
      </trkpt>
      <trkpt lat="45.4239" lon="4.65487">
        <ele>617</ele>
        <time>2015-07-27T12:40:22Z</time>
      </trkpt>
      <trkpt lat="45.42387" lon="4.65473">
        <ele>617</ele>
        <time>2015-07-27T12:40:27Z</time>
      </trkpt>
      <trkpt lat="45.42383" lon="4.65439">
        <ele>618</ele>
        <time>2015-07-27T12:40:36Z</time>
      </trkpt>
      <trkpt lat="45.42382" lon="4.65437">
        <ele>618</ele>
        <time>2015-07-27T12:40:37Z</time>
      </trkpt>
      <trkpt lat="45.42376" lon="4.65409">
        <ele>624</ele>
        <time>2015-07-27T12:40:45Z</time>
      </trkpt>
      <trkpt lat="45.42375" lon="4.65403">
        <ele>624</ele>
        <time>2015-07-27T12:40:47Z</time>
      </trkpt>
      <trkpt lat="45.4237" lon="4.65389">
        <ele>624</ele>
        <time>2015-07-27T12:40:52Z</time>
      </trkpt>
      <trkpt lat="45.42361" lon="4.65363">
        <ele>624</ele>
        <time>2015-07-27T12:41:01Z</time>
      </trkpt>
      <trkpt lat="45.4236" lon="4.6536">
        <ele>625</ele>
        <time>2015-07-27T12:41:02Z</time>
      </trkpt>
      <trkpt lat="45.42355" lon="4.65346">
        <ele>624</ele>
        <time>2015-07-27T12:41:07Z</time>
      </trkpt>
      <trkpt lat="45.42349" lon="4.65325">
        <ele>629</ele>
        <time>2015-07-27T12:41:14Z</time>
      </trkpt>
      <trkpt lat="45.42345" lon="4.65316">
        <ele>629</ele>
        <time>2015-07-27T12:41:17Z</time>
      </trkpt>
      <trkpt lat="45.4234" lon="4.65292">
        <ele>632</ele>
        <time>2015-07-27T12:41:25Z</time>
      </trkpt>
      <trkpt lat="45.42339" lon="4.65286">
        <ele>633</ele>
        <time>2015-07-27T12:41:27Z</time>
      </trkpt>
      <trkpt lat="45.42334" lon="4.65257">
        <ele>632</ele>
        <time>2015-07-27T12:41:36Z</time>
      </trkpt>
      <trkpt lat="45.42332" lon="4.65245">
        <ele>629</ele>
        <time>2015-07-27T12:41:40Z</time>
      </trkpt>
      <trkpt lat="45.42328" lon="4.65226">
        <ele>627</ele>
        <time>2015-07-27T12:41:46Z</time>
      </trkpt>
      <trkpt lat="45.42327" lon="4.65223">
        <ele>627</ele>
        <time>2015-07-27T12:41:47Z</time>
      </trkpt>
      <trkpt lat="45.42324" lon="4.65209">
        <ele>627</ele>
        <time>2015-07-27T12:41:52Z</time>
      </trkpt>
      <trkpt lat="45.4232" lon="4.65196">
        <ele>628</ele>
        <time>2015-07-27T12:41:57Z</time>
      </trkpt>
      <trkpt lat="45.42318" lon="4.65182">
        <ele>630</ele>
        <time>2015-07-27T12:42:02Z</time>
      </trkpt>
      <trkpt lat="45.42315" lon="4.65163">
        <ele>635</ele>
        <time>2015-07-27T12:42:08Z</time>
      </trkpt>
      <trkpt lat="45.42312" lon="4.6515">
        <ele>634</ele>
        <time>2015-07-27T12:42:12Z</time>
      </trkpt>
      <trkpt lat="45.4231" lon="4.65136">
        <ele>633</ele>
        <time>2015-07-27T12:42:17Z</time>
      </trkpt>
      <trkpt lat="45.42309" lon="4.65121">
        <ele>634</ele>
        <time>2015-07-27T12:42:22Z</time>
      </trkpt>
      <trkpt lat="45.42306" lon="4.65106">
        <ele>634</ele>
        <time>2015-07-27T12:42:27Z</time>
      </trkpt>
      <trkpt lat="45.42299" lon="4.65076">
        <ele>639</ele>
        <time>2015-07-27T12:42:36Z</time>
      </trkpt>
      <trkpt lat="45.42297" lon="4.65067">
        <ele>639</ele>
        <time>2015-07-27T12:42:39Z</time>
      </trkpt>
      <trkpt lat="45.42292" lon="4.65047">
        <ele>639</ele>
        <time>2015-07-27T12:42:46Z</time>
      </trkpt>
      <trkpt lat="45.42292" lon="4.65044">
        <ele>639</ele>
        <time>2015-07-27T12:42:47Z</time>
      </trkpt>
      <trkpt lat="45.42291" lon="4.65029">
        <ele>640</ele>
        <time>2015-07-27T12:42:52Z</time>
      </trkpt>
      <trkpt lat="45.42287" lon="4.65014">
        <ele>640</ele>
        <time>2015-07-27T12:42:57Z</time>
      </trkpt>
      <trkpt lat="45.42284" lon="4.64999">
        <ele>645</ele>
        <time>2015-07-27T12:43:02Z</time>
      </trkpt>
      <trkpt lat="45.42283" lon="4.64982">
        <ele>646</ele>
        <time>2015-07-27T12:43:07Z</time>
      </trkpt>
      <trkpt lat="45.42281" lon="4.64965">
        <ele>647</ele>
        <time>2015-07-27T12:43:12Z</time>
      </trkpt>
      <trkpt lat="45.42281" lon="4.64949">
        <ele>648</ele>
        <time>2015-07-27T12:43:17Z</time>
      </trkpt>
      <trkpt lat="45.4228" lon="4.64933">
        <ele>648</ele>
        <time>2015-07-27T12:43:22Z</time>
      </trkpt>
      <trkpt lat="45.42279" lon="4.64919">
        <ele>648</ele>
        <time>2015-07-27T12:43:27Z</time>
      </trkpt>
      <trkpt lat="45.42278" lon="4.64904">
        <ele>653</ele>
        <time>2015-07-27T12:43:32Z</time>
      </trkpt>
      <trkpt lat="45.42278" lon="4.64888">
        <ele>654</ele>
        <time>2015-07-27T12:43:37Z</time>
      </trkpt>
      <trkpt lat="45.42275" lon="4.64855">
        <ele>654</ele>
        <time>2015-07-27T12:43:46Z</time>
      </trkpt>
      <trkpt lat="45.42275" lon="4.64852">
        <ele>654</ele>
        <time>2015-07-27T12:43:47Z</time>
      </trkpt>
      <trkpt lat="45.42274" lon="4.64835">
        <ele>654</ele>
        <time>2015-07-27T12:43:52Z</time>
      </trkpt>
      <trkpt lat="45.42272" lon="4.6482">
        <ele>658</ele>
        <time>2015-07-27T12:43:57Z</time>
      </trkpt>
      <trkpt lat="45.42272" lon="4.64803">
        <ele>659</ele>
        <time>2015-07-27T12:44:02Z</time>
      </trkpt>
      <trkpt lat="45.42268" lon="4.6477">
        <ele>660</ele>
        <time>2015-07-27T12:44:12Z</time>
      </trkpt>
      <trkpt lat="45.42267" lon="4.64757">
        <ele>659</ele>
        <time>2015-07-27T12:44:16Z</time>
      </trkpt>
      <trkpt lat="45.42267" lon="4.64747">
        <ele>661</ele>
        <time>2015-07-27T12:44:19Z</time>
      </trkpt>
      <trkpt lat="45.42267" lon="4.64735">
        <ele>663</ele>
        <time>2015-07-27T12:44:23Z</time>
      </trkpt>
      <trkpt lat="45.42265" lon="4.64721">
        <ele>664</ele>
        <time>2015-07-27T12:44:28Z</time>
      </trkpt>
      <trkpt lat="45.42265" lon="4.64706">
        <ele>665</ele>
        <time>2015-07-27T12:44:33Z</time>
      </trkpt>
      <trkpt lat="45.42265" lon="4.64689">
        <ele>665</ele>
        <time>2015-07-27T12:44:38Z</time>
      </trkpt>
      <trkpt lat="45.42264" lon="4.64675">
        <ele>664</ele>
        <time>2015-07-27T12:44:43Z</time>
      </trkpt>
      <trkpt lat="45.42264" lon="4.64658">
        <ele>667</ele>
        <time>2015-07-27T12:44:48Z</time>
      </trkpt>
      <trkpt lat="45.42262" lon="4.64642">
        <ele>669</ele>
        <time>2015-07-27T12:44:53Z</time>
      </trkpt>
      <trkpt lat="45.4226" lon="4.64628">
        <ele>671</ele>
        <time>2015-07-27T12:44:58Z</time>
      </trkpt>
      <trkpt lat="45.42258" lon="4.64604">
        <ele>670</ele>
        <time>2015-07-27T12:45:06Z</time>
      </trkpt>
      <trkpt lat="45.42259" lon="4.64598">
        <ele>670</ele>
        <time>2015-07-27T12:45:08Z</time>
      </trkpt>
      <trkpt lat="45.42256" lon="4.64568">
        <ele>672</ele>
        <time>2015-07-27T12:45:17Z</time>
      </trkpt>
      <trkpt lat="45.42256" lon="4.64565">
        <ele>673</ele>
        <time>2015-07-27T12:45:18Z</time>
      </trkpt>
      <trkpt lat="45.42255" lon="4.6455">
        <ele>675</ele>
        <time>2015-07-27T12:45:23Z</time>
      </trkpt>
      <trkpt lat="45.42254" lon="4.64536">
        <ele>675</ele>
        <time>2015-07-27T12:45:28Z</time>
      </trkpt>
      <trkpt lat="45.42252" lon="4.64522">
        <ele>674</ele>
        <time>2015-07-27T12:45:33Z</time>
      </trkpt>
      <trkpt lat="45.42251" lon="4.64508">
        <ele>671</ele>
        <time>2015-07-27T12:45:38Z</time>
      </trkpt>
      <trkpt lat="45.42249" lon="4.64495">
        <ele>665</ele>
        <time>2015-07-27T12:45:43Z</time>
      </trkpt>
      <trkpt lat="45.42248" lon="4.64479">
        <ele>660</ele>
        <time>2015-07-27T12:45:48Z</time>
      </trkpt>
      <trkpt lat="45.42249" lon="4.64464">
        <ele>658</ele>
        <time>2015-07-27T12:45:53Z</time>
      </trkpt>
      <trkpt lat="45.4225" lon="4.64448">
        <ele>659</ele>
        <time>2015-07-27T12:45:58Z</time>
      </trkpt>
      <trkpt lat="45.42253" lon="4.64431">
        <ele>675</ele>
        <time>2015-07-27T12:46:04Z</time>
      </trkpt>
      <trkpt lat="45.42257" lon="4.64417">
        <ele>672</ele>
        <time>2015-07-27T12:46:09Z</time>
      </trkpt>
      <trkpt lat="45.42262" lon="4.64402">
        <ele>676</ele>
        <time>2015-07-27T12:46:14Z</time>
      </trkpt>
      <trkpt lat="45.42266" lon="4.64388">
        <ele>679</ele>
        <time>2015-07-27T12:46:19Z</time>
      </trkpt>
      <trkpt lat="45.42271" lon="4.64373">
        <ele>679</ele>
        <time>2015-07-27T12:46:24Z</time>
      </trkpt>
      <trkpt lat="45.42276" lon="4.64358">
        <ele>679</ele>
        <time>2015-07-27T12:46:29Z</time>
      </trkpt>
      <trkpt lat="45.4228" lon="4.64343">
        <ele>679</ele>
        <time>2015-07-27T12:46:34Z</time>
      </trkpt>
      <trkpt lat="45.42285" lon="4.64328">
        <ele>678</ele>
        <time>2015-07-27T12:46:39Z</time>
      </trkpt>
      <trkpt lat="45.4229" lon="4.64314">
        <ele>679</ele>
        <time>2015-07-27T12:46:44Z</time>
      </trkpt>
      <trkpt lat="45.42296" lon="4.643">
        <ele>680</ele>
        <time>2015-07-27T12:46:49Z</time>
      </trkpt>
      <trkpt lat="45.42301" lon="4.64287">
        <ele>681</ele>
        <time>2015-07-27T12:46:54Z</time>
      </trkpt>
      <trkpt lat="45.42306" lon="4.64273">
        <ele>682</ele>
        <time>2015-07-27T12:46:59Z</time>
      </trkpt>
      <trkpt lat="45.4231" lon="4.64262">
        <ele>684</ele>
        <time>2015-07-27T12:47:03Z</time>
      </trkpt>
      <trkpt lat="45.42314" lon="4.64247">
        <ele>684</ele>
        <time>2015-07-27T12:47:08Z</time>
      </trkpt>
      <trkpt lat="45.42318" lon="4.64232">
        <ele>683</ele>
        <time>2015-07-27T12:47:13Z</time>
      </trkpt>
      <trkpt lat="45.42323" lon="4.64215">
        <ele>681</ele>
        <time>2015-07-27T12:47:18Z</time>
      </trkpt>
      <trkpt lat="45.42328" lon="4.64199">
        <ele>681</ele>
        <time>2015-07-27T12:47:23Z</time>
      </trkpt>
      <trkpt lat="45.42332" lon="4.64184">
        <ele>684</ele>
        <time>2015-07-27T12:47:28Z</time>
      </trkpt>
      <trkpt lat="45.42336" lon="4.64168">
        <ele>694</ele>
        <time>2015-07-27T12:47:33Z</time>
      </trkpt>
      <trkpt lat="45.42338" lon="4.64153">
        <ele>699</ele>
        <time>2015-07-27T12:47:38Z</time>
      </trkpt>
      <trkpt lat="45.42339" lon="4.64139">
        <ele>702</ele>
        <time>2015-07-27T12:47:43Z</time>
      </trkpt>
      <trkpt lat="45.42346" lon="4.64114">
        <ele>702</ele>
        <time>2015-07-27T12:47:52Z</time>
      </trkpt>
      <trkpt lat="45.42347" lon="4.64111">
        <ele>702</ele>
        <time>2015-07-27T12:47:53Z</time>
      </trkpt>
      <trkpt lat="45.4235" lon="4.64097">
        <ele>701</ele>
        <time>2015-07-27T12:47:58Z</time>
      </trkpt>
      <trkpt lat="45.42356" lon="4.64066">
        <ele>701</ele>
        <time>2015-07-27T12:48:07Z</time>
      </trkpt>
      <trkpt lat="45.42357" lon="4.64063">
        <ele>701</ele>
        <time>2015-07-27T12:48:08Z</time>
      </trkpt>
      <trkpt lat="45.42361" lon="4.64047">
        <ele>702</ele>
        <time>2015-07-27T12:48:13Z</time>
      </trkpt>
      <trkpt lat="45.42363" lon="4.64028">
        <ele>702</ele>
        <time>2015-07-27T12:48:19Z</time>
      </trkpt>
      <trkpt lat="45.42367" lon="4.64005">
        <ele>702</ele>
        <time>2015-07-27T12:48:26Z</time>
      </trkpt>
      <trkpt lat="45.4237" lon="4.63995">
        <ele>702</ele>
        <time>2015-07-27T12:48:29Z</time>
      </trkpt>
      <trkpt lat="45.42373" lon="4.63982">
        <ele>703</ele>
        <time>2015-07-27T12:48:34Z</time>
      </trkpt>
      <trkpt lat="45.42375" lon="4.63966">
        <ele>704</ele>
        <time>2015-07-27T12:48:39Z</time>
      </trkpt>
      <trkpt lat="45.42379" lon="4.6395">
        <ele>705</ele>
        <time>2015-07-27T12:48:44Z</time>
      </trkpt>
      <trkpt lat="45.42382" lon="4.63933">
        <ele>706</ele>
        <time>2015-07-27T12:48:49Z</time>
      </trkpt>
      <trkpt lat="45.42384" lon="4.63914">
        <ele>708</ele>
        <time>2015-07-27T12:48:54Z</time>
      </trkpt>
      <trkpt lat="45.42391" lon="4.6388">
        <ele>708</ele>
        <time>2015-07-27T12:49:02Z</time>
      </trkpt>
      <trkpt lat="45.42391" lon="4.6387">
        <ele>709</ele>
        <time>2015-07-27T12:49:05Z</time>
      </trkpt>
      <trkpt lat="45.42391" lon="4.63853">
        <ele>709</ele>
        <time>2015-07-27T12:49:10Z</time>
      </trkpt>
      <trkpt lat="45.4239" lon="4.63827">
        <ele>712</ele>
        <time>2015-07-27T12:49:17Z</time>
      </trkpt>
      <trkpt lat="45.42389" lon="4.63816">
        <ele>711</ele>
        <time>2015-07-27T12:49:20Z</time>
      </trkpt>
      <trkpt lat="45.42391" lon="4.63795">
        <ele>711</ele>
        <time>2015-07-27T12:49:25Z</time>
      </trkpt>
      <trkpt lat="45.42394" lon="4.63778">
        <ele>712</ele>
        <time>2015-07-27T12:49:30Z</time>
      </trkpt>
      <trkpt lat="45.42399" lon="4.63756">
        <ele>715</ele>
        <time>2015-07-27T12:49:37Z</time>
      </trkpt>
      <trkpt lat="45.42399" lon="4.63731">
        <ele>715</ele>
        <time>2015-07-27T12:49:44Z</time>
      </trkpt>
      <trkpt lat="45.42399" lon="4.63714">
        <ele>714</ele>
        <time>2015-07-27T12:49:49Z</time>
      </trkpt>
      <trkpt lat="45.42399" lon="4.63711">
        <ele>713</ele>
        <time>2015-07-27T12:49:50Z</time>
      </trkpt>
      <trkpt lat="45.42396" lon="4.63698">
        <ele>713</ele>
        <time>2015-07-27T12:49:55Z</time>
      </trkpt>
      <trkpt lat="45.42395" lon="4.63684">
        <ele>714</ele>
        <time>2015-07-27T12:50:00Z</time>
      </trkpt>
      <trkpt lat="45.42394" lon="4.63669">
        <ele>715</ele>
        <time>2015-07-27T12:50:05Z</time>
      </trkpt>
      <trkpt lat="45.42393" lon="4.63659">
        <ele>716</ele>
        <time>2015-07-27T12:50:09Z</time>
      </trkpt>
      <trkpt lat="45.42394" lon="4.63641">
        <ele>715</ele>
        <time>2015-07-27T12:50:14Z</time>
      </trkpt>
      <trkpt lat="45.42397" lon="4.63627">
        <ele>715</ele>
        <time>2015-07-27T12:50:19Z</time>
      </trkpt>
      <trkpt lat="45.42399" lon="4.63611">
        <ele>716</ele>
        <time>2015-07-27T12:50:24Z</time>
      </trkpt>
      <trkpt lat="45.42402" lon="4.63595">
        <ele>719</ele>
        <time>2015-07-27T12:50:29Z</time>
      </trkpt>
      <trkpt lat="45.42409" lon="4.63569">
        <ele>721</ele>
        <time>2015-07-27T12:50:38Z</time>
      </trkpt>
      <trkpt lat="45.4241" lon="4.63563">
        <ele>720</ele>
        <time>2015-07-27T12:50:40Z</time>
      </trkpt>
      <trkpt lat="45.42416" lon="4.63546">
        <ele>719</ele>
        <time>2015-07-27T12:50:46Z</time>
      </trkpt>
      <trkpt lat="45.42419" lon="4.63536">
        <ele>736</ele>
        <time>2015-07-27T12:50:49Z</time>
      </trkpt>
      <trkpt lat="45.42421" lon="4.6352">
        <ele>735</ele>
        <time>2015-07-27T12:50:54Z</time>
      </trkpt>
      <trkpt lat="45.42422" lon="4.63506">
        <ele>732</ele>
        <time>2015-07-27T12:50:59Z</time>
      </trkpt>
      <trkpt lat="45.42419" lon="4.63484">
        <ele>736</ele>
        <time>2015-07-27T12:51:07Z</time>
      </trkpt>
      <trkpt lat="45.42418" lon="4.63476">
        <ele>738</ele>
        <time>2015-07-27T12:51:10Z</time>
      </trkpt>
      <trkpt lat="45.42416" lon="4.63461">
        <ele>723</ele>
        <time>2015-07-27T12:51:15Z</time>
      </trkpt>
      <trkpt lat="45.42415" lon="4.63445">
        <ele>724</ele>
        <time>2015-07-27T12:51:20Z</time>
      </trkpt>
      <trkpt lat="45.42414" lon="4.63433">
        <ele>726</ele>
        <time>2015-07-27T12:51:24Z</time>
      </trkpt>
      <trkpt lat="45.42414" lon="4.63415">
        <ele>732</ele>
        <time>2015-07-27T12:51:29Z</time>
      </trkpt>
      <trkpt lat="45.42413" lon="4.634">
        <ele>728</ele>
        <time>2015-07-27T12:51:34Z</time>
      </trkpt>
      <trkpt lat="45.42412" lon="4.63386">
        <ele>727</ele>
        <time>2015-07-27T12:51:39Z</time>
      </trkpt>
      <trkpt lat="45.42413" lon="4.63371">
        <ele>727</ele>
        <time>2015-07-27T12:51:44Z</time>
      </trkpt>
      <trkpt lat="45.42414" lon="4.63357">
        <ele>729</ele>
        <time>2015-07-27T12:51:49Z</time>
      </trkpt>
      <trkpt lat="45.42415" lon="4.63339">
        <ele>734</ele>
        <time>2015-07-27T12:51:54Z</time>
      </trkpt>
      <trkpt lat="45.42417" lon="4.63321">
        <ele>745</ele>
        <time>2015-07-27T12:51:59Z</time>
      </trkpt>
      <trkpt lat="45.42418" lon="4.63305">
        <ele>750</ele>
        <time>2015-07-27T12:52:04Z</time>
      </trkpt>
      <trkpt lat="45.4242" lon="4.63288">
        <ele>752</ele>
        <time>2015-07-27T12:52:09Z</time>
      </trkpt>
      <trkpt lat="45.42419" lon="4.63265">
        <ele>750</ele>
        <time>2015-07-27T12:52:16Z</time>
      </trkpt>
      <trkpt lat="45.42419" lon="4.6325">
        <ele>746</ele>
        <time>2015-07-27T12:52:21Z</time>
      </trkpt>
      <trkpt lat="45.42419" lon="4.63239">
        <ele>753</ele>
        <time>2015-07-27T12:52:24Z</time>
      </trkpt>
      <trkpt lat="45.42418" lon="4.63222">
        <ele>759</ele>
        <time>2015-07-27T12:52:29Z</time>
      </trkpt>
      <trkpt lat="45.42413" lon="4.63207">
        <ele>745</ele>
        <time>2015-07-27T12:52:34Z</time>
      </trkpt>
      <trkpt lat="45.42407" lon="4.63194">
        <ele>747</ele>
        <time>2015-07-27T12:52:39Z</time>
      </trkpt>
      <trkpt lat="45.42402" lon="4.63183">
        <ele>749</ele>
        <time>2015-07-27T12:52:43Z</time>
      </trkpt>
      <trkpt lat="45.42391" lon="4.63168">
        <ele>748</ele>
        <time>2015-07-27T12:52:50Z</time>
      </trkpt>
      <trkpt lat="45.42387" lon="4.63161">
        <ele>755</ele>
        <time>2015-07-27T12:52:53Z</time>
      </trkpt>
      <trkpt lat="45.42381" lon="4.63147">
        <ele>754</ele>
        <time>2015-07-27T12:52:59Z</time>
      </trkpt>
      <trkpt lat="45.42378" lon="4.63137">
        <ele>754</ele>
        <time>2015-07-27T12:53:03Z</time>
      </trkpt>
      <trkpt lat="45.42374" lon="4.63124">
        <ele>754</ele>
        <time>2015-07-27T12:53:08Z</time>
      </trkpt>
      <trkpt lat="45.42368" lon="4.63111">
        <ele>754</ele>
        <time>2015-07-27T12:53:13Z</time>
      </trkpt>
      <trkpt lat="45.42366" lon="4.63102">
        <ele>754</ele>
        <time>2015-07-27T12:53:17Z</time>
      </trkpt>
      <trkpt lat="45.42362" lon="4.63085">
        <ele>753</ele>
        <time>2015-07-27T12:53:23Z</time>
      </trkpt>
      <trkpt lat="45.42361" lon="4.63073">
        <ele>759</ele>
        <time>2015-07-27T12:53:27Z</time>
      </trkpt>
      <trkpt lat="45.42358" lon="4.63049">
        <ele>761</ele>
        <time>2015-07-27T12:53:35Z</time>
      </trkpt>
      <trkpt lat="45.42358" lon="4.63043">
        <ele>761</ele>
        <time>2015-07-27T12:53:37Z</time>
      </trkpt>
      <trkpt lat="45.42357" lon="4.63028">
        <ele>762</ele>
        <time>2015-07-27T12:53:42Z</time>
      </trkpt>
      <trkpt lat="45.42356" lon="4.63012">
        <ele>761</ele>
        <time>2015-07-27T12:53:47Z</time>
      </trkpt>
      <trkpt lat="45.42356" lon="4.62999">
        <ele>766</ele>
        <time>2015-07-27T12:53:52Z</time>
      </trkpt>
      <trkpt lat="45.42356" lon="4.62983">
        <ele>767</ele>
        <time>2015-07-27T12:53:57Z</time>
      </trkpt>
      <trkpt lat="45.42355" lon="4.62968">
        <ele>769</ele>
        <time>2015-07-27T12:54:02Z</time>
      </trkpt>
      <trkpt lat="45.42353" lon="4.62951">
        <ele>770</ele>
        <time>2015-07-27T12:54:07Z</time>
      </trkpt>
      <trkpt lat="45.42353" lon="4.62936">
        <ele>770</ele>
        <time>2015-07-27T12:54:12Z</time>
      </trkpt>
      <trkpt lat="45.42352" lon="4.62921">
        <ele>769</ele>
        <time>2015-07-27T12:54:17Z</time>
      </trkpt>
      <trkpt lat="45.42351" lon="4.62902">
        <ele>774</ele>
        <time>2015-07-27T12:54:23Z</time>
      </trkpt>
      <trkpt lat="45.42349" lon="4.62887">
        <ele>776</ele>
        <time>2015-07-27T12:54:27Z</time>
      </trkpt>
      <trkpt lat="45.42346" lon="4.62874">
        <ele>777</ele>
        <time>2015-07-27T12:54:32Z</time>
      </trkpt>
      <trkpt lat="45.42343" lon="4.62859">
        <ele>776</ele>
        <time>2015-07-27T12:54:37Z</time>
      </trkpt>
      <trkpt lat="45.42343" lon="4.62845">
        <ele>775</ele>
        <time>2015-07-27T12:54:42Z</time>
      </trkpt>
      <trkpt lat="45.42341" lon="4.62832">
        <ele>774</ele>
        <time>2015-07-27T12:54:47Z</time>
      </trkpt>
      <trkpt lat="45.4234" lon="4.62811">
        <ele>781</ele>
        <time>2015-07-27T12:54:54Z</time>
      </trkpt>
      <trkpt lat="45.42338" lon="4.628">
        <ele>783</ele>
        <time>2015-07-27T12:54:57Z</time>
      </trkpt>
      <trkpt lat="45.42334" lon="4.62786">
        <ele>784</ele>
        <time>2015-07-27T12:55:02Z</time>
      </trkpt>
      <trkpt lat="45.42331" lon="4.62773">
        <ele>777</ele>
        <time>2015-07-27T12:55:07Z</time>
      </trkpt>
      <trkpt lat="45.42323" lon="4.62758">
        <ele>778</ele>
        <time>2015-07-27T12:55:13Z</time>
      </trkpt>
      <trkpt lat="45.42313" lon="4.62749">
        <ele>784</ele>
        <time>2015-07-27T12:55:18Z</time>
      </trkpt>
      <trkpt lat="45.42303" lon="4.62742">
        <ele>785</ele>
        <time>2015-07-27T12:55:23Z</time>
      </trkpt>
      <trkpt lat="45.42293" lon="4.62744">
        <ele>785</ele>
        <time>2015-07-27T12:55:28Z</time>
      </trkpt>
      <trkpt lat="45.42284" lon="4.62747">
        <ele>786</ele>
        <time>2015-07-27T12:55:33Z</time>
      </trkpt>
      <trkpt lat="45.42272" lon="4.62758">
        <ele>779</ele>
        <time>2015-07-27T12:55:39Z</time>
      </trkpt>
      <trkpt lat="45.42265" lon="4.62763">
        <ele>779</ele>
        <time>2015-07-27T12:55:43Z</time>
      </trkpt>
      <trkpt lat="45.42253" lon="4.62772">
        <ele>779</ele>
        <time>2015-07-27T12:55:49Z</time>
      </trkpt>
      <trkpt lat="45.42246" lon="4.6278">
        <ele>788</ele>
        <time>2015-07-27T12:55:53Z</time>
      </trkpt>
      <trkpt lat="45.42235" lon="4.6279">
        <ele>789</ele>
        <time>2015-07-27T12:55:58Z</time>
      </trkpt>
      <trkpt lat="45.42225" lon="4.62798">
        <ele>789</ele>
        <time>2015-07-27T12:56:03Z</time>
      </trkpt>
      <trkpt lat="45.42215" lon="4.62805">
        <ele>790</ele>
        <time>2015-07-27T12:56:09Z</time>
      </trkpt>
      <trkpt lat="45.42207" lon="4.62811">
        <ele>792</ele>
        <time>2015-07-27T12:56:13Z</time>
      </trkpt>
      <trkpt lat="45.42198" lon="4.62818">
        <ele>793</ele>
        <time>2015-07-27T12:56:18Z</time>
      </trkpt>
      <trkpt lat="45.42187" lon="4.62829">
        <ele>795</ele>
        <time>2015-07-27T12:56:23Z</time>
      </trkpt>
      <trkpt lat="45.42179" lon="4.62835">
        <ele>792</ele>
        <time>2015-07-27T12:56:28Z</time>
      </trkpt>
      <trkpt lat="45.42171" lon="4.62844">
        <ele>793</ele>
        <time>2015-07-27T12:56:33Z</time>
      </trkpt>
      <trkpt lat="45.42157" lon="4.62854">
        <ele>799</ele>
        <time>2015-07-27T12:56:39Z</time>
      </trkpt>
      <trkpt lat="45.42147" lon="4.62864">
        <ele>799</ele>
        <time>2015-07-27T12:56:45Z</time>
      </trkpt>
      <trkpt lat="45.42141" lon="4.6287">
        <ele>799</ele>
        <time>2015-07-27T12:56:49Z</time>
      </trkpt>
      <trkpt lat="45.42132" lon="4.62875">
        <ele>799</ele>
        <time>2015-07-27T12:56:53Z</time>
      </trkpt>
      <trkpt lat="45.42121" lon="4.62884">
        <ele>799</ele>
        <time>2015-07-27T12:56:58Z</time>
      </trkpt>
      <trkpt lat="45.42112" lon="4.62888">
        <ele>799</ele>
        <time>2015-07-27T12:57:03Z</time>
      </trkpt>
      <trkpt lat="45.421" lon="4.62888">
        <ele>800</ele>
        <time>2015-07-27T12:57:08Z</time>
      </trkpt>
      <trkpt lat="45.42086" lon="4.6288">
        <ele>801</ele>
        <time>2015-07-27T12:57:17Z</time>
      </trkpt>
      <trkpt lat="45.42084" lon="4.6288">
        <ele>801</ele>
        <time>2015-07-27T12:57:18Z</time>
      </trkpt>
      <trkpt lat="45.42077" lon="4.62876">
        <ele>810</ele>
        <time>2015-07-27T12:57:23Z</time>
      </trkpt>
      <trkpt lat="45.42068" lon="4.62872">
        <ele>811</ele>
        <time>2015-07-27T12:57:28Z</time>
      </trkpt>
      <trkpt lat="45.42048" lon="4.62869">
        <ele>812</ele>
        <time>2015-07-27T12:57:37Z</time>
      </trkpt>
      <trkpt lat="45.4204" lon="4.62864">
        <ele>813</ele>
        <time>2015-07-27T12:57:40Z</time>
      </trkpt>
      <trkpt lat="45.42022" lon="4.62858">
        <ele>815</ele>
        <time>2015-07-27T12:57:47Z</time>
      </trkpt>
      <trkpt lat="45.42008" lon="4.62862">
        <ele>815</ele>
        <time>2015-07-27T12:57:52Z</time>
      </trkpt>
      <trkpt lat="45.41999" lon="4.62871">
        <ele>826</ele>
        <time>2015-07-27T12:57:57Z</time>
      </trkpt>
      <trkpt lat="45.41994" lon="4.62879">
        <ele>825</ele>
        <time>2015-07-27T12:58:00Z</time>
      </trkpt>
      <trkpt lat="45.41984" lon="4.62893">
        <ele>824</ele>
        <time>2015-07-27T12:58:06Z</time>
      </trkpt>
      <trkpt lat="45.41982" lon="4.62899">
        <ele>824</ele>
        <time>2015-07-27T12:58:08Z</time>
      </trkpt>
      <trkpt lat="45.41977" lon="4.62913">
        <ele>823</ele>
        <time>2015-07-27T12:58:13Z</time>
      </trkpt>
      <trkpt lat="45.41972" lon="4.62926">
        <ele>819</ele>
        <time>2015-07-27T12:58:18Z</time>
      </trkpt>
      <trkpt lat="45.41967" lon="4.62944">
        <ele>820</ele>
        <time>2015-07-27T12:58:23Z</time>
      </trkpt>
      <trkpt lat="45.41962" lon="4.62959">
        <ele>820</ele>
        <time>2015-07-27T12:58:28Z</time>
      </trkpt>
      <trkpt lat="45.41956" lon="4.62982">
        <ele>820</ele>
        <time>2015-07-27T12:58:36Z</time>
      </trkpt>
      <trkpt lat="45.41955" lon="4.62989">
        <ele>820</ele>
        <time>2015-07-27T12:58:38Z</time>
      </trkpt>
      <trkpt lat="45.41953" lon="4.63004">
        <ele>816</ele>
        <time>2015-07-27T12:58:43Z</time>
      </trkpt>
      <trkpt lat="45.41951" lon="4.63023">
        <ele>816</ele>
        <time>2015-07-27T12:58:48Z</time>
      </trkpt>
      <trkpt lat="45.41948" lon="4.6304">
        <ele>816</ele>
        <time>2015-07-27T12:58:53Z</time>
      </trkpt>
      <trkpt lat="45.41945" lon="4.63057">
        <ele>815</ele>
        <time>2015-07-27T12:58:58Z</time>
      </trkpt>
      <trkpt lat="45.4194" lon="4.63071">
        <ele>817</ele>
        <time>2015-07-27T12:59:03Z</time>
      </trkpt>
      <trkpt lat="45.41931" lon="4.63095">
        <ele>815</ele>
        <time>2015-07-27T12:59:12Z</time>
      </trkpt>
      <trkpt lat="45.4193" lon="4.63099">
        <ele>814</ele>
        <time>2015-07-27T12:59:13Z</time>
      </trkpt>
      <trkpt lat="45.41925" lon="4.63113">
        <ele>812</ele>
        <time>2015-07-27T12:59:18Z</time>
      </trkpt>
      <trkpt lat="45.41919" lon="4.63126">
        <ele>811</ele>
        <time>2015-07-27T12:59:23Z</time>
      </trkpt>
      <trkpt lat="45.41913" lon="4.6314">
        <ele>828</ele>
        <time>2015-07-27T12:59:28Z</time>
      </trkpt>
      <trkpt lat="45.41905" lon="4.63159">
        <ele>824</ele>
        <time>2015-07-27T12:59:34Z</time>
      </trkpt>
      <trkpt lat="45.41901" lon="4.6317">
        <ele>822</ele>
        <time>2015-07-27T12:59:38Z</time>
      </trkpt>
      <trkpt lat="45.41894" lon="4.63183">
        <ele>825</ele>
        <time>2015-07-27T12:59:43Z</time>
      </trkpt>
      <trkpt lat="45.4189" lon="4.63199">
        <ele>826</ele>
        <time>2015-07-27T12:59:48Z</time>
      </trkpt>
      <trkpt lat="45.41887" lon="4.63216">
        <ele>826</ele>
        <time>2015-07-27T12:59:53Z</time>
      </trkpt>
      <trkpt lat="45.41883" lon="4.63228">
        <ele>826</ele>
        <time>2015-07-27T12:59:58Z</time>
      </trkpt>
      <trkpt lat="45.41878" lon="4.63244">
        <ele>827</ele>
        <time>2015-07-27T13:00:03Z</time>
      </trkpt>
      <trkpt lat="45.41873" lon="4.63258">
        <ele>824</ele>
        <time>2015-07-27T13:00:08Z</time>
      </trkpt>
      <trkpt lat="45.41866" lon="4.63273">
        <ele>825</ele>
        <time>2015-07-27T13:00:13Z</time>
      </trkpt>
      <trkpt lat="45.41859" lon="4.63296">
        <ele>825</ele>
        <time>2015-07-27T13:00:21Z</time>
      </trkpt>
      <trkpt lat="45.41857" lon="4.63303">
        <ele>825</ele>
        <time>2015-07-27T13:00:23Z</time>
      </trkpt>
      <trkpt lat="45.41855" lon="4.63319">
        <ele>826</ele>
        <time>2015-07-27T13:00:28Z</time>
      </trkpt>
      <trkpt lat="45.41852" lon="4.63335">
        <ele>825</ele>
        <time>2015-07-27T13:00:34Z</time>
      </trkpt>
      <trkpt lat="45.41845" lon="4.63336">
        <ele>828</ele>
        <time>2015-07-27T13:00:39Z</time>
      </trkpt>
      <trkpt lat="45.41842" lon="4.63318">
        <ele>829</ele>
        <time>2015-07-27T13:00:48Z</time>
      </trkpt>
      <trkpt lat="45.41844" lon="4.63306">
        <ele>828</ele>
        <time>2015-07-27T13:00:52Z</time>
      </trkpt>
      <trkpt lat="45.41845" lon="4.63298">
        <ele>827</ele>
        <time>2015-07-27T13:00:55Z</time>
      </trkpt>
      <trkpt lat="45.41845" lon="4.63287">
        <ele>828</ele>
        <time>2015-07-27T13:00:59Z</time>
      </trkpt>
      <trkpt lat="45.41847" lon="4.63268">
        <ele>831</ele>
        <time>2015-07-27T13:01:06Z</time>
      </trkpt>
      <trkpt lat="45.41848" lon="4.63259">
        <ele>833</ele>
        <time>2015-07-27T13:01:09Z</time>
      </trkpt>
      <trkpt lat="45.41852" lon="4.63244">
        <ele>835</ele>
        <time>2015-07-27T13:01:14Z</time>
      </trkpt>
      <trkpt lat="45.41854" lon="4.63229">
        <ele>833</ele>
        <time>2015-07-27T13:01:19Z</time>
      </trkpt>
      <trkpt lat="45.41858" lon="4.63208">
        <ele>833</ele>
        <time>2015-07-27T13:01:26Z</time>
      </trkpt>
      <trkpt lat="45.41857" lon="4.63194">
        <ele>834</ele>
        <time>2015-07-27T13:01:30Z</time>
      </trkpt>
      <trkpt lat="45.41857" lon="4.63178">
        <ele>836</ele>
        <time>2015-07-27T13:01:34Z</time>
      </trkpt>
      <trkpt lat="45.41857" lon="4.63152">
        <ele>840</ele>
        <time>2015-07-27T13:01:42Z</time>
      </trkpt>
      <trkpt lat="45.41858" lon="4.63136">
        <ele>840</ele>
        <time>2015-07-27T13:01:48Z</time>
      </trkpt>
      <trkpt lat="45.41858" lon="4.63132">
        <ele>840</ele>
        <time>2015-07-27T13:01:49Z</time>
      </trkpt>
      <trkpt lat="45.4186" lon="4.63109">
        <ele>841</ele>
        <time>2015-07-27T13:01:57Z</time>
      </trkpt>
      <trkpt lat="45.41861" lon="4.63103">
        <ele>842</ele>
        <time>2015-07-27T13:01:59Z</time>
      </trkpt>
      <trkpt lat="45.41861" lon="4.63075">
        <ele>847</ele>
        <time>2015-07-27T13:02:08Z</time>
      </trkpt>
      <trkpt lat="45.41861" lon="4.63072">
        <ele>847</ele>
        <time>2015-07-27T13:02:09Z</time>
      </trkpt>
      <trkpt lat="45.41862" lon="4.63055">
        <ele>847</ele>
        <time>2015-07-27T13:02:14Z</time>
      </trkpt>
      <trkpt lat="45.41864" lon="4.63039">
        <ele>847</ele>
        <time>2015-07-27T13:02:19Z</time>
      </trkpt>
      <trkpt lat="45.41864" lon="4.63024">
        <ele>848</ele>
        <time>2015-07-27T13:02:24Z</time>
      </trkpt>
      <trkpt lat="45.41864" lon="4.62992">
        <ele>853</ele>
        <time>2015-07-27T13:02:34Z</time>
      </trkpt>
      <trkpt lat="45.41864" lon="4.62989">
        <ele>853</ele>
        <time>2015-07-27T13:02:35Z</time>
      </trkpt>
      <trkpt lat="45.41865" lon="4.62974">
        <ele>853</ele>
        <time>2015-07-27T13:02:40Z</time>
      </trkpt>
      <trkpt lat="45.41865" lon="4.6296">
        <ele>853</ele>
        <time>2015-07-27T13:02:45Z</time>
      </trkpt>
      <trkpt lat="45.41867" lon="4.62936">
        <ele>854</ele>
        <time>2015-07-27T13:02:52Z</time>
      </trkpt>
      <trkpt lat="45.41867" lon="4.62928">
        <ele>855</ele>
        <time>2015-07-27T13:02:55Z</time>
      </trkpt>
      <trkpt lat="45.41866" lon="4.62912">
        <ele>860</ele>
        <time>2015-07-27T13:03:00Z</time>
      </trkpt>
      <trkpt lat="45.41865" lon="4.62896">
        <ele>860</ele>
        <time>2015-07-27T13:03:05Z</time>
      </trkpt>
      <trkpt lat="45.41866" lon="4.62874">
        <ele>861</ele>
        <time>2015-07-27T13:03:13Z</time>
      </trkpt>
      <trkpt lat="45.41867" lon="4.62869">
        <ele>861</ele>
        <time>2015-07-27T13:03:15Z</time>
      </trkpt>
      <trkpt lat="45.41872" lon="4.62855">
        <ele>861</ele>
        <time>2015-07-27T13:03:20Z</time>
      </trkpt>
      <trkpt lat="45.41873" lon="4.62839">
        <ele>861</ele>
        <time>2015-07-27T13:03:25Z</time>
      </trkpt>
      <trkpt lat="45.41871" lon="4.62821">
        <ele>866</ele>
        <time>2015-07-27T13:03:30Z</time>
      </trkpt>
      <trkpt lat="45.41869" lon="4.62803">
        <ele>867</ele>
        <time>2015-07-27T13:03:37Z</time>
      </trkpt>
      <trkpt lat="45.41871" lon="4.62785">
        <ele>867</ele>
        <time>2015-07-27T13:03:43Z</time>
      </trkpt>
      <trkpt lat="45.41868" lon="4.62776">
        <ele>867</ele>
        <time>2015-07-27T13:03:46Z</time>
      </trkpt>
      <trkpt lat="45.41866" lon="4.62759">
        <ele>868</ele>
        <time>2015-07-27T13:03:50Z</time>
      </trkpt>
      <trkpt lat="45.41862" lon="4.62742">
        <ele>872</ele>
        <time>2015-07-27T13:03:56Z</time>
      </trkpt>
      <trkpt lat="45.41858" lon="4.62728">
        <ele>872</ele>
        <time>2015-07-27T13:04:00Z</time>
      </trkpt>
      <trkpt lat="45.41859" lon="4.62712">
        <ele>872</ele>
        <time>2015-07-27T13:04:05Z</time>
      </trkpt>
      <trkpt lat="45.41857" lon="4.62698">
        <ele>872</ele>
        <time>2015-07-27T13:04:10Z</time>
      </trkpt>
      <trkpt lat="45.41854" lon="4.62674">
        <ele>875</ele>
        <time>2015-07-27T13:04:19Z</time>
      </trkpt>
      <trkpt lat="45.41854" lon="4.62669">
        <ele>875</ele>
        <time>2015-07-27T13:04:21Z</time>
      </trkpt>
      <trkpt lat="45.41851" lon="4.62655">
        <ele>878</ele>
        <time>2015-07-27T13:04:25Z</time>
      </trkpt>
      <trkpt lat="45.41852" lon="4.62632">
        <ele>877</ele>
        <time>2015-07-27T13:04:33Z</time>
      </trkpt>
      <trkpt lat="45.41853" lon="4.62623">
        <ele>878</ele>
        <time>2015-07-27T13:04:36Z</time>
      </trkpt>
      <trkpt lat="45.41854" lon="4.62611">
        <ele>878</ele>
        <time>2015-07-27T13:04:40Z</time>
      </trkpt>
      <trkpt lat="45.4185" lon="4.62587">
        <ele>882</ele>
        <time>2015-07-27T13:04:48Z</time>
      </trkpt>
      <trkpt lat="45.4185" lon="4.62581">
        <ele>887</ele>
        <time>2015-07-27T13:04:50Z</time>
      </trkpt>
      <trkpt lat="45.41851" lon="4.62556">
        <ele>889</ele>
        <time>2015-07-27T13:04:58Z</time>
      </trkpt>
      <trkpt lat="45.41851" lon="4.62552">
        <ele>889</ele>
        <time>2015-07-27T13:05:00Z</time>
      </trkpt>
      <trkpt lat="45.41855" lon="4.62539">
        <ele>890</ele>
        <time>2015-07-27T13:05:05Z</time>
      </trkpt>
      <trkpt lat="45.41862" lon="4.62524">
        <ele>891</ele>
        <time>2015-07-27T13:05:11Z</time>
      </trkpt>
      <trkpt lat="45.41866" lon="4.62511">
        <ele>892</ele>
        <time>2015-07-27T13:05:16Z</time>
      </trkpt>
      <trkpt lat="45.41878" lon="4.625">
        <ele>904</ele>
        <time>2015-07-27T13:05:23Z</time>
      </trkpt>
      <trkpt lat="45.41886" lon="4.62493">
        <ele>903</ele>
        <time>2015-07-27T13:05:26Z</time>
      </trkpt>
      <trkpt lat="45.41894" lon="4.62487">
        <ele>902</ele>
        <time>2015-07-27T13:05:31Z</time>
      </trkpt>
      <trkpt lat="45.41903" lon="4.62487">
        <ele>901</ele>
        <time>2015-07-27T13:05:35Z</time>
      </trkpt>
      <trkpt lat="45.41916" lon="4.6249">
        <ele>897</ele>
        <time>2015-07-27T13:05:41Z</time>
      </trkpt>
      <trkpt lat="45.41925" lon="4.62491">
        <ele>896</ele>
        <time>2015-07-27T13:05:45Z</time>
      </trkpt>
      <trkpt lat="45.41936" lon="4.62498">
        <ele>897</ele>
        <time>2015-07-27T13:05:52Z</time>
      </trkpt>
      <trkpt lat="45.41941" lon="4.62501">
        <ele>887</ele>
        <time>2015-07-27T13:05:55Z</time>
      </trkpt>
      <trkpt lat="45.41952" lon="4.62506">
        <ele>886</ele>
        <time>2015-07-27T13:06:00Z</time>
      </trkpt>
      <trkpt lat="45.4197" lon="4.62514">
        <ele>885</ele>
        <time>2015-07-27T13:06:09Z</time>
      </trkpt>
      <trkpt lat="45.41974" lon="4.62512">
        <ele>886</ele>
        <time>2015-07-27T13:06:10Z</time>
      </trkpt>
      <trkpt lat="45.41984" lon="4.62508">
        <ele>887</ele>
        <time>2015-07-27T13:06:15Z</time>
      </trkpt>
      <trkpt lat="45.41989" lon="4.62499">
        <ele>895</ele>
        <time>2015-07-27T13:06:20Z</time>
      </trkpt>
      <trkpt lat="45.41997" lon="4.62488">
        <ele>896</ele>
        <time>2015-07-27T13:06:25Z</time>
      </trkpt>
      <trkpt lat="45.42004" lon="4.62478">
        <ele>895</ele>
        <time>2015-07-27T13:06:30Z</time>
      </trkpt>
      <trkpt lat="45.42022" lon="4.62454">
        <ele>898</ele>
        <time>2015-07-27T13:06:39Z</time>
      </trkpt>
      <trkpt lat="45.4203" lon="4.62444">
        <ele>899</ele>
        <time>2015-07-27T13:06:43Z</time>
      </trkpt>
      <trkpt lat="45.42036" lon="4.62436">
        <ele>899</ele>
        <time>2015-07-27T13:06:46Z</time>
      </trkpt>
      <trkpt lat="45.4205" lon="4.62415">
        <ele>911</ele>
        <time>2015-07-27T13:06:55Z</time>
      </trkpt>
      <trkpt lat="45.42052" lon="4.62412">
        <ele>911</ele>
        <time>2015-07-27T13:06:56Z</time>
      </trkpt>
      <trkpt lat="45.42057" lon="4.62404">
        <ele>911</ele>
        <time>2015-07-27T13:07:00Z</time>
      </trkpt>
      <trkpt lat="45.42065" lon="4.62395">
        <ele>911</ele>
        <time>2015-07-27T13:07:05Z</time>
      </trkpt>
      <trkpt lat="45.4208" lon="4.62377">
        <ele>913</ele>
        <time>2015-07-27T13:07:14Z</time>
      </trkpt>
      <trkpt lat="45.42081" lon="4.62376">
        <ele>913</ele>
        <time>2015-07-27T13:07:15Z</time>
      </trkpt>
      <trkpt lat="45.42093" lon="4.62351">
        <ele>907</ele>
        <time>2015-07-27T13:07:24Z</time>
      </trkpt>
      <trkpt lat="45.42094" lon="4.62349">
        <ele>908</ele>
        <time>2015-07-27T13:07:25Z</time>
      </trkpt>
      <trkpt lat="45.421" lon="4.6234">
        <ele>908</ele>
        <time>2015-07-27T13:07:30Z</time>
      </trkpt>
      <trkpt lat="45.42112" lon="4.6232">
        <ele>916</ele>
        <time>2015-07-27T13:07:39Z</time>
      </trkpt>
      <trkpt lat="45.42115" lon="4.62314">
        <ele>916</ele>
        <time>2015-07-27T13:07:41Z</time>
      </trkpt>
      <trkpt lat="45.42124" lon="4.62304">
        <ele>916</ele>
        <time>2015-07-27T13:07:46Z</time>
      </trkpt>
      <trkpt lat="45.42133" lon="4.62293">
        <ele>916</ele>
        <time>2015-07-27T13:07:51Z</time>
      </trkpt>
      <trkpt lat="45.42138" lon="4.62287">
        <ele>916</ele>
        <time>2015-07-27T13:07:55Z</time>
      </trkpt>
      <trkpt lat="45.42147" lon="4.62274">
        <ele>917</ele>
        <time>2015-07-27T13:08:00Z</time>
      </trkpt>
      <trkpt lat="45.42155" lon="4.62259">
        <ele>917</ele>
        <time>2015-07-27T13:08:05Z</time>
      </trkpt>
      <trkpt lat="45.42162" lon="4.62236">
        <ele>924</ele>
        <time>2015-07-27T13:08:13Z</time>
      </trkpt>
      <trkpt lat="45.42166" lon="4.62233">
        <ele>925</ele>
        <time>2015-07-27T13:08:15Z</time>
      </trkpt>
      <trkpt lat="45.42171" lon="4.62219">
        <ele>917</ele>
        <time>2015-07-27T13:08:20Z</time>
      </trkpt>
      <trkpt lat="45.42178" lon="4.62207">
        <ele>918</ele>
        <time>2015-07-27T13:08:25Z</time>
      </trkpt>
      <trkpt lat="45.42188" lon="4.62197">
        <ele>918</ele>
        <time>2015-07-27T13:08:30Z</time>
      </trkpt>
      <trkpt lat="45.42192" lon="4.62183">
        <ele>919</ele>
        <time>2015-07-27T13:08:35Z</time>
      </trkpt>
      <trkpt lat="45.42203" lon="4.62169">
        <ele>918</ele>
        <time>2015-07-27T13:08:41Z</time>
      </trkpt>
      <trkpt lat="45.42209" lon="4.6216">
        <ele>928</ele>
        <time>2015-07-27T13:08:45Z</time>
      </trkpt>
      <trkpt lat="45.42218" lon="4.62148">
        <ele>927</ele>
        <time>2015-07-27T13:08:51Z</time>
      </trkpt>
      <trkpt lat="45.42231" lon="4.62129">
        <ele>927</ele>
        <time>2015-07-27T13:08:59Z</time>
      </trkpt>
      <trkpt lat="45.42232" lon="4.62128">
        <ele>927</ele>
        <time>2015-07-27T13:09:00Z</time>
      </trkpt>
      <trkpt lat="45.4224" lon="4.6211">
        <ele>929</ele>
        <time>2015-07-27T13:09:06Z</time>
      </trkpt>
      <trkpt lat="45.42244" lon="4.62096">
        <ele>929</ele>
        <time>2015-07-27T13:09:10Z</time>
      </trkpt>
      <trkpt lat="45.42255" lon="4.62069">
        <ele>927</ele>
        <time>2015-07-27T13:09:19Z</time>
      </trkpt>
      <trkpt lat="45.42261" lon="4.62058">
        <ele>927</ele>
        <time>2015-07-27T13:09:23Z</time>
      </trkpt>
      <trkpt lat="45.42264" lon="4.62053">
        <ele>927</ele>
        <time>2015-07-27T13:09:25Z</time>
      </trkpt>
      <trkpt lat="45.42274" lon="4.62039">
        <ele>928</ele>
        <time>2015-07-27T13:09:32Z</time>
      </trkpt>
      <trkpt lat="45.42286" lon="4.62025">
        <ele>928</ele>
        <time>2015-07-27T13:09:39Z</time>
      </trkpt>
      <trkpt lat="45.42287" lon="4.62023">
        <ele>928</ele>
        <time>2015-07-27T13:09:40Z</time>
      </trkpt>
      <trkpt lat="45.42295" lon="4.62013">
        <ele>927</ele>
        <time>2015-07-27T13:09:45Z</time>
      </trkpt>
      <trkpt lat="45.42304" lon="4.62003">
        <ele>926</ele>
        <time>2015-07-27T13:09:50Z</time>
      </trkpt>
      <trkpt lat="45.42315" lon="4.61994">
        <ele>933</ele>
        <time>2015-07-27T13:09:56Z</time>
      </trkpt>
      <trkpt lat="45.42321" lon="4.61986">
        <ele>933</ele>
        <time>2015-07-27T13:10:00Z</time>
      </trkpt>
      <trkpt lat="45.4233" lon="4.61976">
        <ele>934</ele>
        <time>2015-07-27T13:10:05Z</time>
      </trkpt>
      <trkpt lat="45.42337" lon="4.61965">
        <ele>926</ele>
        <time>2015-07-27T13:10:10Z</time>
      </trkpt>
      <trkpt lat="45.4235" lon="4.61952">
        <ele>927</ele>
        <time>2015-07-27T13:10:17Z</time>
      </trkpt>
      <trkpt lat="45.42355" lon="4.61944">
        <ele>928</ele>
        <time>2015-07-27T13:10:20Z</time>
      </trkpt>
      <trkpt lat="45.42362" lon="4.61935">
        <ele>928</ele>
        <time>2015-07-27T13:10:25Z</time>
      </trkpt>
      <trkpt lat="45.42374" lon="4.61925">
        <ele>928</ele>
        <time>2015-07-27T13:10:31Z</time>
      </trkpt>
      <trkpt lat="45.42379" lon="4.61917">
        <ele>928</ele>
        <time>2015-07-27T13:10:35Z</time>
      </trkpt>
      <trkpt lat="45.42386" lon="4.61907">
        <ele>938</ele>
        <time>2015-07-27T13:10:40Z</time>
      </trkpt>
      <trkpt lat="45.42394" lon="4.61896">
        <ele>938</ele>
        <time>2015-07-27T13:10:45Z</time>
      </trkpt>
      <trkpt lat="45.42404" lon="4.61882">
        <ele>940</ele>
        <time>2015-07-27T13:10:50Z</time>
      </trkpt>
      <trkpt lat="45.42416" lon="4.6187">
        <ele>941</ele>
        <time>2015-07-27T13:10:57Z</time>
      </trkpt>
      <trkpt lat="45.42427" lon="4.6186">
        <ele>938</ele>
        <time>2015-07-27T13:11:03Z</time>
      </trkpt>
      <trkpt lat="45.42431" lon="4.61855">
        <ele>939</ele>
        <time>2015-07-27T13:11:05Z</time>
      </trkpt>
      <trkpt lat="45.4244" lon="4.61845">
        <ele>939</ele>
        <time>2015-07-27T13:11:10Z</time>
      </trkpt>
      <trkpt lat="45.42449" lon="4.61837">
        <ele>939</ele>
        <time>2015-07-27T13:11:15Z</time>
      </trkpt>
      <trkpt lat="45.42458" lon="4.6183">
        <ele>946</ele>
        <time>2015-07-27T13:11:20Z</time>
      </trkpt>
      <trkpt lat="45.42466" lon="4.61819">
        <ele>946</ele>
        <time>2015-07-27T13:11:25Z</time>
      </trkpt>
      <trkpt lat="45.42483" lon="4.61811">
        <ele>945</ele>
        <time>2015-07-27T13:11:33Z</time>
      </trkpt>
      <trkpt lat="45.42486" lon="4.61808">
        <ele>945</ele>
        <time>2015-07-27T13:11:35Z</time>
      </trkpt>
      <trkpt lat="45.42494" lon="4.61802">
        <ele>945</ele>
        <time>2015-07-27T13:11:40Z</time>
      </trkpt>
      <trkpt lat="45.42503" lon="4.61798">
        <ele>948</ele>
        <time>2015-07-27T13:11:45Z</time>
      </trkpt>
      <trkpt lat="45.42513" lon="4.61794">
        <ele>948</ele>
        <time>2015-07-27T13:11:50Z</time>
      </trkpt>
      <trkpt lat="45.42521" lon="4.61787">
        <ele>949</ele>
        <time>2015-07-27T13:11:55Z</time>
      </trkpt>
      <trkpt lat="45.4253" lon="4.61781">
        <ele>950</ele>
        <time>2015-07-27T13:12:00Z</time>
      </trkpt>
      <trkpt lat="45.42531" lon="4.61765">
        <ele>950</ele>
        <time>2015-07-27T13:12:05Z</time>
      </trkpt>
      <trkpt lat="45.42523" lon="4.61748">
        <ele>949</ele>
        <time>2015-07-27T13:12:10Z</time>
      </trkpt>
      <trkpt lat="45.42509" lon="4.6174">
        <ele>948</ele>
        <time>2015-07-27T13:12:15Z</time>
      </trkpt>
      <trkpt lat="45.42495" lon="4.6174">
        <ele>948</ele>
        <time>2015-07-27T13:12:20Z</time>
      </trkpt>
      <trkpt lat="45.42481" lon="4.61748">
        <ele>949</ele>
        <time>2015-07-27T13:12:25Z</time>
      </trkpt>
      <trkpt lat="45.42467" lon="4.61754">
        <ele>948</ele>
        <time>2015-07-27T13:12:30Z</time>
      </trkpt>
      <trkpt lat="45.42454" lon="4.61759">
        <ele>949</ele>
        <time>2015-07-27T13:12:35Z</time>
      </trkpt>
      <trkpt lat="45.42443" lon="4.61765">
        <ele>949</ele>
        <time>2015-07-27T13:12:40Z</time>
      </trkpt>
      <trkpt lat="45.42436" lon="4.6177">
        <ele>950</ele>
        <time>2015-07-27T13:12:45Z</time>
      </trkpt>
      <trkpt lat="45.42417" lon="4.61779">
        <ele>950</ele>
        <time>2015-07-27T13:12:53Z</time>
      </trkpt>
      <trkpt lat="45.42409" lon="4.61783">
        <ele>956</ele>
        <time>2015-07-27T13:12:56Z</time>
      </trkpt>
      <trkpt lat="45.42398" lon="4.61791">
        <ele>956</ele>
        <time>2015-07-27T13:13:01Z</time>
      </trkpt>
      <trkpt lat="45.4239" lon="4.61796">
        <ele>956</ele>
        <time>2015-07-27T13:13:05Z</time>
      </trkpt>
      <trkpt lat="45.4238" lon="4.61803">
        <ele>957</ele>
        <time>2015-07-27T13:13:10Z</time>
      </trkpt>
      <trkpt lat="45.42369" lon="4.61807">
        <ele>957</ele>
        <time>2015-07-27T13:13:15Z</time>
      </trkpt>
      <trkpt lat="45.4236" lon="4.61811">
        <ele>958</ele>
        <time>2015-07-27T13:13:20Z</time>
      </trkpt>
      <trkpt lat="45.42353" lon="4.61815">
        <ele>958</ele>
        <time>2015-07-27T13:13:24Z</time>
      </trkpt>
      <trkpt lat="45.42334" lon="4.61821">
        <ele>958</ele>
        <time>2015-07-27T13:13:31Z</time>
      </trkpt>
      <trkpt lat="45.42322" lon="4.6182">
        <ele>967</ele>
        <time>2015-07-27T13:13:34Z</time>
      </trkpt>
      <trkpt lat="45.42313" lon="4.61826">
        <ele>968</ele>
        <time>2015-07-27T13:13:39Z</time>
      </trkpt>
      <trkpt lat="45.423" lon="4.61834">
        <ele>961</ele>
        <time>2015-07-27T13:13:44Z</time>
      </trkpt>
      <trkpt lat="45.42292" lon="4.61841">
        <ele>962</ele>
        <time>2015-07-27T13:13:49Z</time>
      </trkpt>
      <trkpt lat="45.42272" lon="4.61854">
        <ele>964</ele>
        <time>2015-07-27T13:13:58Z</time>
      </trkpt>
      <trkpt lat="45.42268" lon="4.61857">
        <ele>964</ele>
        <time>2015-07-27T13:14:00Z</time>
      </trkpt>
      <trkpt lat="45.42258" lon="4.61863">
        <ele>964</ele>
        <time>2015-07-27T13:14:04Z</time>
      </trkpt>
      <trkpt lat="45.42246" lon="4.61872">
        <ele>976</ele>
        <time>2015-07-27T13:14:11Z</time>
      </trkpt>
      <trkpt lat="45.4224" lon="4.61876">
        <ele>976</ele>
        <time>2015-07-27T13:14:14Z</time>
      </trkpt>
      <trkpt lat="45.42232" lon="4.61885">
        <ele>975</ele>
        <time>2015-07-27T13:14:19Z</time>
      </trkpt>
      <trkpt lat="45.4222" lon="4.61894">
        <ele>976</ele>
        <time>2015-07-27T13:14:25Z</time>
      </trkpt>
      <trkpt lat="45.4221" lon="4.61901">
        <ele>977</ele>
        <time>2015-07-27T13:14:29Z</time>
      </trkpt>
      <trkpt lat="45.42202" lon="4.6191">
        <ele>978</ele>
        <time>2015-07-27T13:14:34Z</time>
      </trkpt>
      <trkpt lat="45.42196" lon="4.61918">
        <ele>969</ele>
        <time>2015-07-27T13:14:38Z</time>
      </trkpt>
      <trkpt lat="45.42185" lon="4.61928">
        <ele>971</ele>
        <time>2015-07-27T13:14:44Z</time>
      </trkpt>
      <trkpt lat="45.42179" lon="4.61934">
        <ele>972</ele>
        <time>2015-07-27T13:14:48Z</time>
      </trkpt>
      <trkpt lat="45.42165" lon="4.61939">
        <ele>983</ele>
        <time>2015-07-27T13:14:53Z</time>
      </trkpt>
      <trkpt lat="45.42154" lon="4.61945">
        <ele>984</ele>
        <time>2015-07-27T13:14:58Z</time>
      </trkpt>
      <trkpt lat="45.42141" lon="4.61954">
        <ele>984</ele>
        <time>2015-07-27T13:15:04Z</time>
      </trkpt>
      <trkpt lat="45.42135" lon="4.61962">
        <ele>984</ele>
        <time>2015-07-27T13:15:08Z</time>
      </trkpt>
      <trkpt lat="45.42124" lon="4.61968">
        <ele>985</ele>
        <time>2015-07-27T13:15:13Z</time>
      </trkpt>
      <trkpt lat="45.42109" lon="4.61979">
        <ele>985</ele>
        <time>2015-07-27T13:15:21Z</time>
      </trkpt>
      <trkpt lat="45.42093" lon="4.61984">
        <ele>985</ele>
        <time>2015-07-27T13:15:27Z</time>
      </trkpt>
      <trkpt lat="45.42091" lon="4.61985">
        <ele>985</ele>
        <time>2015-07-27T13:15:28Z</time>
      </trkpt>
      <trkpt lat="45.42078" lon="4.6199">
        <ele>994</ele>
        <time>2015-07-27T13:15:34Z</time>
      </trkpt>
      <trkpt lat="45.4207" lon="4.61994">
        <ele>997</ele>
        <time>2015-07-27T13:15:38Z</time>
      </trkpt>
      <trkpt lat="45.42059" lon="4.61999">
        <ele>1002</ele>
        <time>2015-07-27T13:15:43Z</time>
      </trkpt>
      <trkpt lat="45.42051" lon="4.62003">
        <ele>990</ele>
        <time>2015-07-27T13:15:47Z</time>
      </trkpt>
      <trkpt lat="45.42038" lon="4.62007">
        <ele>993</ele>
        <time>2015-07-27T13:15:52Z</time>
      </trkpt>
      <trkpt lat="45.42029" lon="4.62013">
        <ele>996</ele>
        <time>2015-07-27T13:15:57Z</time>
      </trkpt>
      <trkpt lat="45.42011" lon="4.62021">
        <ele>999</ele>
        <time>2015-07-27T13:16:05Z</time>
      </trkpt>
      <trkpt lat="45.42007" lon="4.62024">
        <ele>999</ele>
        <time>2015-07-27T13:16:07Z</time>
      </trkpt>
      <trkpt lat="45.41997" lon="4.62029">
        <ele>1011</ele>
        <time>2015-07-27T13:16:13Z</time>
      </trkpt>
      <trkpt lat="45.41988" lon="4.62035">
        <ele>1010</ele>
        <time>2015-07-27T13:16:18Z</time>
      </trkpt>
      <trkpt lat="45.41978" lon="4.62039">
        <ele>1010</ele>
        <time>2015-07-27T13:16:22Z</time>
      </trkpt>
      <trkpt lat="45.41968" lon="4.62046">
        <ele>1010</ele>
        <time>2015-07-27T13:16:27Z</time>
      </trkpt>
      <trkpt lat="45.41959" lon="4.62052">
        <ele>1010</ele>
        <time>2015-07-27T13:16:32Z</time>
      </trkpt>
      <trkpt lat="45.4195" lon="4.62056">
        <ele>1010</ele>
        <time>2015-07-27T13:16:37Z</time>
      </trkpt>
      <trkpt lat="45.41941" lon="4.62059">
        <ele>1010</ele>
        <time>2015-07-27T13:16:42Z</time>
      </trkpt>
      <trkpt lat="45.41929" lon="4.62059">
        <ele>1010</ele>
        <time>2015-07-27T13:16:47Z</time>
      </trkpt>
      <trkpt lat="45.41916" lon="4.62057">
        <ele>1016</ele>
        <time>2015-07-27T13:16:53Z</time>
      </trkpt>
      <trkpt lat="45.41907" lon="4.62057">
        <ele>1016</ele>
        <time>2015-07-27T13:16:57Z</time>
      </trkpt>
      <trkpt lat="45.41891" lon="4.62053">
        <ele>1018</ele>
        <time>2015-07-27T13:17:02Z</time>
      </trkpt>
      <trkpt lat="45.41877" lon="4.62048">
        <ele>1019</ele>
        <time>2015-07-27T13:17:08Z</time>
      </trkpt>
      <trkpt lat="45.41871" lon="4.62047">
        <ele>1019</ele>
        <time>2015-07-27T13:17:12Z</time>
      </trkpt>
      <trkpt lat="45.41861" lon="4.62043">
        <ele>1020</ele>
        <time>2015-07-27T13:17:17Z</time>
      </trkpt>
      <trkpt lat="45.41842" lon="4.62037">
        <ele>1022</ele>
        <time>2015-07-27T13:17:24Z</time>
      </trkpt>
      <trkpt lat="45.41834" lon="4.62034">
        <ele>1023</ele>
        <time>2015-07-27T13:17:29Z</time>
      </trkpt>
      <trkpt lat="45.41825" lon="4.62032">
        <ele>1025</ele>
        <time>2015-07-27T13:17:32Z</time>
      </trkpt>
      <trkpt lat="45.41815" lon="4.62032">
        <ele>1025</ele>
        <time>2015-07-27T13:17:37Z</time>
      </trkpt>
      <trkpt lat="45.41807" lon="4.62031">
        <ele>1024</ele>
        <time>2015-07-27T13:17:42Z</time>
      </trkpt>
      <trkpt lat="45.41794" lon="4.62029">
        <ele>1025</ele>
        <time>2015-07-27T13:17:47Z</time>
      </trkpt>
      <trkpt lat="45.4177" lon="4.62027">
        <ele>1026</ele>
        <time>2015-07-27T13:17:55Z</time>
      </trkpt>
      <trkpt lat="45.41765" lon="4.62029">
        <ele>1026</ele>
        <time>2015-07-27T13:17:57Z</time>
      </trkpt>
      <trkpt lat="45.41759" lon="4.62032">
        <ele>1025</ele>
        <time>2015-07-27T13:18:02Z</time>
      </trkpt>
      <trkpt lat="45.41746" lon="4.62034">
        <ele>1029</ele>
        <time>2015-07-27T13:18:07Z</time>
      </trkpt>
      <trkpt lat="45.41734" lon="4.62036">
        <ele>1029</ele>
        <time>2015-07-27T13:18:12Z</time>
      </trkpt>
      <trkpt lat="45.4172" lon="4.62035">
        <ele>1029</ele>
        <time>2015-07-27T13:18:17Z</time>
      </trkpt>
      <trkpt lat="45.41709" lon="4.62035">
        <ele>1030</ele>
        <time>2015-07-27T13:18:25Z</time>
      </trkpt>
      <trkpt lat="45.41709" lon="4.62035">
        <ele>1030</ele>
        <time>2015-07-27T13:18:27Z</time>
      </trkpt>
      <trkpt lat="45.41701" lon="4.62034">
        <ele>1030</ele>
        <time>2015-07-27T13:18:30Z</time>
      </trkpt>
      <trkpt lat="45.41672" lon="4.62034">
        <ele>1032</ele>
        <time>2015-07-27T13:18:38Z</time>
      </trkpt>
      <trkpt lat="45.41669" lon="4.62036">
        <ele>1032</ele>
        <time>2015-07-27T13:18:40Z</time>
      </trkpt>
      <trkpt lat="45.41656" lon="4.62038">
        <ele>1041</ele>
        <time>2015-07-27T13:18:45Z</time>
      </trkpt>
      <trkpt lat="45.41644" lon="4.62041">
        <ele>1041</ele>
        <time>2015-07-27T13:18:50Z</time>
      </trkpt>
      <trkpt lat="45.41634" lon="4.62048">
        <ele>1041</ele>
        <time>2015-07-27T13:18:55Z</time>
      </trkpt>
      <trkpt lat="45.41608" lon="4.62057">
        <ele>1043</ele>
        <time>2015-07-27T13:19:04Z</time>
      </trkpt>
      <trkpt lat="45.41606" lon="4.62058">
        <ele>1043</ele>
        <time>2015-07-27T13:19:05Z</time>
      </trkpt>
      <trkpt lat="45.41597" lon="4.62067">
        <ele>1042</ele>
        <time>2015-07-27T13:19:10Z</time>
      </trkpt>
      <trkpt lat="45.4158" lon="4.62076">
        <ele>1047</ele>
        <time>2015-07-27T13:19:19Z</time>
      </trkpt>
      <trkpt lat="45.41579" lon="4.62078">
        <ele>1046</ele>
        <time>2015-07-27T13:19:20Z</time>
      </trkpt>
      <trkpt lat="45.41568" lon="4.6209">
        <ele>1042</ele>
        <time>2015-07-27T13:19:26Z</time>
      </trkpt>
      <trkpt lat="45.41563" lon="4.62096">
        <ele>1042</ele>
        <time>2015-07-27T13:19:30Z</time>
      </trkpt>
      <trkpt lat="45.41546" lon="4.62106">
        <ele>1043</ele>
        <time>2015-07-27T13:19:36Z</time>
      </trkpt>
      <trkpt lat="45.41531" lon="4.62123">
        <ele>1042</ele>
        <time>2015-07-27T13:19:43Z</time>
      </trkpt>
      <trkpt lat="45.41525" lon="4.62129">
        <ele>1042</ele>
        <time>2015-07-27T13:19:47Z</time>
      </trkpt>
      <trkpt lat="45.4152" lon="4.62133">
        <ele>1042</ele>
        <time>2015-07-27T13:19:50Z</time>
      </trkpt>
      <trkpt lat="45.41507" lon="4.62144">
        <ele>1042</ele>
        <time>2015-07-27T13:19:56Z</time>
      </trkpt>
      <trkpt lat="45.41494" lon="4.62157">
        <ele>1047</ele>
        <time>2015-07-27T13:20:02Z</time>
      </trkpt>
      <trkpt lat="45.41486" lon="4.62162">
        <ele>1048</ele>
        <time>2015-07-27T13:20:05Z</time>
      </trkpt>
      <trkpt lat="45.41478" lon="4.62172">
        <ele>1042</ele>
        <time>2015-07-27T13:20:10Z</time>
      </trkpt>
      <trkpt lat="45.41464" lon="4.62187">
        <ele>1042</ele>
        <time>2015-07-27T13:20:18Z</time>
      </trkpt>
      <trkpt lat="45.41459" lon="4.6219">
        <ele>1043</ele>
        <time>2015-07-27T13:20:20Z</time>
      </trkpt>
      <trkpt lat="45.41445" lon="4.62195">
        <ele>1044</ele>
        <time>2015-07-27T13:20:25Z</time>
      </trkpt>
      <trkpt lat="45.41428" lon="4.62211">
        <ele>1043</ele>
        <time>2015-07-27T13:20:34Z</time>
      </trkpt>
      <trkpt lat="45.41425" lon="4.62212">
        <ele>1043</ele>
        <time>2015-07-27T13:20:35Z</time>
      </trkpt>
      <trkpt lat="45.41415" lon="4.62221">
        <ele>1052</ele>
        <time>2015-07-27T13:20:40Z</time>
      </trkpt>
      <trkpt lat="45.41398" lon="4.62233">
        <ele>1051</ele>
        <time>2015-07-27T13:20:49Z</time>
      </trkpt>
      <trkpt lat="45.41397" lon="4.62234">
        <ele>1051</ele>
        <time>2015-07-27T13:20:50Z</time>
      </trkpt>
      <trkpt lat="45.41386" lon="4.62242">
        <ele>1053</ele>
        <time>2015-07-27T13:20:55Z</time>
      </trkpt>
      <trkpt lat="45.41374" lon="4.62251">
        <ele>1045</ele>
        <time>2015-07-27T13:21:00Z</time>
      </trkpt>
      <trkpt lat="45.41365" lon="4.62261">
        <ele>1046</ele>
        <time>2015-07-27T13:21:05Z</time>
      </trkpt>
      <trkpt lat="45.41357" lon="4.62273">
        <ele>1046</ele>
        <time>2015-07-27T13:21:10Z</time>
      </trkpt>
      <trkpt lat="45.41345" lon="4.62289">
        <ele>1046</ele>
        <time>2015-07-27T13:21:17Z</time>
      </trkpt>
      <trkpt lat="45.41337" lon="4.62297">
        <ele>1045</ele>
        <time>2015-07-27T13:21:21Z</time>
      </trkpt>
      <trkpt lat="45.41328" lon="4.62309">
        <ele>1052</ele>
        <time>2015-07-27T13:21:26Z</time>
      </trkpt>
      <trkpt lat="45.41316" lon="4.62327">
        <ele>1051</ele>
        <time>2015-07-27T13:21:34Z</time>
      </trkpt>
      <trkpt lat="45.41305" lon="4.62343">
        <ele>1048</ele>
        <time>2015-07-27T13:21:40Z</time>
      </trkpt>
      <trkpt lat="45.41303" lon="4.62345">
        <ele>1048</ele>
        <time>2015-07-27T13:21:41Z</time>
      </trkpt>
      <trkpt lat="45.41294" lon="4.62355">
        <ele>1049</ele>
        <time>2015-07-27T13:21:46Z</time>
      </trkpt>
      <trkpt lat="45.41285" lon="4.6236">
        <ele>1049</ele>
        <time>2015-07-27T13:21:51Z</time>
      </trkpt>
      <trkpt lat="45.41273" lon="4.62359">
        <ele>1050</ele>
        <time>2015-07-27T13:21:56Z</time>
      </trkpt>
      <trkpt lat="45.41264" lon="4.62353">
        <ele>1051</ele>
        <time>2015-07-27T13:22:01Z</time>
      </trkpt>
      <trkpt lat="45.41257" lon="4.6234">
        <ele>1053</ele>
        <time>2015-07-27T13:22:06Z</time>
      </trkpt>
      <trkpt lat="45.4125" lon="4.6233">
        <ele>1055</ele>
        <time>2015-07-27T13:22:11Z</time>
      </trkpt>
      <trkpt lat="45.41244" lon="4.62319">
        <ele>1057</ele>
        <time>2015-07-27T13:22:16Z</time>
      </trkpt>
      <trkpt lat="45.41238" lon="4.62307">
        <ele>1058</ele>
        <time>2015-07-27T13:22:21Z</time>
      </trkpt>
      <trkpt lat="45.41233" lon="4.62297">
        <ele>1059</ele>
        <time>2015-07-27T13:22:26Z</time>
      </trkpt>
      <trkpt lat="45.41227" lon="4.62288">
        <ele>1060</ele>
        <time>2015-07-27T13:22:31Z</time>
      </trkpt>
      <trkpt lat="45.41222" lon="4.62277">
        <ele>1061</ele>
        <time>2015-07-27T13:22:36Z</time>
      </trkpt>
      <trkpt lat="45.41215" lon="4.62267">
        <ele>1061</ele>
        <time>2015-07-27T13:22:41Z</time>
      </trkpt>
      <trkpt lat="45.41208" lon="4.62256">
        <ele>1062</ele>
        <time>2015-07-27T13:22:46Z</time>
      </trkpt>
      <trkpt lat="45.41199" lon="4.62242">
        <ele>1072</ele>
        <time>2015-07-27T13:22:51Z</time>
      </trkpt>
      <trkpt lat="45.41188" lon="4.62229">
        <ele>1072</ele>
        <time>2015-07-27T13:22:57Z</time>
      </trkpt>
      <trkpt lat="45.41184" lon="4.62216">
        <ele>1074</ele>
        <time>2015-07-27T13:23:04Z</time>
      </trkpt>
      <trkpt lat="45.41172" lon="4.622">
        <ele>1076</ele>
        <time>2015-07-27T13:23:10Z</time>
      </trkpt>
      <trkpt lat="45.41169" lon="4.62197">
        <ele>1077</ele>
        <time>2015-07-27T13:23:11Z</time>
      </trkpt>
      <trkpt lat="45.41164" lon="4.62182">
        <ele>1076</ele>
        <time>2015-07-27T13:23:19Z</time>
      </trkpt>
      <trkpt lat="45.41161" lon="4.62177">
        <ele>1077</ele>
        <time>2015-07-27T13:23:21Z</time>
      </trkpt>
      <trkpt lat="45.41155" lon="4.62166">
        <ele>1085</ele>
        <time>2015-07-27T13:23:26Z</time>
      </trkpt>
      <trkpt lat="45.41148" lon="4.62151">
        <ele>1087</ele>
        <time>2015-07-27T13:23:32Z</time>
      </trkpt>
      <trkpt lat="45.41142" lon="4.62144">
        <ele>1087</ele>
        <time>2015-07-27T13:23:36Z</time>
      </trkpt>
      <trkpt lat="45.41133" lon="4.62136">
        <ele>1088</ele>
        <time>2015-07-27T13:23:41Z</time>
      </trkpt>
      <trkpt lat="45.41124" lon="4.62128">
        <ele>1089</ele>
        <time>2015-07-27T13:23:46Z</time>
      </trkpt>
      <trkpt lat="45.41119" lon="4.62123">
        <ele>1089</ele>
        <time>2015-07-27T13:23:51Z</time>
      </trkpt>
      <trkpt lat="45.41111" lon="4.62115">
        <ele>1090</ele>
        <time>2015-07-27T13:23:56Z</time>
      </trkpt>
      <trkpt lat="45.41102" lon="4.62108">
        <ele>1090</ele>
        <time>2015-07-27T13:24:01Z</time>
      </trkpt>
      <trkpt lat="45.41092" lon="4.621">
        <ele>1092</ele>
        <time>2015-07-27T13:24:06Z</time>
      </trkpt>
      <trkpt lat="45.41082" lon="4.62093">
        <ele>1088</ele>
        <time>2015-07-27T13:24:11Z</time>
      </trkpt>
      <trkpt lat="45.41074" lon="4.62086">
        <ele>1089</ele>
        <time>2015-07-27T13:24:16Z</time>
      </trkpt>
      <trkpt lat="45.41064" lon="4.62078">
        <ele>1097</ele>
        <time>2015-07-27T13:24:21Z</time>
      </trkpt>
      <trkpt lat="45.41055" lon="4.62068">
        <ele>1097</ele>
        <time>2015-07-27T13:24:26Z</time>
      </trkpt>
      <trkpt lat="45.41046" lon="4.62059">
        <ele>1098</ele>
        <time>2015-07-27T13:24:31Z</time>
      </trkpt>
      <trkpt lat="45.41037" lon="4.62048">
        <ele>1098</ele>
        <time>2015-07-27T13:24:36Z</time>
      </trkpt>
      <trkpt lat="45.41027" lon="4.62038">
        <ele>1099</ele>
        <time>2015-07-27T13:24:42Z</time>
      </trkpt>
      <trkpt lat="45.4101" lon="4.62025">
        <ele>1100</ele>
        <time>2015-07-27T13:24:50Z</time>
      </trkpt>
      <trkpt lat="45.41001" lon="4.62018">
        <ele>1102</ele>
        <time>2015-07-27T13:24:54Z</time>
      </trkpt>
      <trkpt lat="45.40998" lon="4.62014">
        <ele>1097</ele>
        <time>2015-07-27T13:24:56Z</time>
      </trkpt>
      <trkpt lat="45.40987" lon="4.62002">
        <ele>1098</ele>
        <time>2015-07-27T13:25:02Z</time>
      </trkpt>
      <trkpt lat="45.40975" lon="4.61991">
        <ele>1108</ele>
        <time>2015-07-27T13:25:09Z</time>
      </trkpt>
      <trkpt lat="45.40972" lon="4.61987">
        <ele>1108</ele>
        <time>2015-07-27T13:25:11Z</time>
      </trkpt>
      <trkpt lat="45.40959" lon="4.61978">
        <ele>1108</ele>
        <time>2015-07-27T13:25:20Z</time>
      </trkpt>
      <trkpt lat="45.40957" lon="4.61976">
        <ele>1108</ele>
        <time>2015-07-27T13:25:21Z</time>
      </trkpt>
      <trkpt lat="45.40949" lon="4.61968">
        <ele>1108</ele>
        <time>2015-07-27T13:25:26Z</time>
      </trkpt>
      <trkpt lat="45.40935" lon="4.61957">
        <ele>1109</ele>
        <time>2015-07-27T13:25:34Z</time>
      </trkpt>
      <trkpt lat="45.40931" lon="4.61954">
        <ele>1109</ele>
        <time>2015-07-27T13:25:36Z</time>
      </trkpt>
      <trkpt lat="45.40918" lon="4.61944">
        <ele>1111</ele>
        <time>2015-07-27T13:25:45Z</time>
      </trkpt>
      <trkpt lat="45.40916" lon="4.61942">
        <ele>1104</ele>
        <time>2015-07-27T13:25:46Z</time>
      </trkpt>
      <trkpt lat="45.40907" lon="4.61936">
        <ele>1105</ele>
        <time>2015-07-27T13:25:51Z</time>
      </trkpt>
      <trkpt lat="45.40896" lon="4.61929">
        <ele>1104</ele>
        <time>2015-07-27T13:25:56Z</time>
      </trkpt>
      <trkpt lat="45.40886" lon="4.61918">
        <ele>1103</ele>
        <time>2015-07-27T13:26:02Z</time>
      </trkpt>
      <trkpt lat="45.40881" lon="4.61912">
        <ele>1117</ele>
        <time>2015-07-27T13:26:06Z</time>
      </trkpt>
      <trkpt lat="45.40872" lon="4.61907">
        <ele>1117</ele>
        <time>2015-07-27T13:26:11Z</time>
      </trkpt>
      <trkpt lat="45.40862" lon="4.61901">
        <ele>1116</ele>
        <time>2015-07-27T13:26:16Z</time>
      </trkpt>
      <trkpt lat="45.40854" lon="4.61894">
        <ele>1116</ele>
        <time>2015-07-27T13:26:21Z</time>
      </trkpt>
      <trkpt lat="45.40836" lon="4.61884">
        <ele>1117</ele>
        <time>2015-07-27T13:26:30Z</time>
      </trkpt>
      <trkpt lat="45.40833" lon="4.61883">
        <ele>1112</ele>
        <time>2015-07-27T13:26:31Z</time>
      </trkpt>
      <trkpt lat="45.40824" lon="4.61881">
        <ele>1113</ele>
        <time>2015-07-27T13:26:36Z</time>
      </trkpt>
      <trkpt lat="45.40808" lon="4.61867">
        <ele>1116</ele>
        <time>2015-07-27T13:26:45Z</time>
      </trkpt>
      <trkpt lat="45.40806" lon="4.61863">
        <ele>1116</ele>
        <time>2015-07-27T13:26:47Z</time>
      </trkpt>
      <trkpt lat="45.40791" lon="4.61854">
        <ele>1117</ele>
        <time>2015-07-27T13:26:55Z</time>
      </trkpt>
      <trkpt lat="45.40784" lon="4.6185">
        <ele>1117</ele>
        <time>2015-07-27T13:26:59Z</time>
      </trkpt>
      <trkpt lat="45.4078" lon="4.61849">
        <ele>1118</ele>
        <time>2015-07-27T13:27:01Z</time>
      </trkpt>
      <trkpt lat="45.40769" lon="4.61846">
        <ele>1119</ele>
        <time>2015-07-27T13:27:06Z</time>
      </trkpt>
      <trkpt lat="45.40758" lon="4.61844">
        <ele>1121</ele>
        <time>2015-07-27T13:27:11Z</time>
      </trkpt>
      <trkpt lat="45.40747" lon="4.61842">
        <ele>1123</ele>
        <time>2015-07-27T13:27:16Z</time>
      </trkpt>
      <trkpt lat="45.40738" lon="4.6184">
        <ele>1122</ele>
        <time>2015-07-27T13:27:21Z</time>
      </trkpt>
      <trkpt lat="45.40727" lon="4.61836">
        <ele>1122</ele>
        <time>2015-07-27T13:27:26Z</time>
      </trkpt>
      <trkpt lat="45.40704" lon="4.61832">
        <ele>1138</ele>
        <time>2015-07-27T13:27:35Z</time>
      </trkpt>
      <trkpt lat="45.40691" lon="4.6183">
        <ele>1138</ele>
        <time>2015-07-27T13:27:40Z</time>
      </trkpt>
      <trkpt lat="45.40687" lon="4.61832">
        <ele>1138</ele>
        <time>2015-07-27T13:27:43Z</time>
      </trkpt>
      <trkpt lat="45.40681" lon="4.61828">
        <ele>1138</ele>
        <time>2015-07-27T13:27:46Z</time>
      </trkpt>
      <trkpt lat="45.40671" lon="4.61831">
        <ele>1136</ele>
        <time>2015-07-27T13:27:51Z</time>
      </trkpt>
      <trkpt lat="45.4066" lon="4.6183">
        <ele>1139</ele>
        <time>2015-07-27T13:27:56Z</time>
      </trkpt>
      <trkpt lat="45.40648" lon="4.61832">
        <ele>1144</ele>
        <time>2015-07-27T13:28:01Z</time>
      </trkpt>
      <trkpt lat="45.40639" lon="4.61833">
        <ele>1146</ele>
        <time>2015-07-27T13:28:06Z</time>
      </trkpt>
      <trkpt lat="45.40628" lon="4.61835">
        <ele>1131</ele>
        <time>2015-07-27T13:28:11Z</time>
      </trkpt>
      <trkpt lat="45.40618" lon="4.61835">
        <ele>1132</ele>
        <time>2015-07-27T13:28:16Z</time>
      </trkpt>
      <trkpt lat="45.40604" lon="4.61838">
        <ele>1134</ele>
        <time>2015-07-27T13:28:24Z</time>
      </trkpt>
      <trkpt lat="45.40598" lon="4.61839">
        <ele>1136</ele>
        <time>2015-07-27T13:28:27Z</time>
      </trkpt>
      <trkpt lat="45.40588" lon="4.61839">
        <ele>1139</ele>
        <time>2015-07-27T13:28:31Z</time>
      </trkpt>
      <trkpt lat="45.40569" lon="4.61841">
        <ele>1137</ele>
        <time>2015-07-27T13:28:39Z</time>
      </trkpt>
      <trkpt lat="45.40565" lon="4.61841">
        <ele>1136</ele>
        <time>2015-07-27T13:28:41Z</time>
      </trkpt>
      <trkpt lat="45.40549" lon="4.61841">
        <ele>1134</ele>
        <time>2015-07-27T13:28:47Z</time>
      </trkpt>
      <trkpt lat="45.40541" lon="4.6184">
        <ele>1134</ele>
        <time>2015-07-27T13:28:51Z</time>
      </trkpt>
      <trkpt lat="45.40517" lon="4.61835">
        <ele>1137</ele>
        <time>2015-07-27T13:29:00Z</time>
      </trkpt>
      <trkpt lat="45.40514" lon="4.61834">
        <ele>1138</ele>
        <time>2015-07-27T13:29:01Z</time>
      </trkpt>
      <trkpt lat="45.40496" lon="4.6183">
        <ele>1148</ele>
        <time>2015-07-27T13:29:09Z</time>
      </trkpt>
      <trkpt lat="45.40492" lon="4.61828">
        <ele>1150</ele>
        <time>2015-07-27T13:29:11Z</time>
      </trkpt>
      <trkpt lat="45.40479" lon="4.61823">
        <ele>1155</ele>
        <time>2015-07-27T13:29:19Z</time>
      </trkpt>
      <trkpt lat="45.40477" lon="4.61821">
        <ele>1156</ele>
        <time>2015-07-27T13:29:21Z</time>
      </trkpt>
      <trkpt lat="45.40468" lon="4.6182">
        <ele>1157</ele>
        <time>2015-07-27T13:29:26Z</time>
      </trkpt>
      <trkpt lat="45.40458" lon="4.61818">
        <ele>1158</ele>
        <time>2015-07-27T13:29:31Z</time>
      </trkpt>
      <trkpt lat="45.40445" lon="4.61814">
        <ele>1158</ele>
        <time>2015-07-27T13:29:36Z</time>
      </trkpt>
      <trkpt lat="45.40432" lon="4.61811">
        <ele>1158</ele>
        <time>2015-07-27T13:29:41Z</time>
      </trkpt>
      <trkpt lat="45.40417" lon="4.61806">
        <ele>1159</ele>
        <time>2015-07-27T13:29:49Z</time>
      </trkpt>
      <trkpt lat="45.40409" lon="4.61806">
        <ele>1160</ele>
        <time>2015-07-27T13:29:54Z</time>
      </trkpt>
      <trkpt lat="45.404" lon="4.61804">
        <ele>1161</ele>
        <time>2015-07-27T13:29:59Z</time>
      </trkpt>
      <trkpt lat="45.40397" lon="4.61803">
        <ele>1161</ele>
        <time>2015-07-27T13:30:01Z</time>
      </trkpt>
      <trkpt lat="45.40388" lon="4.61799">
        <ele>1163</ele>
        <time>2015-07-27T13:30:06Z</time>
      </trkpt>
      <trkpt lat="45.40376" lon="4.61801">
        <ele>1162</ele>
        <time>2015-07-27T13:30:12Z</time>
      </trkpt>
      <trkpt lat="45.40363" lon="4.61801">
        <ele>1162</ele>
        <time>2015-07-27T13:30:18Z</time>
      </trkpt>
      <trkpt lat="45.40348" lon="4.61799">
        <ele>1162</ele>
        <time>2015-07-27T13:30:24Z</time>
      </trkpt>
      <trkpt lat="45.40343" lon="4.61798">
        <ele>1163</ele>
        <time>2015-07-27T13:30:26Z</time>
      </trkpt>
      <trkpt lat="45.40327" lon="4.61797">
        <ele>1169</ele>
        <time>2015-07-27T13:30:34Z</time>
      </trkpt>
      <trkpt lat="45.40322" lon="4.61796">
        <ele>1170</ele>
        <time>2015-07-27T13:30:36Z</time>
      </trkpt>
      <trkpt lat="45.40303" lon="4.61796">
        <ele>1172</ele>
        <time>2015-07-27T13:30:45Z</time>
      </trkpt>
      <trkpt lat="45.40299" lon="4.61797">
        <ele>1172</ele>
        <time>2015-07-27T13:30:47Z</time>
      </trkpt>
      <trkpt lat="45.40285" lon="4.61803">
        <ele>1173</ele>
        <time>2015-07-27T13:30:54Z</time>
      </trkpt>
      <trkpt lat="45.40282" lon="4.61806">
        <ele>1173</ele>
        <time>2015-07-27T13:30:56Z</time>
      </trkpt>
      <trkpt lat="45.40262" lon="4.61816">
        <ele>1173</ele>
        <time>2015-07-27T13:31:05Z</time>
      </trkpt>
      <trkpt lat="45.4026" lon="4.61817">
        <ele>1173</ele>
        <time>2015-07-27T13:31:06Z</time>
      </trkpt>
      <trkpt lat="45.40248" lon="4.61827">
        <ele>1176</ele>
        <time>2015-07-27T13:31:12Z</time>
      </trkpt>
      <trkpt lat="45.40233" lon="4.61841">
        <ele>1174</ele>
        <time>2015-07-27T13:31:20Z</time>
      </trkpt>
      <trkpt lat="45.40231" lon="4.61843">
        <ele>1174</ele>
        <time>2015-07-27T13:31:21Z</time>
      </trkpt>
      <trkpt lat="45.40225" lon="4.61854">
        <ele>1176</ele>
        <time>2015-07-27T13:31:26Z</time>
      </trkpt>
      <trkpt lat="45.40219" lon="4.61864">
        <ele>1176</ele>
        <time>2015-07-27T13:31:31Z</time>
      </trkpt>
      <trkpt lat="45.40212" lon="4.6188">
        <ele>1176</ele>
        <time>2015-07-27T13:31:37Z</time>
      </trkpt>
      <trkpt lat="45.40207" lon="4.61894">
        <ele>1176</ele>
        <time>2015-07-27T13:31:42Z</time>
      </trkpt>
      <trkpt lat="45.40201" lon="4.61903">
        <ele>1177</ele>
        <time>2015-07-27T13:31:46Z</time>
      </trkpt>
      <trkpt lat="45.40196" lon="4.61913">
        <ele>1177</ele>
        <time>2015-07-27T13:31:51Z</time>
      </trkpt>
      <trkpt lat="45.4019" lon="4.61924">
        <ele>1170</ele>
        <time>2015-07-27T13:31:56Z</time>
      </trkpt>
      <trkpt lat="45.40184" lon="4.61934">
        <ele>1170</ele>
        <time>2015-07-27T13:32:01Z</time>
      </trkpt>
      <trkpt lat="45.40173" lon="4.61947">
        <ele>1169</ele>
        <time>2015-07-27T13:32:08Z</time>
      </trkpt>
      <trkpt lat="45.40168" lon="4.61952">
        <ele>1168</ele>
        <time>2015-07-27T13:32:11Z</time>
      </trkpt>
      <trkpt lat="45.40161" lon="4.61962">
        <ele>1180</ele>
        <time>2015-07-27T13:32:16Z</time>
      </trkpt>
      <trkpt lat="45.40153" lon="4.61973">
        <ele>1179</ele>
        <time>2015-07-27T13:32:22Z</time>
      </trkpt>
      <trkpt lat="45.40145" lon="4.61984">
        <ele>1178</ele>
        <time>2015-07-27T13:32:27Z</time>
      </trkpt>
      <trkpt lat="45.40138" lon="4.61993">
        <ele>1178</ele>
        <time>2015-07-27T13:32:31Z</time>
      </trkpt>
      <trkpt lat="45.40128" lon="4.62004">
        <ele>1164</ele>
        <time>2015-07-27T13:32:38Z</time>
      </trkpt>
      <trkpt lat="45.40115" lon="4.62013">
        <ele>1164</ele>
        <time>2015-07-27T13:32:45Z</time>
      </trkpt>
      <trkpt lat="45.4011" lon="4.62018">
        <ele>1164</ele>
        <time>2015-07-27T13:32:49Z</time>
      </trkpt>
      <trkpt lat="45.4011" lon="4.62021">
        <ele>1164</ele>
        <time>2015-07-27T13:32:51Z</time>
      </trkpt>
      <trkpt lat="45.40098" lon="4.62024">
        <ele>1164</ele>
        <time>2015-07-27T13:32:59Z</time>
      </trkpt>
      <trkpt lat="45.40095" lon="4.62023">
        <ele>1165</ele>
        <time>2015-07-27T13:33:01Z</time>
      </trkpt>
      <trkpt lat="45.40086" lon="4.62017">
        <ele>1168</ele>
        <time>2015-07-27T13:33:06Z</time>
      </trkpt>
      <trkpt lat="45.40079" lon="4.62009">
        <ele>1168</ele>
        <time>2015-07-27T13:33:11Z</time>
      </trkpt>
      <trkpt lat="45.40071" lon="4.62001">
        <ele>1167</ele>
        <time>2015-07-27T13:33:16Z</time>
      </trkpt>
      <trkpt lat="45.40063" lon="4.61993">
        <ele>1177</ele>
        <time>2015-07-27T13:33:21Z</time>
      </trkpt>
      <trkpt lat="45.40055" lon="4.61985">
        <ele>1177</ele>
        <time>2015-07-27T13:33:26Z</time>
      </trkpt>
      <trkpt lat="45.40046" lon="4.61978">
        <ele>1177</ele>
        <time>2015-07-27T13:33:31Z</time>
      </trkpt>
      <trkpt lat="45.40036" lon="4.61972">
        <ele>1177</ele>
        <time>2015-07-27T13:33:36Z</time>
      </trkpt>
      <trkpt lat="45.40027" lon="4.61966">
        <ele>1177</ele>
        <time>2015-07-27T13:33:41Z</time>
      </trkpt>
      <trkpt lat="45.40018" lon="4.6196">
        <ele>1177</ele>
        <time>2015-07-27T13:33:46Z</time>
      </trkpt>
      <trkpt lat="45.40009" lon="4.61952">
        <ele>1178</ele>
        <time>2015-07-27T13:33:51Z</time>
      </trkpt>
      <trkpt lat="45.40001" lon="4.61945">
        <ele>1180</ele>
        <time>2015-07-27T13:33:56Z</time>
      </trkpt>
      <trkpt lat="45.39993" lon="4.61935">
        <ele>1173</ele>
        <time>2015-07-27T13:34:01Z</time>
      </trkpt>
      <trkpt lat="45.39987" lon="4.61924">
        <ele>1175</ele>
        <time>2015-07-27T13:34:06Z</time>
      </trkpt>
      <trkpt lat="45.39982" lon="4.61912">
        <ele>1184</ele>
        <time>2015-07-27T13:34:11Z</time>
      </trkpt>
      <trkpt lat="45.39977" lon="4.61899">
        <ele>1184</ele>
        <time>2015-07-27T13:34:16Z</time>
      </trkpt>
      <trkpt lat="45.39972" lon="4.61887">
        <ele>1185</ele>
        <time>2015-07-27T13:34:21Z</time>
      </trkpt>
      <trkpt lat="45.39966" lon="4.61875">
        <ele>1185</ele>
        <time>2015-07-27T13:34:26Z</time>
      </trkpt>
      <trkpt lat="45.39961" lon="4.61863">
        <ele>1186</ele>
        <time>2015-07-27T13:34:31Z</time>
      </trkpt>
      <trkpt lat="45.39954" lon="4.61849">
        <ele>1186</ele>
        <time>2015-07-27T13:34:36Z</time>
      </trkpt>
      <trkpt lat="45.39948" lon="4.61837">
        <ele>1186</ele>
        <time>2015-07-27T13:34:41Z</time>
      </trkpt>
      <trkpt lat="45.39942" lon="4.61826">
        <ele>1197</ele>
        <time>2015-07-27T13:34:46Z</time>
      </trkpt>
      <trkpt lat="45.39935" lon="4.61814">
        <ele>1198</ele>
        <time>2015-07-27T13:34:51Z</time>
      </trkpt>
      <trkpt lat="45.3993" lon="4.61802">
        <ele>1200</ele>
        <time>2015-07-27T13:34:56Z</time>
      </trkpt>
      <trkpt lat="45.39924" lon="4.61789">
        <ele>1202</ele>
        <time>2015-07-27T13:35:01Z</time>
      </trkpt>
      <trkpt lat="45.39917" lon="4.61778">
        <ele>1203</ele>
        <time>2015-07-27T13:35:06Z</time>
      </trkpt>
      <trkpt lat="45.39911" lon="4.61767">
        <ele>1194</ele>
        <time>2015-07-27T13:35:11Z</time>
      </trkpt>
      <trkpt lat="45.39905" lon="4.61754">
        <ele>1197</ele>
        <time>2015-07-27T13:35:16Z</time>
      </trkpt>
      <trkpt lat="45.39898" lon="4.61744">
        <ele>1206</ele>
        <time>2015-07-27T13:35:21Z</time>
      </trkpt>
      <trkpt lat="45.3989" lon="4.61733">
        <ele>1206</ele>
        <time>2015-07-27T13:35:26Z</time>
      </trkpt>
      <trkpt lat="45.39883" lon="4.61724">
        <ele>1206</ele>
        <time>2015-07-27T13:35:31Z</time>
      </trkpt>
      <trkpt lat="45.39874" lon="4.61714">
        <ele>1206</ele>
        <time>2015-07-27T13:35:36Z</time>
      </trkpt>
      <trkpt lat="45.39867" lon="4.61705">
        <ele>1207</ele>
        <time>2015-07-27T13:35:41Z</time>
      </trkpt>
      <trkpt lat="45.39858" lon="4.61695">
        <ele>1207</ele>
        <time>2015-07-27T13:35:46Z</time>
      </trkpt>
      <trkpt lat="45.39851" lon="4.61685">
        <ele>1207</ele>
        <time>2015-07-27T13:35:51Z</time>
      </trkpt>
      <trkpt lat="45.39845" lon="4.61675">
        <ele>1207</ele>
        <time>2015-07-27T13:35:56Z</time>
      </trkpt>
      <trkpt lat="45.39838" lon="4.61665">
        <ele>1212</ele>
        <time>2015-07-27T13:36:01Z</time>
      </trkpt>
      <trkpt lat="45.39831" lon="4.61655">
        <ele>1211</ele>
        <time>2015-07-27T13:36:06Z</time>
      </trkpt>
      <trkpt lat="45.39824" lon="4.61646">
        <ele>1213</ele>
        <time>2015-07-27T13:36:11Z</time>
      </trkpt>
      <trkpt lat="45.39815" lon="4.61637">
        <ele>1215</ele>
        <time>2015-07-27T13:36:16Z</time>
      </trkpt>
      <trkpt lat="45.39806" lon="4.61628">
        <ele>1217</ele>
        <time>2015-07-27T13:36:21Z</time>
      </trkpt>
      <trkpt lat="45.39798" lon="4.6162">
        <ele>1218</ele>
        <time>2015-07-27T13:36:26Z</time>
      </trkpt>
      <trkpt lat="45.39789" lon="4.61613">
        <ele>1218</ele>
        <time>2015-07-27T13:36:31Z</time>
      </trkpt>
      <trkpt lat="45.3978" lon="4.61608">
        <ele>1218</ele>
        <time>2015-07-27T13:36:36Z</time>
      </trkpt>
      <trkpt lat="45.3977" lon="4.61602">
        <ele>1219</ele>
        <time>2015-07-27T13:36:41Z</time>
      </trkpt>
      <trkpt lat="45.39759" lon="4.61595">
        <ele>1221</ele>
        <time>2015-07-27T13:36:46Z</time>
      </trkpt>
      <trkpt lat="45.39749" lon="4.61588">
        <ele>1221</ele>
        <time>2015-07-27T13:36:51Z</time>
      </trkpt>
      <trkpt lat="45.39739" lon="4.61581">
        <ele>1229</ele>
        <time>2015-07-27T13:36:56Z</time>
      </trkpt>
      <trkpt lat="45.39728" lon="4.61576">
        <ele>1231</ele>
        <time>2015-07-27T13:37:01Z</time>
      </trkpt>
      <trkpt lat="45.39717" lon="4.61571">
        <ele>1232</ele>
        <time>2015-07-27T13:37:06Z</time>
      </trkpt>
      <trkpt lat="45.39707" lon="4.61569">
        <ele>1232</ele>
        <time>2015-07-27T13:37:12Z</time>
      </trkpt>
      <trkpt lat="45.39698" lon="4.61566">
        <ele>1232</ele>
        <time>2015-07-27T13:37:16Z</time>
      </trkpt>
      <trkpt lat="45.39687" lon="4.61561">
        <ele>1231</ele>
        <time>2015-07-27T13:37:21Z</time>
      </trkpt>
      <trkpt lat="45.39673" lon="4.61558">
        <ele>1231</ele>
        <time>2015-07-27T13:37:27Z</time>
      </trkpt>
      <trkpt lat="45.39665" lon="4.61555">
        <ele>1228</ele>
        <time>2015-07-27T13:37:31Z</time>
      </trkpt>
      <trkpt lat="45.39651" lon="4.61553">
        <ele>1228</ele>
        <time>2015-07-27T13:37:36Z</time>
      </trkpt>
      <trkpt lat="45.3963" lon="4.61548">
        <ele>1229</ele>
        <time>2015-07-27T13:37:44Z</time>
      </trkpt>
      <trkpt lat="45.39622" lon="4.61545">
        <ele>1229</ele>
        <time>2015-07-27T13:37:46Z</time>
      </trkpt>
      <trkpt lat="45.39608" lon="4.61541">
        <ele>1229</ele>
        <time>2015-07-27T13:37:52Z</time>
      </trkpt>
      <trkpt lat="45.39596" lon="4.61536">
        <ele>1230</ele>
        <time>2015-07-27T13:37:56Z</time>
      </trkpt>
      <trkpt lat="45.39571" lon="4.61531">
        <ele>1227</ele>
        <time>2015-07-27T13:38:04Z</time>
      </trkpt>
      <trkpt lat="45.39564" lon="4.6153">
        <ele>1227</ele>
        <time>2015-07-27T13:38:06Z</time>
      </trkpt>
      <trkpt lat="45.39547" lon="4.61529">
        <ele>1227</ele>
        <time>2015-07-27T13:38:11Z</time>
      </trkpt>
      <trkpt lat="45.39527" lon="4.61527">
        <ele>1227</ele>
        <time>2015-07-27T13:38:16Z</time>
      </trkpt>
      <trkpt lat="45.39506" lon="4.61527">
        <ele>1227</ele>
        <time>2015-07-27T13:38:21Z</time>
      </trkpt>
      <trkpt lat="45.39484" lon="4.61525">
        <ele>1230</ele>
        <time>2015-07-27T13:38:26Z</time>
      </trkpt>
      <trkpt lat="45.39465" lon="4.61525">
        <ele>1230</ele>
        <time>2015-07-27T13:38:31Z</time>
      </trkpt>
      <trkpt lat="45.39443" lon="4.61527">
        <ele>1231</ele>
        <time>2015-07-27T13:38:37Z</time>
      </trkpt>
      <trkpt lat="45.39413" lon="4.61535">
        <ele>1241</ele>
        <time>2015-07-27T13:38:45Z</time>
      </trkpt>
      <trkpt lat="45.39405" lon="4.61537">
        <ele>1240</ele>
        <time>2015-07-27T13:38:47Z</time>
      </trkpt>
      <trkpt lat="45.39386" lon="4.61544">
        <ele>1241</ele>
        <time>2015-07-27T13:38:52Z</time>
      </trkpt>
      <trkpt lat="45.39367" lon="4.61552">
        <ele>1241</ele>
        <time>2015-07-27T13:38:57Z</time>
      </trkpt>
      <trkpt lat="45.39348" lon="4.6156">
        <ele>1241</ele>
        <time>2015-07-27T13:39:02Z</time>
      </trkpt>
      <trkpt lat="45.39327" lon="4.61565">
        <ele>1244</ele>
        <time>2015-07-27T13:39:07Z</time>
      </trkpt>
      <trkpt lat="45.39292" lon="4.6157">
        <ele>1245</ele>
        <time>2015-07-27T13:39:15Z</time>
      </trkpt>
      <trkpt lat="45.39284" lon="4.61572">
        <ele>1245</ele>
        <time>2015-07-27T13:39:17Z</time>
      </trkpt>
      <trkpt lat="45.39263" lon="4.61574">
        <ele>1240</ele>
        <time>2015-07-27T13:39:22Z</time>
      </trkpt>
      <trkpt lat="45.39242" lon="4.61575">
        <ele>1238</ele>
        <time>2015-07-27T13:39:27Z</time>
      </trkpt>
      <trkpt lat="45.39222" lon="4.61574">
        <ele>1243</ele>
        <time>2015-07-27T13:39:32Z</time>
      </trkpt>
      <trkpt lat="45.39202" lon="4.61571">
        <ele>1244</ele>
        <time>2015-07-27T13:39:37Z</time>
      </trkpt>
      <trkpt lat="45.39183" lon="4.6157">
        <ele>1241</ele>
        <time>2015-07-27T13:39:42Z</time>
      </trkpt>
      <trkpt lat="45.39164" lon="4.61566">
        <ele>1239</ele>
        <time>2015-07-27T13:39:47Z</time>
      </trkpt>
      <trkpt lat="45.39145" lon="4.61565">
        <ele>1241</ele>
        <time>2015-07-27T13:39:52Z</time>
      </trkpt>
      <trkpt lat="45.39123" lon="4.61566">
        <ele>1242</ele>
        <time>2015-07-27T13:39:57Z</time>
      </trkpt>
      <trkpt lat="45.391" lon="4.61567">
        <ele>1239</ele>
        <time>2015-07-27T13:40:02Z</time>
      </trkpt>
      <trkpt lat="45.39078" lon="4.6157">
        <ele>1235</ele>
        <time>2015-07-27T13:40:07Z</time>
      </trkpt>
      <trkpt lat="45.39059" lon="4.61573">
        <ele>1238</ele>
        <time>2015-07-27T13:40:12Z</time>
      </trkpt>
      <trkpt lat="45.3904" lon="4.61574">
        <ele>1239</ele>
        <time>2015-07-27T13:40:17Z</time>
      </trkpt>
      <trkpt lat="45.39019" lon="4.61575">
        <ele>1237</ele>
        <time>2015-07-27T13:40:22Z</time>
      </trkpt>
      <trkpt lat="45.39" lon="4.61576">
        <ele>1234</ele>
        <time>2015-07-27T13:40:27Z</time>
      </trkpt>
      <trkpt lat="45.38979" lon="4.61578">
        <ele>1237</ele>
        <time>2015-07-27T13:40:32Z</time>
      </trkpt>
      <trkpt lat="45.38958" lon="4.61579">
        <ele>1238</ele>
        <time>2015-07-27T13:40:37Z</time>
      </trkpt>
      <trkpt lat="45.3894" lon="4.6158">
        <ele>1238</ele>
        <time>2015-07-27T13:40:42Z</time>
      </trkpt>
      <trkpt lat="45.38924" lon="4.61579">
        <ele>1237</ele>
        <time>2015-07-27T13:40:47Z</time>
      </trkpt>
      <trkpt lat="45.38907" lon="4.61579">
        <ele>1236</ele>
        <time>2015-07-27T13:40:52Z</time>
      </trkpt>
      <trkpt lat="45.38892" lon="4.61578">
        <ele>1236</ele>
        <time>2015-07-27T13:40:57Z</time>
      </trkpt>
      <trkpt lat="45.38879" lon="4.61578">
        <ele>1237</ele>
        <time>2015-07-27T13:41:02Z</time>
      </trkpt>
      <trkpt lat="45.38864" lon="4.61573">
        <ele>1237</ele>
        <time>2015-07-27T13:41:07Z</time>
      </trkpt>
      <trkpt lat="45.38848" lon="4.61569">
        <ele>1236</ele>
        <time>2015-07-27T13:41:12Z</time>
      </trkpt>
      <trkpt lat="45.38841" lon="4.61586">
        <ele>1235</ele>
        <time>2015-07-27T13:41:17Z</time>
      </trkpt>
      <trkpt lat="45.3884" lon="4.61587">
        <ele>1235</ele>
        <time>2015-07-27T13:41:22Z</time>
      </trkpt>
      <trkpt lat="45.3884" lon="4.61588">
        <ele>1235</ele>
        <time>2015-07-27T13:41:25Z</time>
      </trkpt>
      <trkpt lat="45.3884" lon="4.61588">
        <ele>1235</ele>
        <time>2015-07-27T13:41:28Z</time>
      </trkpt>
      <trkpt lat="45.3884" lon="4.61589">
        <ele>1235</ele>
        <time>2015-07-27T13:41:31Z</time>
      </trkpt>
      <trkpt lat="45.38839" lon="4.61588">
        <ele>1235</ele>
        <time>2015-07-27T13:41:36Z</time>
      </trkpt>
      <trkpt lat="45.38839" lon="4.61588">
        <ele>1235</ele>
        <time>2015-07-27T13:41:39Z</time>
      </trkpt>
      <trkpt lat="45.3884" lon="4.61588">
        <ele>1235</ele>
        <time>2015-07-27T13:41:42Z</time>
      </trkpt>
      <trkpt lat="45.3884" lon="4.6159">
        <ele>1235</ele>
        <time>2015-07-27T13:41:45Z</time>
      </trkpt>
      <trkpt lat="45.38841" lon="4.6159">
        <ele>1235</ele>
        <time>2015-07-27T13:41:50Z</time>
      </trkpt>
      <trkpt lat="45.38842" lon="4.6159">
        <ele>1235</ele>
        <time>2015-07-27T13:41:53Z</time>
      </trkpt>
      <trkpt lat="45.38844" lon="4.61589">
        <ele>1235</ele>
        <time>2015-07-27T13:41:56Z</time>
      </trkpt>
      <trkpt lat="45.38845" lon="4.61591">
        <ele>1234</ele>
        <time>2015-07-27T13:42:01Z</time>
      </trkpt>
      <trkpt lat="45.38845" lon="4.61591">
        <ele>1234</ele>
        <time>2015-07-27T13:42:04Z</time>
      </trkpt>
      <trkpt lat="45.38845" lon="4.61592">
        <ele>1234</ele>
        <time>2015-07-27T13:42:07Z</time>
      </trkpt>
      <trkpt lat="45.38845" lon="4.61592">
        <ele>1234</ele>
        <time>2015-07-27T13:42:10Z</time>
      </trkpt>
      <trkpt lat="45.38845" lon="4.61594">
        <ele>1234</ele>
        <time>2015-07-27T13:42:13Z</time>
      </trkpt>
      <trkpt lat="45.38845" lon="4.61594">
        <ele>1234</ele>
        <time>2015-07-27T13:42:18Z</time>
      </trkpt>
      <trkpt lat="45.38845" lon="4.61594">
        <ele>1234</ele>
        <time>2015-07-27T13:42:21Z</time>
      </trkpt>
      <trkpt lat="45.38845" lon="4.61593">
        <ele>1234</ele>
        <time>2015-07-27T13:42:24Z</time>
      </trkpt>
      <trkpt lat="45.38845" lon="4.61593">
        <ele>1234</ele>
        <time>2015-07-27T13:42:27Z</time>
      </trkpt>
      <trkpt lat="45.38845" lon="4.61593">
        <ele>1234</ele>
        <time>2015-07-27T13:42:30Z</time>
      </trkpt>
      <trkpt lat="45.38846" lon="4.61594">
        <ele>1234</ele>
        <time>2015-07-27T13:42:33Z</time>
      </trkpt>
      <trkpt lat="45.3885" lon="4.61599">
        <ele>1234</ele>
        <time>2015-07-27T13:42:36Z</time>
      </trkpt>
    </trkseg>
  </trk>
</gpx>